AZ609 / EI-DIP 7700 Squawk Report (23rd of January, 2023)

Aircraft A332 Reg No. EI-DIP Age 22 years old
Model A330 Jet engines 2 First flight 15-05-00
Registered 06-08-20 Rollout 05-00 Delivered 26-05-00
Construction No. 339 Line No. N/A Series 202
ADSHEX 4CA262 Airline name ITA Airways Owner N/A
Airfield based Rome-Fiumicino~Lazio~I First tracked N/A

Flight history for EI-DIP

Route Flight No Date Playback
Fiumicino (FCO) - John F Kennedy Intl (JFK) AZ608 2023-01-30 17:48:00
Guarulhos Gov Andre Franco Montoro (GRU) - Fiumicino (FCO) AZ675 2023-01-30 06:03:00
???? N/A 2023-01-29 19:05:00
Ben Gurion (TLV) - Fiumicino (FCO) AZ807 2023-01-28 18:36:00
Fiumicino (FCO) - Ben Gurion (TLV) AZ806 2023-01-28 15:05:00
John F Kennedy Intl (JFK) - Fiumicino (FCO) AZ611 2023-01-27 10:54:00
Malpensa (MXP) - John F Kennedy Intl (JFK) AZ604 2023-01-27 02:49:00
John F Kennedy Intl (JFK) - Malpensa (MXP) AZ605 2023-01-26 09:28:00
Fiumicino (FCO) - John F Kennedy Intl (JFK) AZ610 2023-01-26 01:51:00
???? N/A 2023-01-24 23:24:00
John F Kennedy Intl (JFK) - Fiumicino (FCO) AZ609 2023-01-24 04:27:00
Fiumicino (FCO) - John F Kennedy Intl (JFK) AZ608 2023-01-23 19:23:00
Guarulhos Gov Andre Franco Montoro (GRU) - Fiumicino (FCO) AZ675 2023-01-23 06:02:00
Fiumicino (FCO) - Guarulhos Gov Andre Franco Montoro (GRU) AZ674 2023-01-22 18:55:00
???? N/A 2023-01-19 00:09:00
Ibrahim Nasir Intl (MLE) - Fiumicino (FCO) AZ777 2023-01-16 18:55:00
Fiumicino (FCO) - Ibrahim Nasir Intl (MLE) AZ776 2023-01-16 05:53:00
Ibrahim Nasir Intl (MLE) - Fiumicino (FCO) AZ777 2023-01-15 19:19:00
Fiumicino (FCO) - Ibrahim Nasir Intl (MLE) AZ776 2023-01-15 06:14:00
John F Kennedy Intl (JFK) - Fiumicino (FCO) AZ611 2023-01-14 10:40:00
Time Lat Lon Altitude Heading Speed Vertical Rate
2023-01-24 04:26:18 GMT 51.460880 -0.451965 0 312 0 0
2023-01-24 04:26:15 GMT 51.460880 -0.451965 0 312 0 0
2023-01-24 04:26:12 GMT 51.460880 -0.451965 0 312 0 0
2023-01-24 04:26:10 GMT 51.460880 -0.451965 0 312 0 0
2023-01-24 04:26:09 GMT 51.460888 -0.451961 0 312 0 0
2023-01-24 04:26:07 GMT 51.460880 -0.451965 0 312 0 0
2023-01-24 04:26:03 GMT 51.460888 -0.451961 0 312 0 0
2023-01-24 04:26:02 GMT 51.460876 -0.451943 0 312 1 0
2023-01-24 04:26:01 GMT 51.460880 -0.451965 0 312 0 0
2023-01-24 04:25:58 GMT 51.460880 -0.451946 0 312 0 0
2023-01-24 04:25:56 GMT 51.460876 -0.451943 0 312 0 0
2023-01-24 04:25:55 GMT 51.460869 -0.451946 0 312 1 0
2023-01-24 04:25:53 GMT 51.460857 -0.451927 0 312 1 0
2023-01-24 04:25:50 GMT 51.460854 -0.451906 0 312 2 0
2023-01-24 04:25:46 GMT 51.460831 -0.451868 0 312 2 0
2023-01-24 04:25:45 GMT 51.460819 -0.451850 0 312 2 0
2023-01-24 04:25:43 GMT 51.460808 -0.451813 0 312 3 0
2023-01-24 04:25:40 GMT 51.460789 -0.451775 0 312 3 0
2023-01-24 04:25:39 GMT 51.460777 -0.451775 0 312 3 0
2023-01-24 04:25:37 GMT 51.460762 -0.451739 0 312 3 0
2023-01-24 04:25:36 GMT 51.460751 -0.451717 0 312 3 0
2023-01-24 04:25:34 GMT 51.460739 -0.451698 0 312 3 0
2023-01-24 04:25:33 GMT 51.460728 -0.451683 0 312 3 0
2023-01-24 04:25:32 GMT 51.460716 -0.451664 0 312 3 0
2023-01-24 04:25:31 GMT 51.460705 -0.451627 0 312 3 0
2023-01-24 04:25:29 GMT 51.460693 -0.451622 0 312 3 0
2023-01-24 04:25:26 GMT 51.460659 -0.451553 0 312 3 0
2023-01-24 04:25:25 GMT 51.460648 -0.451553 0 312 3 0
2023-01-24 04:25:23 GMT 51.460636 -0.451508 0 312 3 0
2023-01-24 04:25:22 GMT 51.460625 -0.451497 0 312 3 0
2023-01-24 04:25:20 GMT 51.460613 -0.451469 0 312 3 0
2023-01-24 04:25:18 GMT 51.460602 -0.451442 0 312 3 0
2023-01-24 04:25:17 GMT 51.460590 -0.451431 0 312 3 0
2023-01-24 04:25:16 GMT 51.460579 -0.451412 0 312 3 0
2023-01-24 04:25:14 GMT 51.460567 -0.451393 0 312 2 0
2023-01-24 04:25:13 GMT 51.460552 -0.451374 0 312 3 0
2023-01-24 04:25:08 GMT 51.460529 -0.451336 0 312 3 0
2023-01-24 04:25:06 GMT 51.460522 -0.451312 0 312 3 0
2023-01-24 04:25:04 GMT 51.460510 -0.451275 0 312 3 0
2023-01-24 04:25:03 GMT 51.460495 -0.451260 0 312 3 0
2023-01-24 04:25:02 GMT 51.460487 -0.451237 0 312 3 0
2023-01-24 04:25:01 GMT 51.460476 -0.451237 0 312 4 0
2023-01-24 04:25:00 GMT 51.460464 -0.451200 0 312 3 0
2023-01-24 04:24:57 GMT 51.460438 -0.451164 0 309 4 0
2023-01-24 04:24:56 GMT 51.460426 -0.451164 0 306 3 0
2023-01-24 04:24:52 GMT 51.460384 -0.451145 0 298 4 0
2023-01-24 04:24:51 GMT 51.460323 -0.451107 0 286 3 0
2023-01-24 04:24:49 GMT 51.460323 -0.451107 0 286 3 0
2023-01-24 04:24:48 GMT 51.460312 -0.451107 0 284 3 0
2023-01-24 04:24:42 GMT 51.460247 -0.451015 0 264 3 0
2023-01-24 04:24:39 GMT 51.460228 -0.450993 0 258 3 0
2023-01-24 04:24:38 GMT 51.460217 -0.450954 0 253 4 0
2023-01-24 04:24:36 GMT 51.460213 -0.450941 0 250 5 0
2023-01-24 04:24:35 GMT 51.460201 -0.450922 0 244 5 0
2023-01-24 04:24:34 GMT 51.460182 -0.450897 0 241 4 0
2023-01-24 04:24:33 GMT 51.460182 -0.450859 0 239 5 0
2023-01-24 04:24:26 GMT 51.460224 -0.450662 0 222 4 0
2023-01-24 04:24:20 GMT 51.460304 -0.450532 0 222 5 0
2023-01-24 04:24:19 GMT 51.460316 -0.450514 0 222 5 0
2023-01-24 04:24:17 GMT 51.460346 -0.450478 0 222 4 0
2023-01-24 04:24:15 GMT 51.460381 -0.450420 0 222 3 0
2023-01-24 04:24:13 GMT 51.460392 -0.450401 0 222 4 0
2023-01-24 04:24:12 GMT 51.460407 -0.450384 0 222 6 0
2023-01-24 04:24:06 GMT 51.460529 -0.450211 0 222 7 0
2023-01-24 04:24:04 GMT 51.460567 -0.450153 0 222 12 0
2023-01-24 04:24:03 GMT 51.460602 -0.450105 0 222 13 0
2023-01-24 04:24:02 GMT 51.460682 -0.450001 0 222 14 0
2023-01-24 04:23:52 GMT 51.461136 -0.449352 0 222 13 0
2023-01-24 04:23:48 GMT 51.461323 -0.449085 0 222 13 0
2023-01-24 04:23:46 GMT 51.461472 -0.448881 0 222 12 0
2023-01-24 04:23:44 GMT 51.461472 -0.448881 0 222 12 0
2023-01-24 04:23:42 GMT 51.461552 -0.448769 0 222 12 0
2023-01-24 04:23:40 GMT 51.461609 -0.448676 0 222 12 0
2023-01-24 04:23:38 GMT 51.461720 -0.448513 0 222 11 0
2023-01-24 04:23:37 GMT 51.461746 -0.448472 0 222 11 0
2023-01-24 04:23:36 GMT 51.461903 -0.448246 0 222 12 0
2023-01-24 04:23:33 GMT 51.461903 -0.448246 0 222 12 0
2023-01-24 04:23:32 GMT 51.461987 -0.448132 0 222 12 0
2023-01-24 04:23:30 GMT 51.462021 -0.448074 0 222 12 0
2023-01-24 04:23:29 GMT 51.462101 -0.447953 0 222 12 0
2023-01-24 04:23:26 GMT 51.462181 -0.447841 0 222 12 0
2023-01-24 04:23:25 GMT 51.462231 -0.447788 0 222 12 0
2023-01-24 04:23:24 GMT 51.462261 -0.447749 0 219 12 0
2023-01-24 04:23:22 GMT 51.462322 -0.447617 0 216 12 0
2023-01-24 04:23:21 GMT 51.462357 -0.447559 0 213 11 0
2023-01-24 04:23:16 GMT 51.462543 -0.447292 0 185 11 0
2023-01-24 04:23:13 GMT 51.462673 -0.447178 0 165 11 0
2023-01-24 04:23:12 GMT 51.462765 -0.447159 0 151 10 0
2023-01-24 04:23:09 GMT 51.462856 -0.447173 0 140 9 0
2023-01-24 04:23:07 GMT 51.462929 -0.447216 0 132 9 0
2023-01-24 04:23:06 GMT 51.462959 -0.447229 0 126 8 0
2023-01-24 04:23:04 GMT 51.463017 -0.447285 0 118 8 0
2023-01-24 04:23:02 GMT 51.463093 -0.447407 0 106 7 0
2023-01-24 04:23:00 GMT 51.463108 -0.447433 0 104 6 0
2023-01-24 04:22:58 GMT 51.463127 -0.447502 0 101 6 0
2023-01-24 04:22:57 GMT 51.463142 -0.447544 0 98 6 0
2023-01-24 04:22:54 GMT 51.463173 -0.447674 0 92 5 0
2023-01-24 04:22:52 GMT 51.463177 -0.447711 0 92 5 0
2023-01-24 04:22:51 GMT 51.463184 -0.447750 0 90 5 0
2023-01-24 04:22:50 GMT 51.463184 -0.447788 0 90 4 0
2023-01-24 04:22:49 GMT 51.463184 -0.447826 0 90 4 0
2023-01-24 04:22:48 GMT 51.463188 -0.447878 0 90 4 0
2023-01-24 04:22:45 GMT 51.463188 -0.447916 0 90 3 0
2023-01-24 04:22:43 GMT 51.463188 -0.447953 0 90 3 0
2023-01-24 04:22:31 GMT 51.463184 -0.448093 0 90 0 0
2023-01-24 04:22:22 GMT 51.463188 -0.448101 0 90 0 0
2023-01-24 04:22:16 GMT 51.463184 -0.448112 0 90 0 0
2023-01-24 04:22:11 GMT 51.463188 -0.448101 0 90 0 0
2023-01-24 04:21:47 GMT 51.463188 -0.448101 0 90 0 0
2023-01-24 04:21:44 GMT 51.463184 -0.448112 0 90 0 0
2023-01-24 04:21:42 GMT 51.463188 -0.448101 0 90 0 0
2023-01-24 04:21:40 GMT 51.463184 -0.448112 0 90 0 0
2023-01-24 04:21:38 GMT 51.463184 -0.448112 0 90 0 0
2023-01-24 04:21:36 GMT 51.463188 -0.448101 0 90 0 0
2023-01-24 04:21:35 GMT 51.463188 -0.448101 0 90 0 0
2023-01-24 04:21:31 GMT 51.463184 -0.448112 0 90 0 0
2023-01-24 04:21:29 GMT 51.463188 -0.448101 0 90 0 0
2023-01-24 04:21:23 GMT 51.463184 -0.448112 0 90 0 0
2023-01-24 04:21:21 GMT 51.463188 -0.448101 0 90 2 0
2023-01-24 04:21:18 GMT 51.463184 -0.448170 0 90 6 0
2023-01-24 04:21:17 GMT 51.463184 -0.448208 0 90 6 0
2023-01-24 04:21:13 GMT 51.463188 -0.448342 0 90 5 0
2023-01-24 04:21:12 GMT 51.463188 -0.448380 0 90 5 0
2023-01-24 04:21:11 GMT 51.463188 -0.448417 0 90 4 0
2023-01-24 04:21:10 GMT 51.463184 -0.448513 0 90 5 0
2023-01-24 04:21:08 GMT 51.463184 -0.448513 0 90 5 0
2023-01-24 04:21:06 GMT 51.463188 -0.448565 0 90 5 0
2023-01-24 04:21:01 GMT 51.463188 -0.448862 0 90 8 0
2023-01-24 04:20:59 GMT 51.463188 -0.448862 0 90 8 0
2023-01-24 04:20:56 GMT 51.463184 -0.448971 0 90 9 0
2023-01-24 04:20:55 GMT 51.463184 -0.449047 0 90 11 0
2023-01-24 04:20:54 GMT 51.463184 -0.449123 0 90 11 0
2023-01-24 04:20:53 GMT 51.463184 -0.449486 0 90 14 0
2023-01-24 04:20:50 GMT 51.463184 -0.449753 0 90 14 0
2023-01-24 04:20:45 GMT 51.463184 -0.449963 0 90 14 0
2023-01-24 04:20:43 GMT 51.463184 -0.450153 0 90 13 0
2023-01-24 04:20:39 GMT 51.463184 -0.450573 0 90 13 0
2023-01-24 04:20:36 GMT 51.463188 -0.450848 0 90 12 0
2023-01-24 04:20:34 GMT 51.463184 -0.451012 0 87 12 0
2023-01-24 04:20:33 GMT 51.463184 -0.451107 0 87 12 0
2023-01-24 04:20:30 GMT 51.463184 -0.451317 0 87 12 0
2023-01-24 04:20:29 GMT 51.463177 -0.451460 0 87 12 0
2023-01-24 04:20:28 GMT 51.463173 -0.451641 0 90 12 0
2023-01-24 04:20:24 GMT 51.463177 -0.451850 0 90 12 0
2023-01-24 04:20:23 GMT 51.463173 -0.451965 0 90 12 0
2023-01-24 04:20:20 GMT 51.463165 -0.452202 0 90 12 0
2023-01-24 04:20:17 GMT 51.463165 -0.452499 0 90 12 0
2023-01-24 04:20:16 GMT 51.463161 -0.452576 0 90 11 0
2023-01-24 04:20:14 GMT 51.463173 -0.452728 0 92 11 0
2023-01-24 04:20:13 GMT 51.463161 -0.452824 0 92 11 0
2023-01-24 04:20:12 GMT 51.463165 -0.452908 0 95 11 0
2023-01-24 04:20:09 GMT 51.463154 -0.453093 0 104 11 0
2023-01-24 04:20:08 GMT 51.463161 -0.453167 0 106 11 0
2023-01-24 04:20:07 GMT 51.463165 -0.453260 0 109 11 0
2023-01-24 04:20:05 GMT 51.463173 -0.453415 0 123 11 0
2023-01-24 04:20:04 GMT 51.463173 -0.453453 0 126 11 0
2023-01-24 04:20:03 GMT 51.463184 -0.453529 0 132 10 0
2023-01-24 04:20:02 GMT 51.463207 -0.453625 0 140 10 0
2023-01-24 04:20:01 GMT 51.463234 -0.453687 0 143 10 0
2023-01-24 04:19:59 GMT 51.463280 -0.453798 0 154 9 0
2023-01-24 04:19:58 GMT 51.463314 -0.453854 0 160 9 0
2023-01-24 04:19:56 GMT 51.463371 -0.453911 0 163 9 0
2023-01-24 04:19:55 GMT 51.463394 -0.454044 0 165 8 0
2023-01-24 04:19:54 GMT 51.463440 -0.453947 0 165 8 0
2023-01-24 04:19:53 GMT 51.463512 -0.453987 0 165 8 0
2023-01-24 04:19:51 GMT 51.463543 -0.454003 0 165 8 0
2023-01-24 04:19:50 GMT 51.463612 -0.454003 0 163 8 0
2023-01-24 04:19:48 GMT 51.463638 -0.454006 0 163 8 0
2023-01-24 04:19:47 GMT 51.463673 -0.454006 0 160 7 0
2023-01-24 04:19:44 GMT 51.463779 -0.454044 0 151 7 0
2023-01-24 04:19:43 GMT 51.463802 -0.454044 0 149 7 0
2023-01-24 04:19:40 GMT 51.463898 -0.454095 0 140 7 0
2023-01-24 04:19:39 GMT 51.463978 -0.454159 0 132 7 0
2023-01-24 04:19:37 GMT 51.463978 -0.454159 0 132 7 0
2023-01-24 04:19:35 GMT 51.464035 -0.454207 0 126 7 0
2023-01-24 04:19:34 GMT 51.464058 -0.454235 0 123 7 0
2023-01-24 04:19:31 GMT 51.464104 -0.454337 0 120 7 0
2023-01-24 04:19:29 GMT 51.464172 -0.454483 0 115 5 0
2023-01-24 04:19:26 GMT 51.464188 -0.454540 0 115 6 0
2023-01-24 04:19:23 GMT 51.464233 -0.454693 0 112 14 0
2023-01-24 04:19:22 GMT 51.464264 -0.454782 0 112 14 0
2023-01-24 04:19:17 GMT 51.464394 -0.455246 0 112 13 0
2023-01-24 04:19:10 GMT 51.464558 -0.455837 0 109 12 0
2023-01-24 04:19:03 GMT 51.464733 -0.456600 0 104 10 0
2023-01-24 04:18:59 GMT 51.464756 -0.456676 0 104 9 0
2023-01-24 04:18:58 GMT 51.464756 -0.456676 0 104 9 0
2023-01-24 04:18:57 GMT 51.464790 -0.456861 0 101 9 0
2023-01-24 04:18:55 GMT 51.464790 -0.456861 0 101 9 0
2023-01-24 04:18:51 GMT 51.464825 -0.457096 0 95 8 0
2023-01-24 04:18:46 GMT 51.464863 -0.457363 0 90 7 0
2023-01-24 04:18:40 GMT 51.464870 -0.458289 0 90 45 0
2023-01-24 04:18:38 GMT 51.464870 -0.458995 0 90 53 0
2023-01-24 04:18:33 GMT 51.464886 -0.460968 0 90 67 0
2023-01-24 04:18:32 GMT 51.464870 -0.462074 0 90 74 0
2023-01-24 04:18:29 GMT 51.464870 -0.464451 0 90 84 0
2023-01-24 04:18:27 GMT 51.464870 -0.464451 0 90 88 0
2023-01-24 04:18:21 GMT 51.464859 -0.468701 -650 90 106 -64
2023-01-24 04:18:17 GMT 51.464848 -0.472183 -650 89 122 -128
2023-01-24 04:18:14 GMT 51.464859 -0.475010 -650 89 128 -256
2023-01-24 04:18:13 GMT 51.464848 -0.475998 -650 89 130 -256
2023-01-24 04:18:11 GMT 51.464813 -0.478128 -650 89 130 -384
2023-01-24 04:18:09 GMT 51.464813 -0.479538 -650 89 130 -384
2023-01-24 04:18:08 GMT 51.464802 -0.480499 -625 89 129 -512
2023-01-24 04:18:07 GMT 51.464813 -0.482285 -575 89 129 -768
2023-01-24 04:18:05 GMT 51.464802 -0.483246 -550 89 128 -768
2023-01-24 04:18:03 GMT 51.464813 -0.485106 -525 89 127 -768
2023-01-24 04:18:01 GMT 51.464802 -0.487061 -500 90 126 -704
2023-01-24 04:17:59 GMT 51.464767 -0.488966 -475 90 125 -640
2023-01-24 04:17:58 GMT 51.464767 -0.489857 -475 90 125 -640
2023-01-24 04:17:57 GMT 51.464802 -0.490799 -475 90 125 -704
2023-01-24 04:17:55 GMT 51.464813 -0.492603 -450 90 125 -704
2023-01-24 04:17:54 GMT 51.464813 -0.493494 -425 89 124 -640
2023-01-24 04:17:53 GMT 51.464802 -0.494461 -425 89 124 -640
2023-01-24 04:17:51 GMT 51.464802 -0.496368 -400 89 124 -640
2023-01-24 04:17:50 GMT 51.464767 -0.497354 -375 88 124 -640
2023-01-24 04:17:48 GMT 51.464756 -0.499191 -350 89 124 -640
2023-01-24 04:17:47 GMT 51.464756 -0.499954 -350 89 124 -640
2023-01-24 04:17:45 GMT 51.464722 -0.502773 -325 90 124 -640
2023-01-24 04:17:42 GMT 51.464710 -0.504532 -300 90 124 -576
2023-01-24 04:17:41 GMT 51.464722 -0.507301 -275 90 123 -576
2023-01-24 04:17:39 GMT 51.464722 -0.507301 -275 90 123 -576
2023-01-24 04:17:38 GMT 51.464722 -0.510419 -250 90 123 -704
2023-01-24 04:17:36 GMT 51.464722 -0.510419 -225 89 123 -704
2023-01-24 04:17:33 GMT 51.464756 -0.512848 -200 89 123 -704
2023-01-24 04:17:31 GMT 51.464710 -0.514755 -175 89 123 -768
2023-01-24 04:17:30 GMT 51.464722 -0.515689 -150 89 123 -704
2023-01-24 04:17:29 GMT 51.464676 -0.516803 -150 89 123 -704
2023-01-24 04:17:28 GMT 51.464676 -0.517694 -125 89 122 -704
2023-01-24 04:17:26 GMT 51.464676 -0.519624 -100 89 122 -704
2023-01-24 04:17:25 GMT 51.464676 -0.520589 -100 89 122 -704
2023-01-24 04:17:24 GMT 51.464664 -0.521088 -75 89 122 -640
2023-01-24 04:17:22 GMT 51.464676 -0.522890 -75 89 122 -576
2023-01-24 04:17:21 GMT 51.464664 -0.523834 -50 89 122 -512
2023-01-24 04:17:19 GMT 51.464615 -0.525589 -50 88 121 -576
2023-01-24 04:17:17 GMT 51.464615 -0.527039 -25 88 121 -576
2023-01-24 04:17:16 GMT 51.464569 -0.529709 0 88 122 -576
2023-01-24 04:17:15 GMT 51.464569 -0.529709 0 88 122 -640
2023-01-24 04:17:14 GMT 51.464584 -0.530536 0 88 122 -640
2023-01-24 04:17:11 GMT 51.464539 -0.532614 25 89 122 -640
2023-01-24 04:17:10 GMT 51.464539 -0.533579 50 89 122 -640
2023-01-24 04:17:09 GMT 51.464523 -0.536957 75 90 123 -704
2023-01-24 04:17:07 GMT 51.464523 -0.536957 75 90 123 -768
2023-01-24 04:17:06 GMT 51.464539 -0.538701 100 91 123 -832
2023-01-24 04:17:04 GMT 51.464539 -0.539666 125 91 124 -832
2023-01-24 04:17:02 GMT 51.464569 -0.540619 150 90 124 -896
2023-01-24 04:17:01 GMT 51.464584 -0.541448 175 91 124 -832
2023-01-24 04:17:00 GMT 51.464584 -0.543452 175 90 124 -768
2023-01-24 04:16:58 GMT 51.464615 -0.544357 225 90 123 -704
2023-01-24 04:16:57 GMT 51.464630 -0.546199 225 90 123 -640
2023-01-24 04:16:55 GMT 51.464615 -0.547180 225 90 123 -640
2023-01-24 04:16:54 GMT 51.464630 -0.547980 250 90 123 -576
2023-01-24 04:16:53 GMT 51.464615 -0.548782 250 90 123 -576
2023-01-24 04:16:51 GMT 51.464615 -0.550690 275 90 122 -512
2023-01-24 04:16:50 GMT 51.464630 -0.551469 300 90 121 -576
2023-01-24 04:16:49 GMT 51.464615 -0.553360 300 89 121 -640
2023-01-24 04:16:46 GMT 51.464615 -0.556183 325 89 122 -704
2023-01-24 04:16:44 GMT 51.464615 -0.557022 350 89 122 -704
2023-01-24 04:16:43 GMT 51.464569 -0.557938 375 89 122 -704
2023-01-24 04:16:41 GMT 51.464569 -0.559616 375 89 121 -768
2023-01-24 04:16:40 GMT 51.464569 -0.560455 400 89 121 -768
2023-01-24 04:16:39 GMT 51.464539 -0.562233 425 89 120 -768
2023-01-24 04:16:37 GMT 51.464569 -0.563126 425 88 120 -704
2023-01-24 04:16:36 GMT 51.464539 -0.564089 450 88 120 -704
2023-01-24 04:16:35 GMT 51.464539 -0.566019 475 88 121 -768
2023-01-24 04:16:33 GMT 51.464478 -0.567703 500 89 121 -768
2023-01-24 04:16:31 GMT 51.464478 -0.568619 500 89 121 -832
2023-01-24 04:16:30 GMT 51.464478 -0.569458 525 89 121 -832
2023-01-24 04:16:29 GMT 51.464478 -0.572357 575 89 122 -704
2023-01-24 04:16:27 GMT 51.464478 -0.572357 575 89 121 -704
2023-01-24 04:16:26 GMT 51.464478 -0.573273 575 89 121 -704
2023-01-24 04:16:24 GMT 51.464478 -0.575104 625 89 122 -640
2023-01-24 04:16:22 GMT 51.464447 -0.577747 625 89 122 -640
2023-01-24 04:16:20 GMT 51.464432 -0.578766 650 89 122 -640
2023-01-24 04:16:19 GMT 51.464432 -0.579758 650 89 122 -640
2023-01-24 04:16:17 GMT 51.464432 -0.581589 700 89 122 -704
2023-01-24 04:16:15 GMT 51.464401 -0.583463 700 89 122 -704
2023-01-24 04:16:14 GMT 51.464432 -0.583954 725 90 122 -768
2023-01-24 04:16:13 GMT 51.464401 -0.585913 725 90 123 -768
2023-01-24 04:16:10 GMT 51.464401 -0.587843 775 90 122 -704
2023-01-24 04:16:08 GMT 51.464401 -0.589699 800 89 122 -640
2023-01-24 04:16:07 GMT 51.464432 -0.590515 800 89 122 -640
2023-01-24 04:16:05 GMT 51.464432 -0.592041 825 89 122 -640
2023-01-24 04:16:04 GMT 51.464382 -0.593491 850 89 122 -640
2023-01-24 04:16:03 GMT 51.464401 -0.594449 850 89 122 -640
2023-01-24 04:16:02 GMT 51.464401 -0.595414 850 89 122 -576
2023-01-24 04:16:00 GMT 51.464355 -0.596751 875 89 121 -640
2023-01-24 04:15:59 GMT 51.464355 -0.598087 900 89 121 -640
2023-01-24 04:15:56 GMT 51.464336 -0.600281 900 89 121 -704
2023-01-24 04:15:55 GMT 51.464336 -0.601578 950 90 122 -768
2023-01-24 04:15:53 GMT 51.464355 -0.603431 950 90 121 -768
2023-01-24 04:15:52 GMT 51.464336 -0.604401 975 90 122 -768
2023-01-24 04:15:50 GMT 51.464355 -0.605658 1,000 90 123 -768
2023-01-24 04:15:49 GMT 51.464336 -0.606689 1,000 90 123 -640
2023-01-24 04:15:48 GMT 51.464355 -0.607440 1,025 89 123 -640
2023-01-24 04:15:46 GMT 51.464336 -0.609283 1,025 89 122 -704
2023-01-24 04:15:45 GMT 51.464355 -0.610706 1,050 89 123 -768
2023-01-24 04:15:43 GMT 51.464355 -0.612488 1,075 89 123 -704
2023-01-24 04:15:41 GMT 51.464310 -0.613898 1,100 89 123 -704
2023-01-24 04:15:39 GMT 51.464291 -0.615692 1,125 89 123 -768
2023-01-24 04:15:38 GMT 51.464291 -0.616531 1,150 89 123 -768
2023-01-24 04:15:37 GMT 51.464264 -0.618426 1,150 89 122 -704
2023-01-24 04:15:35 GMT 51.464245 -0.619659 1,175 89 122 -704
2023-01-24 04:15:34 GMT 51.464245 -0.622406 1,175 89 122 -640
2023-01-24 04:15:32 GMT 51.464245 -0.622406 1,200 89 122 -640
2023-01-24 04:15:29 GMT 51.464218 -0.625033 1,250 89 122 -704
2023-01-24 04:15:28 GMT 51.464195 -0.626984 1,275 89 121 -768
2023-01-24 04:15:26 GMT 51.464218 -0.627408 1,275 89 121 -768
2023-01-24 04:15:24 GMT 51.464218 -0.629264 1,300 89 120 -704
2023-01-24 04:15:23 GMT 51.464195 -0.630188 1,300 90 120 -640
2023-01-24 04:15:22 GMT 51.464195 -0.631943 1,325 90 120 -576
2023-01-24 04:15:19 GMT 51.464172 -0.633941 1,350 89 121 -576
2023-01-24 04:15:17 GMT 51.464172 -0.635945 1,375 89 120 -640
2023-01-24 04:15:15 GMT 51.464149 -0.636978 1,375 89 120 -640
2023-01-24 04:15:14 GMT 51.464149 -0.638275 1,375 90 121 -768
2023-01-24 04:15:12 GMT 51.464172 -0.640102 1,425 90 121 -704
2023-01-24 04:15:10 GMT 51.464172 -0.641884 1,450 90 122 -768
2023-01-24 04:15:09 GMT 51.464172 -0.642849 1,475 90 123 -704
2023-01-24 04:15:08 GMT 51.464172 -0.643814 1,475 90 123 -640
2023-01-24 04:15:07 GMT 51.464172 -0.645521 1,475 90 122 -768
2023-01-24 04:15:04 GMT 51.464195 -0.647278 1,525 89 122 -832
2023-01-24 04:15:03 GMT 51.464195 -0.649414 1,550 90 123 -704
2023-01-24 04:15:00 GMT 51.464172 -0.650940 1,575 90 123 -640
2023-01-24 04:14:59 GMT 51.464172 -0.652796 1,600 90 123 -704
2023-01-24 04:14:57 GMT 51.464172 -0.653687 1,600 89 123 -704
2023-01-24 04:14:56 GMT 51.464172 -0.655542 1,625 89 122 -768
2023-01-24 04:14:54 GMT 51.464149 -0.656433 1,625 88 123 -704
2023-01-24 04:14:53 GMT 51.464149 -0.657730 1,650 88 123 -768
2023-01-24 04:14:51 GMT 51.464127 -0.659254 1,675 88 124 -576
2023-01-24 04:14:50 GMT 51.464104 -0.661163 1,700 88 124 -576
2023-01-24 04:14:47 GMT 51.464058 -0.663071 1,725 88 125 -704
2023-01-24 04:14:45 GMT 51.464035 -0.664302 1,725 88 124 -704
2023-01-24 04:14:44 GMT 51.464035 -0.665638 1,750 88 124 -768
2023-01-24 04:14:43 GMT 51.464012 -0.666580 1,775 88 124 -768
2023-01-24 04:14:42 GMT 51.464012 -0.667877 1,775 88 124 -704
2023-01-24 04:14:40 GMT 51.463963 -0.669327 1,800 89 123 -704
2023-01-24 04:14:38 GMT 51.463963 -0.671310 1,800 89 123 -704
2023-01-24 04:14:37 GMT 51.463963 -0.672150 1,850 89 123 -640
2023-01-24 04:14:36 GMT 51.463917 -0.674820 1,850 90 122 -640
2023-01-24 04:14:34 GMT 51.463917 -0.674820 1,875 90 121 -704
2023-01-24 04:14:32 GMT 51.463943 -0.676476 1,875 90 121 -704
2023-01-24 04:14:30 GMT 51.463963 -0.678329 1,950 90 121 -704
2023-01-24 04:14:28 GMT 51.463963 -0.680542 1,950 90 122 -640
2023-01-24 04:14:26 GMT 51.463963 -0.682068 1,950 90 122 -640
2023-01-24 04:14:24 GMT 51.463989 -0.683305 1,975 90 122 -704
2023-01-24 04:14:23 GMT 51.463989 -0.684270 1,975 90 122 -704
2023-01-24 04:14:22 GMT 51.463989 -0.685977 2,000 90 122 -704
2023-01-24 04:14:20 GMT 51.464012 -0.687256 2,025 89 122 -704
2023-01-24 04:14:19 GMT 51.463989 -0.689318 2,050 89 123 -704
2023-01-24 04:14:17 GMT 51.463989 -0.690283 2,075 89 122 -768
2023-01-24 04:14:16 GMT 51.463989 -0.691248 2,075 89 123 -768
2023-01-24 04:14:15 GMT 51.463917 -0.693893 2,125 89 124 -704
2023-01-24 04:14:13 GMT 51.463917 -0.693893 2,125 89 124 -704
2023-01-24 04:14:11 GMT 51.463943 -0.695850 2,125 89 124 -704
2023-01-24 04:14:10 GMT 51.463917 -0.696793 2,150 89 124 -768
2023-01-24 04:14:08 GMT 51.463898 -0.697780 2,175 89 125 -768
2023-01-24 04:14:07 GMT 51.463898 -0.699191 2,175 89 125 -768
2023-01-24 04:14:06 GMT 51.463871 -0.700226 2,200 89 126 -768
2023-01-24 04:14:05 GMT 51.463871 -0.701294 2,225 89 126 -768
2023-01-24 04:14:04 GMT 51.463852 -0.702234 2,225 89 126 -768
2023-01-24 04:14:02 GMT 51.463852 -0.704164 2,250 89 126 -704
2023-01-24 04:14:01 GMT 51.463825 -0.705185 2,275 89 126 -704
2023-01-24 04:13:58 GMT 51.463806 -0.708024 2,325 89 127 -640
2023-01-24 04:13:56 GMT 51.463806 -0.709509 2,325 90 127 -640
2023-01-24 04:13:55 GMT 51.463825 -0.710526 2,350 90 127 -640
2023-01-24 04:13:54 GMT 51.463825 -0.711594 2,350 90 127 -640
2023-01-24 04:13:51 GMT 51.463806 -0.714334 2,375 90 127 -640
2023-01-24 04:13:50 GMT 51.463825 -0.716248 2,400 90 127 -640
2023-01-24 04:13:47 GMT 51.463825 -0.718002 2,425 89 127 -704
2023-01-24 04:13:45 GMT 51.463806 -0.719976 2,450 89 127 -704
2023-01-24 04:13:44 GMT 51.463806 -0.720941 2,450 89 127 -704
2023-01-24 04:13:42 GMT 51.463806 -0.722722 2,475 89 127 -704
2023-01-24 04:13:41 GMT 51.463779 -0.723801 2,500 89 127 -768
2023-01-24 04:13:39 GMT 51.463779 -0.725403 2,500 89 127 -704
2023-01-24 04:13:38 GMT 51.463734 -0.726471 2,525 89 127 -704
2023-01-24 04:13:36 GMT 51.463760 -0.727918 2,550 89 127 -704
2023-01-24 04:13:34 GMT 51.463715 -0.730294 2,575 89 127 -704
2023-01-24 04:13:32 GMT 51.463684 -0.732193 2,600 89 127 -704
2023-01-24 04:13:31 GMT 51.463684 -0.733109 2,600 89 126 -768
2023-01-24 04:13:30 GMT 51.463684 -0.735016 2,625 89 126 -768
2023-01-24 04:13:28 GMT 51.463669 -0.735936 2,650 89 126 -768
2023-01-24 04:13:26 GMT 51.463638 -0.737762 2,675 89 126 -768
2023-01-24 04:13:25 GMT 51.463669 -0.738534 2,675 89 126 -768
2023-01-24 04:13:22 GMT 51.463623 -0.741800 2,725 89 126 -832
2023-01-24 04:13:20 GMT 51.463638 -0.743179 2,750 89 126 -832
2023-01-24 04:13:19 GMT 51.463638 -0.744247 2,775 89 126 -832
2023-01-24 04:13:18 GMT 51.463638 -0.745163 2,775 89 126 -832
2023-01-24 04:13:15 GMT 51.463623 -0.747590 2,825 89 126 -832
2023-01-24 04:13:14 GMT 51.463593 -0.749207 2,850 89 127 -832
2023-01-24 04:13:13 GMT 51.463593 -0.752029 2,875 89 127 -768
2023-01-24 04:13:11 GMT 51.463593 -0.752029 2,875 89 127 -704
2023-01-24 04:13:10 GMT 51.463593 -0.752869 2,900 90 127 -704
2023-01-24 04:13:07 GMT 51.463593 -0.755692 2,925 90 129 -576
2023-01-24 04:13:06 GMT 51.463593 -0.757599 2,950 90 131 -576
2023-01-24 04:13:04 GMT 51.463577 -0.758650 2,950 90 131 -576
2023-01-24 04:13:03 GMT 51.463577 -0.760581 2,975 90 132 -704
2023-01-24 04:13:01 GMT 51.463577 -0.761546 3,000 90 132 -704
2023-01-24 04:12:59 GMT 51.463577 -0.763550 3,025 90 133 -704
2023-01-24 04:12:57 GMT 51.463577 -0.764886 3,025 90 133 -704
2023-01-24 04:12:56 GMT 51.463593 -0.766373 3,050 90 134 -704
2023-01-24 04:12:55 GMT 51.463593 -0.767288 3,075 89 135 -704
2023-01-24 04:12:54 GMT 51.463577 -0.768746 3,100 89 135 -640
2023-01-24 04:12:52 GMT 51.463547 -0.770416 3,100 89 136 -640
2023-01-24 04:12:50 GMT 51.463547 -0.771942 3,125 89 136 -640
2023-01-24 04:12:49 GMT 51.463547 -0.773544 3,125 88 137 -640
2023-01-24 04:12:48 GMT 51.463531 -0.774462 3,150 88 138 -640
2023-01-24 04:12:47 GMT 51.463486 -0.775575 3,175 88 138 -640
2023-01-24 04:12:44 GMT 51.463451 -0.778580 3,200 87 139 -640
2023-01-24 04:12:42 GMT 51.463406 -0.780792 3,225 87 140 -640
2023-01-24 04:12:41 GMT 51.463360 -0.781937 3,250 87 141 -640
2023-01-24 04:12:40 GMT 51.463314 -0.784073 3,250 87 142 -576
2023-01-24 04:12:38 GMT 51.463314 -0.784073 3,275 87 142 -512
2023-01-24 04:12:37 GMT 51.463257 -0.786487 3,275 87 143 -384
2023-01-24 04:12:35 GMT 51.463211 -0.787601 3,275 88 144 -320
2023-01-24 04:12:34 GMT 51.463219 -0.788574 3,275 88 145 -320
2023-01-24 04:12:32 GMT 51.463173 -0.790710 3,275 88 145 -320
2023-01-24 04:12:31 GMT 51.463173 -0.791779 3,300 88 146 -448
2023-01-24 04:12:29 GMT 51.463120 -0.794133 3,300 88 146 -448
2023-01-24 04:12:28 GMT 51.463120 -0.795321 3,325 89 146 -320
2023-01-24 04:12:27 GMT 51.463120 -0.796286 3,325 89 147 -192
2023-01-24 04:12:25 GMT 51.463074 -0.798365 3,325 89 147 -128
2023-01-24 04:12:23 GMT 51.463081 -0.800400 3,325 89 147 -128
2023-01-24 04:12:21 GMT 51.463032 -0.802612 3,325 89 147 -128
2023-01-24 04:12:20 GMT 51.463032 -0.803604 3,325 89 149 -192
2023-01-24 04:12:19 GMT 51.463028 -0.804823 3,350 89 149 -256
2023-01-24 04:12:18 GMT 51.463032 -0.806122 3,350 89 150 -320
2023-01-24 04:12:16 GMT 51.462986 -0.808182 3,350 89 151 -384
2023-01-24 04:12:15 GMT 51.462986 -0.809402 3,375 89 153 -448
2023-01-24 04:12:14 GMT 51.462986 -0.810471 3,375 89 153 -448
2023-01-24 04:12:12 GMT 51.462986 -0.812531 3,400 89 155 -512
2023-01-24 04:12:11 GMT 51.462986 -0.813751 3,400 89 156 -512
2023-01-24 04:12:09 GMT 51.462940 -0.816422 3,400 89 157 -512
2023-01-24 04:12:08 GMT 51.462936 -0.817591 3,425 89 159 -512
2023-01-24 04:12:07 GMT 51.462936 -0.818853 3,425 89 160 -512
2023-01-24 04:12:06 GMT 51.462940 -0.820007 3,425 89 161 -512
2023-01-24 04:12:04 GMT 51.462940 -0.822449 3,450 89 164 -512
2023-01-24 04:12:03 GMT 51.462940 -0.824356 3,450 89 165 -512
2023-01-24 04:12:01 GMT 51.462936 -0.825608 3,475 89 167 -448
2023-01-24 04:12:00 GMT 51.462894 -0.826950 3,475 89 168 -448
2023-01-24 04:11:58 GMT 51.462891 -0.829468 3,475 89 171 -448
2023-01-24 04:11:57 GMT 51.462891 -0.830878 3,475 89 172 -512
2023-01-24 04:11:56 GMT 51.462891 -0.835035 3,525 89 174 -576
2023-01-24 04:11:54 GMT 51.462891 -0.835035 3,525 89 175 -576
2023-01-24 04:11:53 GMT 51.462894 -0.836258 3,525 89 175 -512
2023-01-24 04:11:52 GMT 51.462845 -0.837633 3,525 89 176 -512
2023-01-24 04:11:50 GMT 51.462845 -0.840231 3,550 89 177 -448
2023-01-24 04:11:49 GMT 51.462849 -0.841675 3,550 89 178 -320
2023-01-24 04:11:46 GMT 51.462845 -0.845279 3,575 89 182 -128
2023-01-24 04:11:45 GMT 51.462845 -0.846615 3,575 89 183 -192
2023-01-24 04:11:43 GMT 51.462845 -0.849362 3,575 90 184 -384
2023-01-24 04:11:41 GMT 51.462849 -0.851974 3,600 90 185 -384
2023-01-24 04:11:40 GMT 51.462845 -0.853370 3,600 90 186 -448
2023-01-24 04:11:39 GMT 51.462849 -0.854797 3,625 90 187 -512
2023-01-24 04:11:38 GMT 51.462849 -0.858917 3,650 90 188 -576
2023-01-24 04:11:36 GMT 51.462849 -0.858917 3,650 90 188 -576
2023-01-24 04:11:35 GMT 51.462845 -0.860422 3,650 90 189 -576
2023-01-24 04:11:33 GMT 51.462845 -0.863095 3,675 90 189 -576
2023-01-24 04:11:32 GMT 51.462849 -0.864487 3,675 90 190 -576
2023-01-24 04:11:31 GMT 51.462845 -0.865841 3,700 90 190 -512
2023-01-24 04:11:29 GMT 51.462845 -0.868662 3,700 90 191 -512
2023-01-24 04:11:28 GMT 51.462849 -0.870132 3,725 90 192 -512
2023-01-24 04:11:27 GMT 51.462845 -0.874527 3,725 90 193 -512
2023-01-24 04:11:25 GMT 51.462845 -0.874527 3,750 90 193 -512
2023-01-24 04:11:23 GMT 51.462849 -0.877380 3,775 90 194 -512
2023-01-24 04:11:22 GMT 51.462891 -0.880168 3,775 90 195 -512
2023-01-24 04:11:20 GMT 51.462894 -0.881729 3,775 90 196 -512
2023-01-24 04:11:18 GMT 51.462891 -0.884399 3,800 90 197 -512
2023-01-24 04:11:17 GMT 51.462891 -0.885884 3,800 90 197 -512
2023-01-24 04:11:16 GMT 51.462894 -0.887375 3,825 90 198 -512
2023-01-24 04:11:14 GMT 51.462894 -0.890274 3,825 90 199 -512
2023-01-24 04:11:13 GMT 51.462894 -0.891571 3,850 90 199 -512
2023-01-24 04:11:12 GMT 51.462894 -0.894623 3,850 90 200 -512
2023-01-24 04:11:10 GMT 51.462891 -0.896202 3,875 90 201 -512
2023-01-24 04:11:09 GMT 51.462891 -0.897687 3,875 90 201 -512
2023-01-24 04:11:08 GMT 51.462891 -0.900730 3,900 90 202 -512
2023-01-24 04:11:06 GMT 51.462891 -0.902438 3,900 90 203 -512
2023-01-24 04:11:05 GMT 51.462894 -0.903931 3,925 90 203 -512
2023-01-24 04:11:04 GMT 51.462891 -0.906521 3,925 90 205 -512
2023-01-24 04:11:02 GMT 51.462894 -0.908508 3,925 90 205 -512
2023-01-24 04:11:01 GMT 51.462891 -0.909787 3,950 89 206 -512
2023-01-24 04:11:00 GMT 51.462891 -0.911271 3,950 89 206 -512
2023-01-24 04:10:58 GMT 51.462891 -0.914463 3,975 89 207 -512
2023-01-24 04:10:57 GMT 51.462891 -0.916096 3,975 89 208 -512
2023-01-24 04:10:55 GMT 51.462891 -0.919363 4,000 89 209 -512
2023-01-24 04:10:54 GMT 51.462891 -0.920699 4,000 89 210 -512
2023-01-24 04:10:53 GMT 51.462891 -0.923965 4,025 89 211 -512
2023-01-24 04:10:51 GMT 51.462849 -0.925674 4,025 89 211 -512
2023-01-24 04:10:50 GMT 51.462849 -0.927048 4,050 89 212 -512
2023-01-24 04:10:49 GMT 51.462845 -0.930126 4,075 89 214 -512
2023-01-24 04:10:46 GMT 51.462799 -0.933689 4,075 89 214 -512
2023-01-24 04:10:44 GMT 51.462803 -0.936432 4,100 89 216 -640
2023-01-24 04:10:42 GMT 51.462753 -0.939628 4,100 88 216 -640
2023-01-24 04:10:41 GMT 51.462753 -0.942841 4,125 88 217 -640
2023-01-24 04:10:38 GMT 51.462708 -0.946309 4,150 88 218 -512
2023-01-24 04:10:36 GMT 51.462662 -0.949278 4,175 88 218 -448
2023-01-24 04:10:35 GMT 51.462616 -0.951060 4,175 88 219 -448
2023-01-24 04:10:33 GMT 51.462566 -0.954514 4,200 88 220 -448
2023-01-24 04:10:32 GMT 51.462566 -0.956116 4,200 88 220 -512
2023-01-24 04:10:31 GMT 51.462566 -0.957870 4,200 89 221 -512
2023-01-24 04:10:30 GMT 51.462521 -0.960846 4,225 89 222 -512
2023-01-24 04:10:28 GMT 51.462521 -0.962524 4,225 90 222 -512
2023-01-24 04:10:26 GMT 51.462524 -0.964941 4,250 90 223 -512
2023-01-24 04:10:25 GMT 51.462521 -0.966415 4,250 90 224 -512
2023-01-24 04:10:24 GMT 51.462524 -0.969915 4,275 90 224 -512
2023-01-24 04:10:22 GMT 51.462524 -0.971622 4,300 90 225 -448
2023-01-24 04:10:20 GMT 51.462524 -0.975111 4,300 89 226 -448
2023-01-24 04:10:19 GMT 51.462524 -0.976744 4,300 88 227 -320
2023-01-24 04:10:18 GMT 51.462524 -0.978451 4,300 88 228 -320
2023-01-24 04:10:17 GMT 51.462479 -0.980084 4,325 88 228 -192
2023-01-24 04:10:14 GMT 51.462387 -0.985652 4,325 88 230 -128
2023-01-24 04:10:12 GMT 51.462341 -0.988176 4,325 88 232 -128
2023-01-24 04:10:11 GMT 51.462334 -0.989990 4,325 88 233 -64
2023-01-24 04:10:10 GMT 51.462288 -0.991898 4,325 88 234 -64
2023-01-24 04:10:08 GMT 51.462250 -0.995450 4,325 89 236 -64
2023-01-24 04:10:06 GMT 51.462288 -1.002884 4,350 90 238 -192
2023-01-24 04:10:04 GMT 51.462288 -1.002884 4,350 92 239 -320
2023-01-24 04:10:03 GMT 51.462341 -1.004729 4,350 94 239 -384
2023-01-24 04:10:01 GMT 51.462475 -1.007996 4,350 95 241 -512
2023-01-24 04:10:00 GMT 51.462612 -1.009827 4,375 98 241 -640
2023-01-24 04:09:59 GMT 51.462803 -1.011658 4,375 99 242 -640
2023-01-24 04:09:56 GMT 51.463394 -1.016829 4,400 102 243 -704
2023-01-24 04:09:54 GMT 51.463963 -1.020660 4,450 104 244 -640
2023-01-24 04:09:53 GMT 51.464539 -1.024327 4,450 104 246 -640
2023-01-24 04:09:51 GMT 51.464848 -1.026077 4,475 104 247 -640
2023-01-24 04:09:50 GMT 51.465130 -1.027908 4,475 104 247 -640
2023-01-24 04:09:48 GMT 51.465637 -1.031008 4,500 104 248 -640
2023-01-24 04:09:46 GMT 51.466690 -1.037391 4,525 104 250 -640
2023-01-24 04:09:43 GMT 51.467129 -1.040192 4,550 104 251 -640
2023-01-24 04:09:41 GMT 51.467735 -1.043854 4,575 104 252 -640
2023-01-24 04:09:40 GMT 51.468060 -1.045837 4,600 104 252 -640
2023-01-24 04:09:38 GMT 51.468521 -1.048749 4,600 104 254 -640
2023-01-24 04:09:36 GMT 51.469116 -1.052461 4,625 104 255 -576
2023-01-24 04:09:34 GMT 51.469711 -1.056098 4,650 104 256 -640
2023-01-24 04:09:33 GMT 51.470016 -1.058044 4,650 104 256 -640
2023-01-24 04:09:31 GMT 51.470627 -1.061665 4,675 104 257 -640
2023-01-24 04:09:30 GMT 51.470856 -1.063298 4,675 104 259 -640
2023-01-24 04:09:28 GMT 51.471504 -1.067200 4,700 104 259 -640
2023-01-24 04:09:26 GMT 51.472092 -1.070944 4,725 104 259 -640
2023-01-24 04:09:25 GMT 51.472950 -1.076355 4,750 104 259 -576
2023-01-24 04:09:23 GMT 51.472950 -1.076355 4,750 104 259 -576
2023-01-24 04:09:22 GMT 51.473557 -1.080149 4,775 104 259 -576
2023-01-24 04:09:20 GMT 51.473877 -1.081931 4,775 104 259 -576
2023-01-24 04:09:19 GMT 51.474205 -1.083908 4,800 104 259 -576
2023-01-24 04:09:18 GMT 51.474812 -1.087723 4,825 104 259 -576
2023-01-24 04:09:16 GMT 51.475090 -1.089554 4,825 104 260 -576
2023-01-24 04:09:15 GMT 51.475388 -1.091432 4,825 104 260 -576
2023-01-24 04:09:14 GMT 51.475937 -1.094995 4,850 104 259 -576
2023-01-24 04:09:12 GMT 51.476303 -1.097074 4,875 104 259 -576
2023-01-24 04:09:10 GMT 51.476852 -1.100563 4,900 104 259 -640
2023-01-24 04:09:09 GMT 51.477173 -1.102493 4,900 104 259 -640
2023-01-24 04:09:07 GMT 51.477745 -1.106110 4,925 104 259 -640
2023-01-24 04:09:06 GMT 51.478043 -1.107838 4,925 104 259 -576
2023-01-24 04:09:05 GMT 51.478348 -1.109695 4,950 104 259 -576
2023-01-24 04:09:03 GMT 51.478909 -1.113358 4,975 104 259 -576
2023-01-24 04:09:02 GMT 51.479233 -1.115417 4,975 104 260 -576
2023-01-24 04:09:00 GMT 51.479874 -1.119269 5,000 104 259 -576
2023-01-24 04:08:59 GMT 51.480164 -1.121216 5,000 104 259 -576
2023-01-24 04:08:58 GMT 51.480469 -1.123129 5,000 104 259 -576
2023-01-24 04:08:56 GMT 51.481064 -1.126841 5,025 104 259 -576
2023-01-24 04:08:55 GMT 51.481327 -1.128464 5,025 104 259 -576
2023-01-24 04:08:54 GMT 51.481609 -1.130219 5,050 104 259 -576
2023-01-24 04:08:53 GMT 51.482258 -1.134186 5,075 104 259 -576
2023-01-24 04:08:50 GMT 51.482758 -1.137233 5,075 104 259 -576
2023-01-24 04:08:49 GMT 51.483444 -1.141762 5,100 104 258 -576
2023-01-24 04:08:47 GMT 51.483795 -1.143799 5,125 104 258 -576
2023-01-24 04:08:45 GMT 51.484352 -1.147461 5,125 104 258 -576
2023-01-24 04:08:44 GMT 51.484680 -1.149368 5,150 104 258 -576
2023-01-24 04:08:42 GMT 51.485237 -1.153107 5,150 104 258 -576
2023-01-24 04:08:41 GMT 51.485519 -1.154861 5,175 104 258 -640
2023-01-24 04:08:40 GMT 51.485825 -1.156608 5,175 104 258 -704
2023-01-24 04:08:39 GMT 51.486099 -1.158464 5,200 104 258 -704
2023-01-24 04:08:37 GMT 51.486603 -1.161878 5,225 104 258 -768
2023-01-24 04:08:36 GMT 51.486961 -1.163864 5,225 104 259 -832
2023-01-24 04:08:33 GMT 51.487846 -1.169739 5,300 104 259 -832
2023-01-24 04:08:32 GMT 51.488125 -1.171646 5,300 104 259 -832
2023-01-24 04:08:30 GMT 51.488754 -1.175389 5,325 104 259 -768
2023-01-24 04:08:29 GMT 51.489056 -1.177292 5,325 104 259 -704
2023-01-24 04:08:28 GMT 51.489304 -1.178952 5,350 104 259 -640
2023-01-24 04:08:27 GMT 51.490219 -1.184921 5,375 104 259 -576
2023-01-24 04:08:25 GMT 51.490219 -1.184921 5,375 104 259 -640
2023-01-24 04:08:24 GMT 51.490406 -1.186066 5,375 104 259 -768
2023-01-24 04:08:23 GMT 51.491013 -1.189804 5,400 104 259 -960
2023-01-24 04:08:21 GMT 51.491272 -1.191645 5,425 104 259 -960
2023-01-24 04:08:19 GMT 51.491802 -1.195145 5,450 104 259 -1024
2023-01-24 04:08:18 GMT 51.492233 -1.197955 5,475 103 260 -960
2023-01-24 04:08:16 GMT 51.492783 -1.201518 5,525 103 260 -960
2023-01-24 04:08:14 GMT 51.493423 -1.205453 5,525 103 260 -960
2023-01-24 04:08:13 GMT 51.493561 -1.206566 5,550 103 260 -1024
2023-01-24 04:08:12 GMT 51.494457 -1.212234 5,575 103 261 -1024
2023-01-24 04:08:10 GMT 51.494457 -1.212234 5,600 103 261 -1024
2023-01-24 04:08:09 GMT 51.494736 -1.214066 5,625 103 261 -1024
2023-01-24 04:08:07 GMT 51.495300 -1.217627 5,650 104 262 -960
2023-01-24 04:08:06 GMT 51.495575 -1.219408 5,675 104 262 -960
2023-01-24 04:08:05 GMT 51.495991 -1.222229 5,700 104 262 -960
2023-01-24 04:08:03 GMT 51.496597 -1.225967 5,725 104 263 -1024
2023-01-24 04:08:02 GMT 51.496738 -1.226959 5,775 104 264 -1024
2023-01-24 04:08:00 GMT 51.497360 -1.230914 5,775 104 264 -1024
2023-01-24 04:07:59 GMT 51.497818 -1.233735 5,800 104 264 -1024
2023-01-24 04:07:57 GMT 51.498974 -1.240997 5,850 104 264 -1024
2023-01-24 04:07:55 GMT 51.498974 -1.240997 5,875 104 265 -1024
2023-01-24 04:07:54 GMT 51.499252 -1.242676 5,875 104 265 -960
2023-01-24 04:07:53 GMT 51.499557 -1.244573 5,875 104 265 -960
2023-01-24 04:07:51 GMT 51.500153 -1.248359 5,925 104 265 -960
2023-01-24 04:07:49 GMT 51.501022 -1.254075 5,975 104 265 -960
2023-01-24 04:07:47 GMT 51.501343 -1.256005 5,975 104 265 -960
2023-01-24 04:07:45 GMT 51.501984 -1.260162 6,025 104 265 -960
2023-01-24 04:07:44 GMT 51.502304 -1.262017 6,050 104 265 -960
2023-01-24 04:07:43 GMT 51.502625 -1.264022 6,050 104 265 -960
2023-01-24 04:07:41 GMT 51.503220 -1.268030 6,100 104 265 -960
2023-01-24 04:07:40 GMT 51.503395 -1.269150 6,100 104 265 -960
2023-01-24 04:07:38 GMT 51.504047 -1.273193 6,125 104 266 -960
2023-01-24 04:07:37 GMT 51.504364 -1.275231 6,150 104 266 -960
2023-01-24 04:07:36 GMT 51.504650 -1.277084 6,175 104 266 -960
2023-01-24 04:07:34 GMT 51.505257 -1.280899 6,200 104 266 -960
2023-01-24 04:07:33 GMT 51.505554 -1.282877 6,225 104 266 -1024
2023-01-24 04:07:32 GMT 51.505909 -1.285019 6,225 104 267 -1024
2023-01-24 04:07:30 GMT 51.507019 -1.292230 6,275 104 267 -1024
2023-01-24 04:07:28 GMT 51.507019 -1.292230 6,300 104 267 -1024
2023-01-24 04:07:26 GMT 51.507614 -1.296016 6,325 104 268 -1024
2023-01-24 04:07:25 GMT 51.507935 -1.297946 6,350 104 268 -1024
2023-01-24 04:07:24 GMT 51.508190 -1.299744 6,375 104 268 -1024
2023-01-24 04:07:23 GMT 51.508934 -1.304398 6,400 104 268 -1024
2023-01-24 04:07:21 GMT 51.509212 -1.306305 6,425 104 268 -960
2023-01-24 04:07:19 GMT 51.509674 -1.309377 6,450 104 268 -1024
2023-01-24 04:07:18 GMT 51.510006 -1.311493 6,475 104 268 -1024
2023-01-24 04:07:17 GMT 51.510284 -1.313324 6,475 104 268 -1024
2023-01-24 04:07:15 GMT 51.510910 -1.317097 6,525 104 268 -1024
2023-01-24 04:07:14 GMT 51.511307 -1.319733 6,550 104 268 -1024
2023-01-24 04:07:12 GMT 51.512100 -1.324818 6,575 104 268 -1024
2023-01-24 04:07:10 GMT 51.512375 -1.326822 6,600 104 268 -960
2023-01-24 04:07:08 GMT 51.513309 -1.332626 6,650 104 268 -960
2023-01-24 04:07:07 GMT 51.513309 -1.332626 6,650 104 267 -960
2023-01-24 04:07:05 GMT 51.513885 -1.336324 6,675 104 267 -960
2023-01-24 04:07:03 GMT 51.514526 -1.340406 6,725 104 267 -960
2023-01-24 04:07:01 GMT 51.515358 -1.345901 6,750 104 267 -1024
2023-01-24 04:07:00 GMT 51.515358 -1.345901 6,750 104 267 -1024
2023-01-24 04:06:59 GMT 51.515671 -1.347829 6,775 104 267 -1024
2023-01-24 04:06:57 GMT 51.516403 -1.352432 6,825 104 267 -1024
2023-01-24 04:06:56 GMT 51.516678 -1.354213 6,825 104 267 -1024
2023-01-24 04:06:53 GMT 51.517502 -1.359329 6,875 104 267 -960
2023-01-24 04:06:52 GMT 51.517780 -1.361313 6,900 104 267 -960
2023-01-24 04:06:51 GMT 51.518383 -1.365128 6,925 104 267 -960
2023-01-24 04:06:49 GMT 51.518757 -1.367340 6,950 104 267 -960
2023-01-24 04:06:47 GMT 51.519314 -1.370926 6,975 104 267 -960
2023-01-24 04:06:46 GMT 51.519966 -1.375122 7,000 104 268 -1024
2023-01-24 04:06:43 GMT 51.520523 -1.378561 7,050 104 268 -1024
2023-01-24 04:06:41 GMT 51.521164 -1.382644 7,075 104 268 -960
2023-01-24 04:06:39 GMT 51.521782 -1.386566 7,125 104 269 -960
2023-01-24 04:06:36 GMT 51.522713 -1.392441 7,150 104 269 -960
2023-01-24 04:06:35 GMT 51.523041 -1.394501 7,175 104 269 -960
2023-01-24 04:06:33 GMT 51.523636 -1.398307 7,200 104 269 -960
2023-01-24 04:06:32 GMT 51.523876 -1.399994 7,225 104 269 -960
2023-01-24 04:06:29 GMT 51.524918 -1.406473 7,275 104 270 -960
2023-01-24 04:06:27 GMT 51.525421 -1.409739 7,300 104 270 -1024
2023-01-24 04:06:26 GMT 51.525742 -1.411520 7,325 104 270 -1024
2023-01-24 04:06:25 GMT 51.526382 -1.415677 7,375 104 270 -1024
2023-01-24 04:06:23 GMT 51.526669 -1.417542 7,375 104 270 -1024
2023-01-24 04:06:21 GMT 51.527390 -1.421764 7,400 104 271 -1024
2023-01-24 04:06:20 GMT 51.527649 -1.423569 7,425 104 271 -1024
2023-01-24 04:06:18 GMT 51.528122 -1.426441 7,450 104 271 -960
2023-01-24 04:06:17 GMT 51.528625 -1.429596 7,475 104 272 -960
2023-01-24 04:06:15 GMT 51.529278 -1.433640 7,500 104 272 -960
2023-01-24 04:06:13 GMT 51.529770 -1.436685 7,550 104 272 -960
2023-01-24 04:06:12 GMT 51.530209 -1.439285 7,575 104 272 -960
2023-01-24 04:06:11 GMT 51.530533 -1.441193 7,575 104 273 -960
2023-01-24 04:06:08 GMT 51.531418 -1.447003 7,625 104 273 -1024
2023-01-24 04:06:07 GMT 51.532059 -1.450938 7,650 103 273 -1024
2023-01-24 04:06:05 GMT 51.532425 -1.453239 7,675 103 273 -1024
2023-01-24 04:06:04 GMT 51.533001 -1.457367 7,700 102 273 -960
2023-01-24 04:06:02 GMT 51.533295 -1.459252 7,725 102 273 -960
2023-01-24 04:06:01 GMT 51.533524 -1.461107 7,750 102 274 -960
2023-01-24 04:05:59 GMT 51.534164 -1.465683 7,775 101 273 -960
2023-01-24 04:05:57 GMT 51.534538 -1.468658 7,800 100 273 -1024
2023-01-24 04:05:56 GMT 51.534958 -1.472549 7,850 100 274 -960
2023-01-24 04:05:54 GMT 51.535217 -1.474766 7,850 99 273 -960
2023-01-24 04:05:53 GMT 51.535843 -1.480865 7,900 99 273 -1024
2023-01-24 04:05:51 GMT 51.535843 -1.480865 7,900 99 273 -1024
2023-01-24 04:05:50 GMT 51.536076 -1.483002 7,925 99 273 -1024
2023-01-24 04:05:48 GMT 51.536446 -1.486740 7,950 99 273 -1024
2023-01-24 04:05:47 GMT 51.536819 -1.490577 7,975 99 273 -1024
2023-01-24 04:05:45 GMT 51.536957 -1.492157 8,000 99 273 -1024
2023-01-24 04:05:43 GMT 51.537376 -1.496277 8,025 99 273 -1024
2023-01-24 04:05:42 GMT 51.537609 -1.498413 8,050 99 273 -1024
2023-01-24 04:05:41 GMT 51.537827 -1.500450 8,075 99 273 -1024
2023-01-24 04:05:40 GMT 51.538029 -1.502533 8,075 99 273 -1024
2023-01-24 04:05:38 GMT 51.538403 -1.506424 8,125 99 272 -1024
2023-01-24 04:05:37 GMT 51.538635 -1.508560 8,150 99 272 -1024
2023-01-24 04:05:35 GMT 51.539055 -1.512756 8,175 99 272 -1024
2023-01-24 04:05:34 GMT 51.539246 -1.514703 8,200 99 272 -1024
2023-01-24 04:05:32 GMT 51.539658 -1.519083 8,225 99 271 -960
2023-01-24 04:05:31 GMT 51.539799 -1.520233 8,225 99 271 -960
2023-01-24 04:05:30 GMT 51.539978 -1.522275 8,250 99 271 -1024
2023-01-24 04:05:29 GMT 51.540588 -1.528473 8,300 99 271 -1024
2023-01-24 04:05:27 GMT 51.540588 -1.528473 8,300 99 271 -960
2023-01-24 04:05:26 GMT 51.540802 -1.530514 8,325 99 270 -960
2023-01-24 04:05:25 GMT 51.541008 -1.532364 8,350 99 270 -960
2023-01-24 04:05:23 GMT 51.541443 -1.536676 8,375 99 270 -960
2023-01-24 04:05:22 GMT 51.541660 -1.538773 8,400 99 270 -960
2023-01-24 04:05:20 GMT 51.541985 -1.542130 8,425 99 270 -960
2023-01-24 04:05:18 GMT 51.542267 -1.544952 8,450 99 270 -960
2023-01-24 04:05:17 GMT 51.542450 -1.546994 8,450 99 270 -960
2023-01-24 04:05:16 GMT 51.542778 -1.549911 8,475 99 270 -1088
2023-01-24 04:05:15 GMT 51.542965 -1.551971 8,500 99 271 -1152
2023-01-24 04:05:13 GMT 51.543430 -1.556549 8,550 99 271 -1280
2023-01-24 04:05:11 GMT 51.543823 -1.560727 8,600 99 271 -1344
2023-01-24 04:05:09 GMT 51.544266 -1.564789 8,650 99 271 -1344
2023-01-24 04:05:07 GMT 51.545013 -1.572495 8,700 99 272 -1344
2023-01-24 04:05:05 GMT 51.545246 -1.574554 8,750 99 272 -1344
2023-01-24 04:05:03 GMT 51.545425 -1.576612 8,775 99 272 -1408
2023-01-24 04:05:02 GMT 51.545654 -1.578691 8,800 99 272 -1408
2023-01-24 04:05:01 GMT 51.545837 -1.580695 8,825 99 272 -1408
2023-01-24 04:04:59 GMT 51.546223 -1.584702 8,875 99 272 -1344
2023-01-24 04:04:58 GMT 51.546432 -1.586782 8,875 99 272 -1344
2023-01-24 04:04:57 GMT 51.546616 -1.588564 8,900 99 273 -1344
2023-01-24 04:04:56 GMT 51.547073 -1.592795 8,950 99 273 -1280
2023-01-24 04:04:54 GMT 51.547165 -1.593760 8,950 99 273 -1216
2023-01-24 04:04:53 GMT 51.547619 -1.598511 9,000 99 274 -1216
2023-01-24 04:04:51 GMT 51.547806 -1.600589 9,025 99 274 -1216
2023-01-24 04:04:50 GMT 51.547993 -1.602478 9,050 99 274 -1216
2023-01-24 04:04:48 GMT 51.548401 -1.606379 9,075 99 274 -1216
2023-01-24 04:04:47 GMT 51.548584 -1.608384 9,100 98 275 -1216
2023-01-24 04:04:45 GMT 51.548904 -1.611576 9,125 98 275 -1216
2023-01-24 04:04:44 GMT 51.549088 -1.613654 9,175 98 275 -1216
2023-01-24 04:04:43 GMT 51.549294 -1.615753 9,200 98 275 -1216
2023-01-24 04:04:42 GMT 51.549713 -1.619949 9,200 98 276 -1152
2023-01-24 04:04:40 GMT 51.549957 -1.622265 9,250 98 276 -1024
2023-01-24 04:04:39 GMT 51.550278 -1.625680 9,250 98 277 -960
2023-01-24 04:04:37 GMT 51.550507 -1.628426 9,275 98 278 -832
2023-01-24 04:04:36 GMT 51.550690 -1.630173 9,300 98 278 -768
2023-01-24 04:04:34 GMT 51.551102 -1.634142 9,325 98 280 -704
2023-01-24 04:04:33 GMT 51.551296 -1.636353 9,325 98 280 -704
2023-01-24 04:04:32 GMT 51.551670 -1.640396 9,350 98 281 -832
2023-01-24 04:04:30 GMT 51.551880 -1.642605 9,375 98 281 -896
2023-01-24 04:04:29 GMT 51.552109 -1.644609 9,375 98 282 -896
2023-01-24 04:04:27 GMT 51.552521 -1.648840 9,425 98 284 -960
2023-01-24 04:04:26 GMT 51.552750 -1.651067 9,450 98 284 -1024
2023-01-24 04:04:24 GMT 51.553116 -1.655001 9,450 99 284 -1024
2023-01-24 04:04:23 GMT 51.553299 -1.656952 9,500 99 286 -1216
2023-01-24 04:04:22 GMT 51.553532 -1.659012 9,500 99 286 -1344
2023-01-24 04:04:21 GMT 51.553902 -1.662827 9,550 99 288 -1600
2023-01-24 04:04:19 GMT 51.554123 -1.665171 9,575 99 288 -1664
2023-01-24 04:04:18 GMT 51.554554 -1.669540 9,650 99 291 -1600
2023-01-24 04:04:16 GMT 51.554810 -1.671852 9,675 99 292 -1536
2023-01-24 04:04:15 GMT 51.555038 -1.674079 9,700 99 294 -1408
2023-01-24 04:04:13 GMT 51.555450 -1.678384 9,750 99 296 -1216
2023-01-24 04:04:12 GMT 51.555672 -1.680603 9,775 99 299 -1152
2023-01-24 04:04:11 GMT 51.556137 -1.684917 9,775 99 300 -1088
2023-01-24 04:04:09 GMT 51.556370 -1.687393 9,825 99 301 -1344
2023-01-24 04:04:08 GMT 51.556870 -1.691895 9,875 99 302 -1664
2023-01-24 04:04:06 GMT 51.557114 -1.694183 9,900 99 302 -1792
2023-01-24 04:04:04 GMT 51.557583 -1.698456 9,975 99 302 -2304
2023-01-24 04:04:03 GMT 51.557999 -1.702652 10,000 99 301 -2496
2023-01-24 04:04:01 GMT 51.558243 -1.704959 10,125 99 300 -2688
2023-01-24 04:03:59 GMT 51.558975 -1.711492 10,250 100 299 -3008
2023-01-24 04:03:57 GMT 51.559250 -1.713719 10,325 100 298 -3072
2023-01-24 04:03:56 GMT 51.559753 -1.718321 10,400 100 298 -3072
2023-01-24 04:03:54 GMT 51.559910 -1.719589 10,475 100 298 -3008
2023-01-24 04:03:52 GMT 51.560944 -1.728714 10,625 100 298 -2944
2023-01-24 04:03:50 GMT 51.560944 -1.728714 10,650 100 298 -2944
2023-01-24 04:03:48 GMT 51.561443 -1.733170 10,775 100 298 -3008
2023-01-24 04:03:47 GMT 51.561676 -1.735172 10,800 100 298 -3008
2023-01-24 04:03:46 GMT 51.561909 -1.737518 10,850 100 298 -3008
2023-01-24 04:03:45 GMT 51.562592 -1.743263 10,975 100 298 -3008
2023-01-24 04:03:42 GMT 51.563187 -1.748682 11,100 100 299 -3008
2023-01-24 04:03:40 GMT 51.563416 -1.750686 11,150 100 299 -3008
2023-01-24 04:03:39 GMT 51.563679 -1.752701 11,200 100 300 -2944
2023-01-24 04:03:37 GMT 51.564144 -1.756821 11,275 100 299 -2944
2023-01-24 04:03:36 GMT 51.564514 -1.759891 11,350 100 300 -2944
2023-01-24 04:03:34 GMT 51.564926 -1.763306 11,425 100 299 -2944
2023-01-24 04:03:33 GMT 51.565449 -1.767731 11,500 100 300 -2880
2023-01-24 04:03:32 GMT 51.565449 -1.767731 11,525 101 300 -2880
2023-01-24 04:03:31 GMT 51.566254 -1.774440 11,650 101 300 -2752
2023-01-24 04:03:29 GMT 51.566254 -1.774440 11,675 101 300 -2688
2023-01-24 04:03:28 GMT 51.566574 -1.776816 11,725 101 300 -2560
2023-01-24 04:03:26 GMT 51.567123 -1.781344 11,800 101 302 -2496
2023-01-24 04:03:24 GMT 51.567543 -1.784668 11,875 101 302 -2432
2023-01-24 04:03:23 GMT 51.567867 -1.787186 11,925 101 303 -2368
2023-01-24 04:03:22 GMT 51.568130 -1.789361 12,025 101 304 -2368
2023-01-24 04:03:20 GMT 51.568752 -1.794205 12,050 101 304 -2368
2023-01-24 04:03:18 GMT 51.569359 -1.798706 12,100 101 305 -2368
2023-01-24 04:03:17 GMT 51.569641 -1.800793 12,150 101 306 -2368
2023-01-24 04:03:16 GMT 51.569916 -1.803131 12,200 101 306 -2304
2023-01-24 04:03:15 GMT 51.570236 -1.805544 12,250 101 307 -2240
2023-01-24 04:03:14 GMT 51.571033 -1.811676 12,325 101 308 -1984
2023-01-24 04:03:11 GMT 51.572060 -1.819458 12,425 102 311 -1600
2023-01-24 04:03:09 GMT 51.572060 -1.819458 12,425 102 311 -1600
2023-01-24 04:03:08 GMT 51.572388 -1.821875 12,450 101 312 -1536
2023-01-24 04:03:07 GMT 51.572983 -1.826254 12,500 101 313 -1600
2023-01-24 04:03:04 GMT 51.573532 -1.830560 12,550 101 314 -1600
2023-01-24 04:03:01 GMT 51.574493 -1.837760 12,650 101 314 -1728
2023-01-24 04:02:59 GMT 51.575089 -1.842437 12,700 101 314 -1856
2023-01-24 04:02:58 GMT 51.575363 -1.844330 12,725 101 314 -1856
2023-01-24 04:02:57 GMT 51.575958 -1.849044 12,800 101 314 -1920
2023-01-24 04:02:55 GMT 51.576233 -1.851196 12,825 101 314 -1920
2023-01-24 04:02:54 GMT 51.576572 -1.853714 12,850 101 314 -1920
2023-01-24 04:02:52 GMT 51.577179 -1.858368 12,925 101 314 -1920
2023-01-24 04:02:51 GMT 51.577457 -1.860580 12,950 101 314 -1920
2023-01-24 04:02:50 GMT 51.578156 -1.866226 13,025 101 314 -1920
2023-01-24 04:02:47 GMT 51.578613 -1.869829 13,075 101 314 -1856
2023-01-24 04:02:45 GMT 51.579182 -1.874161 13,150 101 315 -1728
2023-01-24 04:02:43 GMT 51.579712 -1.878588 13,175 101 315 -1600
2023-01-24 04:02:41 GMT 51.580299 -1.883163 13,225 101 316 -1472
2023-01-24 04:02:40 GMT 51.580856 -1.887570 13,275 101 316 -1408
2023-01-24 04:02:38 GMT 51.581131 -1.889945 13,300 101 316 -1408
2023-01-24 04:02:37 GMT 51.581772 -1.894845 13,350 101 317 -1344
2023-01-24 04:02:34 GMT 51.582207 -1.898499 13,400 101 318 -1344
2023-01-24 04:02:31 GMT 51.583233 -1.906662 13,450 101 319 -1408
2023-01-24 04:02:30 GMT 51.583740 -1.910879 13,500 101 319 -1408
2023-01-24 04:02:28 GMT 51.583977 -1.912766 13,525 101 320 -1408
2023-01-24 04:02:25 GMT 51.584812 -1.919632 13,600 101 321 -1408
2023-01-24 04:02:24 GMT 51.585068 -1.921791 13,600 101 321 -1408
2023-01-24 04:02:22 GMT 51.585651 -1.926651 13,650 101 321 -1408
2023-01-24 04:02:21 GMT 51.586212 -1.931229 13,700 100 320 -1600
2023-01-24 04:02:18 GMT 51.586807 -1.936192 13,775 100 319 -1792
2023-01-24 04:02:17 GMT 51.587093 -1.938705 13,800 100 319 -1792
2023-01-24 04:02:16 GMT 51.587631 -1.942799 13,850 101 318 -1728
2023-01-24 04:02:14 GMT 51.587906 -1.945322 13,900 101 318 -1600
2023-01-24 04:02:12 GMT 51.588539 -1.950607 13,950 101 318 -1216
2023-01-24 04:02:10 GMT 51.589005 -1.954498 13,975 101 318 -576
2023-01-24 04:02:09 GMT 51.589600 -1.959204 13,975 101 318 -384
2023-01-24 04:02:07 GMT 51.589874 -1.961579 14,000 101 318 -192
2023-01-24 04:02:06 GMT 51.590168 -1.963806 14,000 101 318 -192
2023-01-24 04:02:05 GMT 51.590744 -1.968854 14,000 101 318 0
2023-01-24 04:02:02 GMT 51.591293 -1.973085 14,000 101 318 0
2023-01-24 04:02:01 GMT 51.591568 -1.975683 14,000 101 318 0
2023-01-24 04:02:00 GMT 51.591888 -1.978149 14,000 100 319 0
2023-01-24 04:01:59 GMT 51.592171 -1.980667 14,000 100 319 0
2023-01-24 04:01:58 GMT 51.592449 -1.982956 14,000 100 319 0
2023-01-24 04:01:56 GMT 51.593033 -1.987709 14,000 100 319 0
2023-01-24 04:01:55 GMT 51.593288 -1.989746 14,000 100 320 0
2023-01-24 04:01:54 GMT 51.593857 -1.994390 14,000 100 320 0
2023-01-24 04:01:52 GMT 51.594124 -1.996613 14,000 100 320 0
2023-01-24 04:01:50 GMT 51.594685 -2.001190 14,000 100 321 0
2023-01-24 04:01:49 GMT 51.594963 -2.003632 14,000 100 322 0
2023-01-24 04:01:48 GMT 51.595596 -2.008642 14,000 101 323 0
2023-01-24 04:01:46 GMT 51.595871 -2.011240 14,000 100 324 0
2023-01-24 04:01:44 GMT 51.596420 -2.015769 14,000 100 326 0
2023-01-24 04:01:42 GMT 51.597244 -2.022552 14,000 100 329 0
2023-01-24 04:01:39 GMT 51.598080 -2.029572 14,000 100 332 -64
2023-01-24 04:01:37 GMT 51.598389 -2.032174 14,000 100 334 -128
2023-01-24 04:01:36 GMT 51.598732 -2.034988 14,000 100 335 -128
2023-01-24 04:01:35 GMT 51.599243 -2.039642 14,000 100 339 -192
2023-01-24 04:01:33 GMT 51.599571 -2.042313 14,000 100 340 -256
2023-01-24 04:01:32 GMT 51.599850 -2.044601 14,025 100 342 -320
2023-01-24 04:01:30 GMT 51.600361 -2.049179 14,025 100 344 -512
2023-01-24 04:01:29 GMT 51.600677 -2.051771 14,050 100 345 -512
2023-01-24 04:01:28 GMT 51.601109 -2.055283 14,050 100 346 -640
2023-01-24 04:01:27 GMT 51.601665 -2.060318 14,075 100 348 -832
2023-01-24 04:01:25 GMT 51.601852 -2.061691 14,100 100 350 -896
2023-01-24 04:01:24 GMT 51.602142 -2.064316 14,100 100 351 -960
2023-01-24 04:01:23 GMT 51.602875 -2.070618 14,150 100 351 -1152
2023-01-24 04:01:21 GMT 51.603016 -2.071915 14,175 100 352 -1216
2023-01-24 04:01:19 GMT 51.603653 -2.077307 14,225 100 352 -1408
2023-01-24 04:01:18 GMT 51.604294 -2.082651 14,275 100 352 -1536
2023-01-24 04:01:16 GMT 51.604614 -2.085250 14,300 100 352 -1600
2023-01-24 04:01:14 GMT 51.605251 -2.090836 14,350 100 352 -1856
2023-01-24 04:01:13 GMT 51.605576 -2.093658 14,400 100 352 -1920
2023-01-24 04:01:11 GMT 51.606182 -2.098923 14,450 100 353 -2112
2023-01-24 04:01:10 GMT 51.606369 -2.100372 14,475 100 353 -2176
2023-01-24 04:01:07 GMT 51.607315 -2.108262 14,600 101 354 -2432
2023-01-24 04:01:06 GMT 51.607998 -2.113800 14,625 101 355 -2560
2023-01-24 04:01:04 GMT 51.608322 -2.116724 14,725 101 356 -2688
2023-01-24 04:01:03 GMT 51.608643 -2.119322 14,775 101 356 -2752
2023-01-24 04:01:01 GMT 51.609283 -2.124518 14,925 101 357 -2944
2023-01-24 04:00:59 GMT 51.610245 -2.132164 15,025 101 360 -3328
2023-01-24 04:00:57 GMT 51.610558 -2.134857 15,075 101 360 -3520
2023-01-24 04:00:56 GMT 51.610882 -2.137222 15,125 101 361 -3520
2023-01-24 04:00:54 GMT 51.611572 -2.142631 15,250 101 361 -3712
2023-01-24 04:00:52 GMT 51.612045 -2.146759 15,350 101 362 -3712
2023-01-24 04:00:51 GMT 51.612854 -2.153246 15,500 101 362 -3840
2023-01-24 04:00:48 GMT 51.613491 -2.158356 15,625 101 362 -3904
2023-01-24 04:00:47 GMT 51.614182 -2.163787 15,775 101 363 -3904
2023-01-24 04:00:44 GMT 51.615166 -2.171936 16,025 101 364 -3840
2023-01-24 04:00:41 GMT 51.616238 -2.180939 16,175 101 365 -3904
2023-01-24 04:00:38 GMT 51.616791 -2.185314 16,300 101 365 -3904
2023-01-24 04:00:37 GMT 51.617752 -2.192960 16,425 101 367 -3840
2023-01-24 04:00:35 GMT 51.618099 -2.195663 16,525 101 368 -3776
2023-01-24 04:00:33 GMT 51.618393 -2.198231 16,600 101 368 -3712
2023-01-24 04:00:32 GMT 51.619404 -2.206116 16,750 101 368 -3712
2023-01-24 04:00:30 GMT 51.619404 -2.206116 16,775 101 369 -3712
2023-01-24 04:00:27 GMT 51.620522 -2.214584 16,975 102 370 -3840
2023-01-24 04:00:25 GMT 51.621220 -2.219925 17,125 102 371 -4032
2023-01-24 04:00:23 GMT 51.621872 -2.224657 17,200 102 371 -4160
2023-01-24 04:00:22 GMT 51.622334 -2.228012 17,325 102 371 -4480
2023-01-24 04:00:21 GMT 51.622662 -2.230453 17,400 102 371 -4608
2023-01-24 04:00:19 GMT 51.623428 -2.236163 17,575 102 370 -4864
2023-01-24 04:00:18 GMT 51.623795 -2.238761 17,650 102 369 -5120
2023-01-24 04:00:16 GMT 51.624527 -2.244403 17,750 102 369 -5120
2023-01-24 04:00:15 GMT 51.624893 -2.247149 17,925 102 367 -5504
2023-01-24 04:00:13 GMT 51.625488 -2.251306 18,275 102 367 -5632
2023-01-24 04:00:11 GMT 51.626175 -2.256651 18,275 102 366 -5696
2023-01-24 04:00:09 GMT 51.626953 -2.262219 18,450 102 364 -5696
2023-01-24 04:00:07 GMT 51.627777 -2.268306 18,675 102 362 -5568
2023-01-24 04:00:06 GMT 51.628143 -2.271126 18,775 102 361 -5440
2023-01-24 04:00:04 GMT 51.628807 -2.275772 18,950 102 360 -5440
2023-01-24 04:00:02 GMT 51.629971 -2.283859 19,225 103 359 -5504
2023-01-24 04:00:00 GMT 51.630341 -2.286715 19,325 103 358 -5504
2023-01-24 03:59:58 GMT 51.631508 -2.294464 19,700 103 355 -5376
2023-01-24 03:59:55 GMT 51.631924 -2.297440 19,700 103 355 -5376
2023-01-24 03:59:54 GMT 51.632622 -2.302170 19,850 103 354 -4736
2023-01-24 03:59:52 GMT 51.633270 -2.306461 20,125 103 354 -4736
2023-01-24 03:59:50 GMT 51.634068 -2.311707 20,125 103 354 -4416
2023-01-24 03:59:49 GMT 51.634460 -2.314329 20,225 103 353 -4032
2023-01-24 03:59:47 GMT 51.635044 -2.318192 20,325 103 353 -3840
2023-01-24 03:59:46 GMT 51.636154 -2.325538 20,425 103 352 -3520
2023-01-24 03:59:45 GMT 51.636154 -2.325538 20,475 103 352 -3264
2023-01-24 03:59:43 GMT 51.637650 -2.335510 20,675 103 352 -2560
2023-01-24 03:59:41 GMT 51.637650 -2.335510 20,675 103 352 -2368
2023-01-24 03:59:39 GMT 51.638489 -2.341053 20,750 103 352 -2048
2023-01-24 03:59:38 GMT 51.638676 -2.342377 20,750 103 352 -1920
2023-01-24 03:59:37 GMT 51.639267 -2.346249 20,800 103 353 -1856
2023-01-24 03:59:36 GMT 51.639954 -2.351000 20,850 103 353 -1792
2023-01-24 03:59:34 GMT 51.640118 -2.352142 20,875 103 353 -1792
2023-01-24 03:59:33 GMT 51.641048 -2.358398 20,950 103 353 -1856
2023-01-24 03:59:31 GMT 51.641468 -2.360992 20,975 103 354 -1792
2023-01-24 03:59:30 GMT 51.642242 -2.366143 21,050 103 354 -1728
2023-01-24 03:59:28 GMT 51.642471 -2.367628 21,050 103 354 -1728
2023-01-24 03:59:27 GMT 51.643250 -2.372824 21,125 103 355 -1728
2023-01-24 03:59:24 GMT 51.644714 -2.382623 21,200 103 355 -1664
2023-01-24 03:59:22 GMT 51.644714 -2.382623 21,225 103 356 -1664
2023-01-24 03:59:21 GMT 51.645081 -2.385221 21,250 103 356 -1664
2023-01-24 03:59:20 GMT 51.645985 -2.391205 21,325 103 357 -1664
2023-01-24 03:59:18 GMT 51.646355 -2.393875 21,350 103 357 -1664
2023-01-24 03:59:17 GMT 51.647186 -2.399251 21,400 103 357 -1664
2023-01-24 03:59:15 GMT 51.647568 -2.401886 21,425 103 357 -1728
2023-01-24 03:59:13 GMT 51.648148 -2.405635 21,475 103 358 -1728
2023-01-24 03:59:11 GMT 51.649151 -2.412415 21,550 103 358 -1792
2023-01-24 03:59:10 GMT 51.649750 -2.416473 21,600 103 358 -1856
2023-01-24 03:59:08 GMT 51.650574 -2.421966 21,675 103 359 -1920
2023-01-24 03:59:06 GMT 51.651031 -2.424935 21,700 103 359 -1920
2023-01-24 03:59:05 GMT 51.651428 -2.427597 21,725 103 359 -1920
2023-01-24 03:59:03 GMT 51.652222 -2.433014 21,800 103 359 -1920
2023-01-24 03:59:01 GMT 51.653366 -2.440821 21,875 103 360 -1920
2023-01-24 03:58:59 GMT 51.653572 -2.442169 21,925 103 360 -1984
2023-01-24 03:58:58 GMT 51.654007 -2.445052 21,950 103 360 -1984
2023-01-24 03:58:56 GMT 51.654831 -2.450619 22,025 103 360 -2048
2023-01-24 03:58:55 GMT 51.655289 -2.453737 22,050 103 360 -2048
2023-01-24 03:58:54 GMT 51.656040 -2.458878 22,125 103 360 -2112
2023-01-24 03:58:52 GMT 51.656364 -2.461166 22,150 103 360 -2112
2023-01-24 03:58:51 GMT 51.656799 -2.463907 22,200 103 360 -2112
2023-01-24 03:58:48 GMT 51.657852 -2.471404 22,300 103 360 -2176
2023-01-24 03:58:46 GMT 51.658646 -2.476883 22,375 102 360 -2112
2023-01-24 03:58:45 GMT 51.659065 -2.479553 22,400 102 360 -2112
2023-01-24 03:58:44 GMT 51.659763 -2.484512 22,475 102 361 -2048
2023-01-24 03:58:42 GMT 51.660187 -2.487438 22,525 102 361 -2048
2023-01-24 03:58:41 GMT 51.660507 -2.489700 22,550 102 360 -2048
2023-01-24 03:58:40 GMT 51.660873 -2.492115 22,575 102 360 -2048
2023-01-24 03:58:37 GMT 51.661999 -2.500381 22,675 102 360 -1984
2023-01-24 03:58:36 GMT 51.662743 -2.505722 22,750 102 361 -1984
2023-01-24 03:58:34 GMT 51.663116 -2.508240 22,775 102 361 -1984
2023-01-24 03:58:32 GMT 51.664169 -2.515943 22,850 102 361 -1984
2023-01-24 03:58:30 GMT 51.664581 -2.518913 22,975 102 361 -1920
2023-01-24 03:58:28 GMT 51.665115 -2.522659 22,975 102 361 -1984
2023-01-24 03:58:27 GMT 51.666374 -2.531662 23,050 102 362 -1984
2023-01-24 03:58:25 GMT 51.666374 -2.531662 23,075 102 362 -1920
2023-01-24 03:58:24 GMT 51.667027 -2.536697 23,125 102 362 -1920
2023-01-24 03:58:22 GMT 51.667397 -2.539139 23,175 102 362 -1920
2023-01-24 03:58:21 GMT 51.667770 -2.541885 23,250 102 363 -1920
2023-01-24 03:58:19 GMT 51.668335 -2.546156 23,250 102 363 -1920
2023-01-24 03:58:18 GMT 51.668884 -2.550239 23,300 102 363 -1920
2023-01-24 03:58:16 GMT 51.669617 -2.555732 23,375 102 363 -2048
2023-01-24 03:58:15 GMT 51.669846 -2.557216 23,400 102 363 -2048
2023-01-24 03:58:14 GMT 51.670193 -2.559891 23,425 102 363 -2048
2023-01-24 03:58:12 GMT 51.670982 -2.565689 23,500 102 364 -2112
2023-01-24 03:58:11 GMT 51.671265 -2.567906 23,525 102 364 -2176
2023-01-24 03:58:09 GMT 51.672100 -2.574158 23,625 102 364 -2176
2023-01-24 03:58:07 GMT 51.672821 -2.579560 23,700 102 364 -2176
2023-01-24 03:58:06 GMT 51.673187 -2.582158 23,725 102 364 -2176
2023-01-24 03:58:05 GMT 51.673588 -2.585068 23,775 102 364 -2176
2023-01-24 03:58:04 GMT 51.674286 -2.590332 23,825 102 364 -2112
2023-01-24 03:58:01 GMT 51.674847 -2.594452 23,900 102 364 -2112
2023-01-24 03:58:00 GMT 51.675201 -2.597227 23,925 102 364 -2048
2023-01-24 03:57:59 GMT 51.675686 -2.600861 23,975 102 364 -1984
2023-01-24 03:57:58 GMT 51.676025 -2.603389 24,000 102 364 -1984
2023-01-24 03:57:56 GMT 51.676529 -2.607174 24,050 102 365 -1856
2023-01-24 03:57:54 GMT 51.677406 -2.613678 24,150 102 365 -1792
2023-01-24 03:57:52 GMT 51.677948 -2.617790 24,150 102 365 -1792
2023-01-24 03:57:51 GMT 51.678360 -2.620685 24,200 102 366 -1600
2023-01-24 03:57:49 GMT 51.679035 -2.625961 24,275 102 366 -1536
2023-01-24 03:57:48 GMT 51.679409 -2.628632 24,275 102 367 -1536
2023-01-24 03:57:47 GMT 51.679825 -2.631745 24,300 102 367 -1472
2023-01-24 03:57:46 GMT 51.680466 -2.636645 24,350 102 368 -1408
2023-01-24 03:57:44 GMT 51.680878 -2.639614 24,375 102 368 -1408
2023-01-24 03:57:43 GMT 51.681271 -2.642441 24,400 102 369 -1408
2023-01-24 03:57:41 GMT 51.682014 -2.648010 24,450 102 370 -1280
2023-01-24 03:57:39 GMT 51.683411 -2.658386 24,500 102 371 -1088
2023-01-24 03:57:37 GMT 51.683411 -2.658386 24,525 102 372 -1024
2023-01-24 03:57:36 GMT 51.683784 -2.661209 24,550 102 372 -960
2023-01-24 03:57:35 GMT 51.684448 -2.666337 24,575 102 374 -1024
2023-01-24 03:57:33 GMT 51.684814 -2.669084 24,600 102 374 -1024
2023-01-24 03:57:32 GMT 51.685226 -2.671830 24,600 102 375 -1088
2023-01-24 03:57:30 GMT 51.686020 -2.677689 24,650 102 376 -1344
2023-01-24 03:57:29 GMT 51.686440 -2.680664 24,675 102 376 -1408
2023-01-24 03:57:28 GMT 51.686764 -2.683258 24,700 102 376 -1536
2023-01-24 03:57:27 GMT 51.687138 -2.685928 24,725 102 377 -1600
2023-01-24 03:57:25 GMT 51.687836 -2.691057 24,775 102 378 -1792
2023-01-24 03:57:23 GMT 51.688568 -2.696253 24,825 102 378 -1792
2023-01-24 03:57:22 GMT 51.688934 -2.699074 24,925 102 378 -1792
2023-01-24 03:57:20 GMT 51.689697 -2.704697 24,925 102 378 -1856
2023-01-24 03:57:19 GMT 51.690125 -2.707833 24,950 102 379 -1856
2023-01-24 03:57:18 GMT 51.690491 -2.710431 24,975 102 379 -1856
2023-01-24 03:57:17 GMT 51.691269 -2.715998 25,050 102 379 -1856
2023-01-24 03:57:15 GMT 51.691635 -2.718597 25,075 102 379 -1856
2023-01-24 03:57:14 GMT 51.692162 -2.722397 25,125 102 380 -1856
2023-01-24 03:57:12 GMT 51.692863 -2.727585 25,175 102 380 -1920
2023-01-24 03:57:10 GMT 51.693420 -2.731513 25,225 102 381 -1920
2023-01-24 03:57:09 GMT 51.694199 -2.737303 25,300 102 381 -1920
2023-01-24 03:57:07 GMT 51.694771 -2.741394 25,350 102 382 -1920
2023-01-24 03:57:05 GMT 51.695526 -2.746953 25,425 102 382 -1920
2023-01-24 03:57:03 GMT 51.696167 -2.751407 25,450 102 382 -1920
2023-01-24 03:57:02 GMT 51.696533 -2.754228 25,550 102 383 -1920
2023-01-24 03:57:00 GMT 51.697357 -2.760018 25,600 102 383 -1984
2023-01-24 03:56:58 GMT 51.698181 -2.766031 25,650 102 383 -1984
2023-01-24 03:56:57 GMT 51.698589 -2.768860 25,650 102 383 -1984
2023-01-24 03:56:55 GMT 51.699234 -2.773602 25,725 102 383 -2048
2023-01-24 03:56:54 GMT 51.699600 -2.776349 25,775 102 384 -2048
2023-01-24 03:56:53 GMT 51.700031 -2.779236 25,800 102 384 -2048
2023-01-24 03:56:51 GMT 51.700775 -2.784653 25,950 102 384 -2048
2023-01-24 03:56:49 GMT 51.701614 -2.790750 25,950 102 384 -2048
2023-01-24 03:56:48 GMT 51.702850 -2.799658 26,050 102 385 -2048
2023-01-24 03:56:46 GMT 51.702850 -2.799658 26,050 102 385 -1984
2023-01-24 03:56:45 GMT 51.703243 -2.802429 26,100 102 385 -1984
2023-01-24 03:56:44 GMT 51.703995 -2.808046 26,150 102 385 -1984
2023-01-24 03:56:42 GMT 51.704361 -2.810669 26,175 102 385 -1920
2023-01-24 03:56:40 GMT 51.705151 -2.816315 26,250 102 386 -1920
2023-01-24 03:56:39 GMT 51.705479 -2.818832 26,275 102 386 -1856
2023-01-24 03:56:38 GMT 51.706284 -2.824600 26,350 102 387 -1856
2023-01-24 03:56:36 GMT 51.706734 -2.827759 26,375 102 387 -1792
2023-01-24 03:56:34 GMT 51.707432 -2.833099 26,425 102 387 -1728
2023-01-24 03:56:33 GMT 51.707840 -2.835883 26,450 102 387 -1728
2023-01-24 03:56:32 GMT 51.708176 -2.838593 26,475 102 387 -1728
2023-01-24 03:56:31 GMT 51.708572 -2.841376 26,550 102 387 -1664
2023-01-24 03:56:29 GMT 51.709389 -2.847214 26,550 102 388 -1664
2023-01-24 03:56:27 GMT 51.710133 -2.852936 26,600 102 390 -1600
2023-01-24 03:56:25 GMT 51.710953 -2.858598 26,675 102 390 -1600
2023-01-24 03:56:23 GMT 51.711670 -2.864151 26,725 102 391 -1600
2023-01-24 03:56:22 GMT 51.712097 -2.867060 26,750 102 391 -1664
2023-01-24 03:56:20 GMT 51.712833 -2.872696 26,775 102 392 -1664
2023-01-24 03:56:18 GMT 51.713608 -2.878270 26,850 102 392 -1792
2023-01-24 03:56:16 GMT 51.714386 -2.883837 26,925 102 393 -1792
2023-01-24 03:56:14 GMT 51.715534 -2.892303 26,975 102 393 -1856
2023-01-24 03:56:12 GMT 51.715954 -2.895279 27,025 102 394 -1984
2023-01-24 03:56:11 GMT 51.716766 -2.901207 27,075 102 394 -2048
2023-01-24 03:56:08 GMT 51.717396 -2.905655 27,150 102 394 -2176
2023-01-24 03:56:07 GMT 51.718002 -2.910263 27,200 102 394 -2176
2023-01-24 03:56:05 GMT 51.718597 -2.914346 27,250 102 394 -2176
2023-01-24 03:56:04 GMT 51.718929 -2.916794 27,300 102 394 -2240
2023-01-24 03:56:03 GMT 51.719604 -2.921844 27,350 102 395 -2240
2023-01-24 03:56:02 GMT 51.719955 -2.924271 27,400 102 395 -2304
2023-01-24 03:56:00 GMT 51.721165 -2.933044 27,500 102 395 -2304
2023-01-24 03:55:58 GMT 51.721584 -2.936020 27,550 102 395 -2304
2023-01-24 03:55:56 GMT 51.722424 -2.942047 27,625 102 395 -2240
2023-01-24 03:55:55 GMT 51.722763 -2.944559 27,650 102 395 -2240
2023-01-24 03:55:54 GMT 51.723175 -2.947602 27,700 102 395 -2176
2023-01-24 03:55:51 GMT 51.724190 -2.954941 27,800 102 395 -2112
2023-01-24 03:55:49 GMT 51.725170 -2.961960 27,875 102 396 -2112
2023-01-24 03:55:48 GMT 51.725510 -2.964527 27,900 102 396 -2112
2023-01-24 03:55:47 GMT 51.726746 -2.973286 28,000 102 396 -2112
2023-01-24 03:55:45 GMT 51.726746 -2.973286 28,000 102 396 -2048
2023-01-24 03:55:44 GMT 51.727112 -2.975959 28,050 102 397 -1984
2023-01-24 03:55:43 GMT 51.727917 -2.982025 28,100 102 397 -1920
2023-01-24 03:55:41 GMT 51.728302 -2.984867 28,150 102 397 -1856
2023-01-24 03:55:38 GMT 51.729916 -2.996445 28,250 102 398 -1600
2023-01-24 03:55:35 GMT 51.730591 -3.001272 28,300 102 399 -1408
2023-01-24 03:55:33 GMT 51.731407 -3.007202 28,350 102 399 -1280
2023-01-24 03:55:32 GMT 51.731827 -3.010105 28,375 102 400 -1216
2023-01-24 03:55:29 GMT 51.733200 -3.019978 28,425 102 401 -1088
2023-01-24 03:55:28 GMT 51.733967 -3.025665 28,475 102 401 -1024
2023-01-24 03:55:25 GMT 51.734806 -3.031387 28,500 102 402 -960
2023-01-24 03:55:24 GMT 51.735924 -3.039398 28,575 102 402 -1024
2023-01-24 03:55:22 GMT 51.735924 -3.039398 28,575 102 402 -1024
2023-01-24 03:55:20 GMT 51.736713 -3.045120 28,600 102 402 -1024
2023-01-24 03:55:18 GMT 51.737686 -3.052046 28,650 102 401 -1024
2023-01-24 03:55:16 GMT 51.738483 -3.057709 28,675 102 401 -1024
2023-01-24 03:55:15 GMT 51.738853 -3.060532 28,700 102 401 -1024
2023-01-24 03:55:14 GMT 51.739273 -3.063507 28,700 102 401 -960
2023-01-24 03:55:12 GMT 51.740112 -3.069417 28,750 102 401 -960
2023-01-24 03:55:11 GMT 51.740387 -3.071124 28,775 102 401 -960
2023-01-24 03:55:10 GMT 51.740799 -3.074242 28,775 102 401 -960
2023-01-24 03:55:08 GMT 51.741604 -3.079910 28,825 102 401 -960
2023-01-24 03:55:07 GMT 51.742020 -3.082733 28,825 102 401 -1024
2023-01-24 03:55:06 GMT 51.742950 -3.089447 28,850 102 401 -1024
2023-01-24 03:55:04 GMT 51.743362 -3.092429 28,875 102 401 -1024
2023-01-24 03:55:03 GMT 51.743698 -3.094788 28,900 102 401 -1024
2023-01-24 03:55:02 GMT 51.744534 -3.100815 28,925 102 401 -960
2023-01-24 03:55:00 GMT 51.744953 -3.103867 28,950 102 401 -960
2023-01-24 03:54:59 GMT 51.745377 -3.106904 28,975 102 401 -960
2023-01-24 03:54:58 GMT 51.746582 -3.115540 29,000 102 401 -1024
2023-01-24 03:54:56 GMT 51.746582 -3.115540 29,025 102 401 -1024
2023-01-24 03:54:55 GMT 51.747887 -3.124847 29,050 102 402 -1216
2023-01-24 03:54:53 GMT 51.747887 -3.124847 29,075 102 402 -1344
2023-01-24 03:54:52 GMT 51.748489 -3.129322 29,100 102 402 -1472
2023-01-24 03:54:50 GMT 51.748959 -3.132477 29,125 102 402 -1664
2023-01-24 03:54:49 GMT 51.749424 -3.135834 29,175 102 402 -1728
2023-01-24 03:54:47 GMT 51.750275 -3.142016 29,225 102 403 -1984
2023-01-24 03:54:46 GMT 51.750687 -3.144985 29,250 102 403 -1920
2023-01-24 03:54:45 GMT 51.751099 -3.147964 29,300 102 403 -1920
2023-01-24 03:54:43 GMT 51.751842 -3.153687 29,350 102 404 -1728
2023-01-24 03:54:41 GMT 51.752747 -3.160128 29,400 102 404 -1728
2023-01-24 03:54:40 GMT 51.753193 -3.163300 29,475 102 405 -1600
2023-01-24 03:54:38 GMT 51.754211 -3.170818 29,500 102 406 -1472
2023-01-24 03:54:36 GMT 51.754669 -3.174084 29,525 102 407 -1408
2023-01-24 03:54:34 GMT 51.755428 -3.179855 29,550 102 407 -1344
2023-01-24 03:54:33 GMT 51.755848 -3.182907 29,600 102 408 -1408
2023-01-24 03:54:32 GMT 51.756451 -3.187180 29,625 102 409 -1408
2023-01-24 03:54:30 GMT 51.757233 -3.192939 29,675 102 410 -1408
2023-01-24 03:54:29 GMT 51.757462 -3.194646 29,700 102 410 -1472
2023-01-24 03:54:28 GMT 51.758919 -3.205109 29,750 102 411 -1536
2023-01-24 03:54:26 GMT 51.758919 -3.205109 29,775 102 411 -1600
2023-01-24 03:54:25 GMT 51.759151 -3.206711 29,800 102 412 -1664
2023-01-24 03:54:24 GMT 51.760365 -3.215408 29,850 102 412 -1664
2023-01-24 03:54:22 GMT 51.760365 -3.215408 29,875 102 412 -1792
2023-01-24 03:54:20 GMT 51.761215 -3.221518 29,925 102 413 -1792
2023-01-24 03:54:19 GMT 51.761620 -3.224487 29,975 102 413 -1792
2023-01-24 03:54:18 GMT 51.762039 -3.227679 30,000 102 413 -1792
2023-01-24 03:54:16 GMT 51.762875 -3.233643 30,050 102 416 -1856
2023-01-24 03:54:15 GMT 51.763294 -3.236618 30,075 102 416 -1856
2023-01-24 03:54:13 GMT 51.764133 -3.242798 30,150 102 416 -1856
2023-01-24 03:54:12 GMT 51.764557 -3.245792 30,175 102 416 -1856
2023-01-24 03:54:10 GMT 51.765110 -3.249893 30,225 102 417 -1856
2023-01-24 03:54:09 GMT 51.765747 -3.254329 30,275 102 417 -1856
2023-01-24 03:54:08 GMT 51.766205 -3.257521 30,325 102 417 -1856
2023-01-24 03:54:06 GMT 51.767212 -3.264795 30,375 102 418 -1728
2023-01-24 03:54:05 GMT 51.767624 -3.267913 30,400 102 418 -1728
2023-01-24 03:54:03 GMT 51.768265 -3.272664 30,450 102 419 -1728
2023-01-24 03:54:02 GMT 51.768723 -3.275782 30,475 102 419 -1664
2023-01-24 03:54:00 GMT 51.770046 -3.285294 30,575 102 420 -1600
2023-01-24 03:53:57 GMT 51.771652 -3.296863 30,650 102 421 -1664
2023-01-24 03:53:55 GMT 51.771652 -3.296863 30,675 102 421 -1664
2023-01-24 03:53:53 GMT 51.772568 -3.303396 30,725 102 422 -1728
2023-01-24 03:53:52 GMT 51.773865 -3.312912 30,825 102 423 -1792
2023-01-24 03:53:50 GMT 51.773865 -3.312912 30,825 102 423 -1856
2023-01-24 03:53:47 GMT 51.775040 -3.321063 30,925 102 424 -1920
2023-01-24 03:53:45 GMT 51.775864 -3.327002 30,950 102 424 -1984
2023-01-24 03:53:44 GMT 51.776283 -3.330307 31,050 102 424 -2048
2023-01-24 03:53:43 GMT 51.777355 -3.337784 31,050 102 424 -2048
2023-01-24 03:53:40 GMT 51.778198 -3.343778 31,175 102 425 -1984
2023-01-24 03:53:38 GMT 51.778976 -3.349345 31,225 102 425 -1984
2023-01-24 03:53:36 GMT 51.779709 -3.354542 31,275 102 425 -1984
2023-01-24 03:53:35 GMT 51.780304 -3.359070 31,300 102 426 -1984
2023-01-24 03:53:34 GMT 51.780800 -3.362503 31,375 102 427 -2048
2023-01-24 03:53:32 GMT 51.782383 -3.373718 31,425 102 427 -2048
2023-01-24 03:53:30 GMT 51.782383 -3.373718 31,500 102 427 -2048
2023-01-24 03:53:29 GMT 51.782959 -3.377776 31,525 102 427 -2048
2023-01-24 03:53:27 GMT 51.783684 -3.382950 31,575 102 427 -2048
2023-01-24 03:53:26 GMT 51.784103 -3.386164 31,600 102 427 -2048
2023-01-24 03:53:25 GMT 51.785019 -3.392548 31,650 102 427 -2048
2023-01-24 03:53:23 GMT 51.785477 -3.395815 31,725 102 428 -1984
2023-01-24 03:53:22 GMT 51.785919 -3.398895 31,750 102 428 -1984
2023-01-24 03:53:20 GMT 51.786942 -3.406133 31,825 102 429 -1920
2023-01-24 03:53:19 GMT 51.787411 -3.409348 31,850 102 429 -1920
2023-01-24 03:53:18 GMT 51.788246 -3.415375 31,925 102 429 -1920
2023-01-24 03:53:15 GMT 51.788898 -3.420105 31,975 102 430 -1856
2023-01-24 03:53:14 GMT 51.789410 -3.423691 32,025 102 430 -1856
2023-01-24 03:53:11 GMT 51.790760 -3.433228 32,075 102 431 -1856
2023-01-24 03:53:10 GMT 51.791180 -3.436203 32,150 102 431 -1920
2023-01-24 03:53:09 GMT 51.792671 -3.446808 32,225 102 431 -1920
2023-01-24 03:53:07 GMT 51.792671 -3.446808 32,250 102 433 -1920
2023-01-24 03:53:06 GMT 51.793091 -3.449783 32,250 102 433 -1984
2023-01-24 03:53:04 GMT 51.794022 -3.456116 32,350 102 433 -1984
2023-01-24 03:53:03 GMT 51.794483 -3.459549 32,375 102 433 -1984
2023-01-24 03:53:02 GMT 51.795418 -3.465881 32,425 103 434 -1984
2023-01-24 03:53:00 GMT 51.795868 -3.469007 32,450 103 434 -1984
2023-01-24 03:52:59 GMT 51.796280 -3.472125 32,500 103 435 -1920
2023-01-24 03:52:58 GMT 51.796692 -3.475020 32,525 103 435 -1920
2023-01-24 03:52:56 GMT 51.797604 -3.481140 32,600 103 435 -1920
2023-01-24 03:52:55 GMT 51.797977 -3.483887 32,625 102 436 -1920
2023-01-24 03:52:54 GMT 51.798862 -3.489990 32,675 103 436 -1920
2023-01-24 03:52:52 GMT 51.799347 -3.493281 32,700 103 437 -1920
2023-01-24 03:52:51 GMT 51.799805 -3.496547 32,725 103 437 -1920
2023-01-24 03:52:49 GMT 51.800720 -3.502783 32,800 103 437 -1856
2023-01-24 03:52:48 GMT 51.801178 -3.506123 32,825 103 438 -1856
2023-01-24 03:52:46 GMT 51.802597 -3.516070 32,900 103 439 -1920
2023-01-24 03:52:43 GMT 51.804310 -3.527985 33,025 103 439 -1920
2023-01-24 03:52:41 GMT 51.804310 -3.527985 33,025 102 440 -1920
2023-01-24 03:52:39 GMT 51.805798 -3.538208 33,125 103 441 -1856
2023-01-24 03:52:37 GMT 51.806213 -3.541235 33,150 103 441 -1856
2023-01-24 03:52:36 GMT 51.807613 -3.550949 33,250 103 441 -1664
2023-01-24 03:52:34 GMT 51.807613 -3.550949 33,250 103 441 -1664
2023-01-24 03:52:32 GMT 51.809429 -3.563309 33,350 103 442 -1536
2023-01-24 03:52:30 GMT 51.809429 -3.563309 33,400 103 442 -1472
2023-01-24 03:52:28 GMT 51.810333 -3.569740 33,450 103 442 -1408
2023-01-24 03:52:26 GMT 51.811291 -3.576202 33,475 103 443 -1408
2023-01-24 03:52:24 GMT 51.812439 -3.584067 33,500 103 443 -1408
2023-01-24 03:52:22 GMT 51.813080 -3.588595 33,575 103 443 -1408
2023-01-24 03:52:20 GMT 51.814037 -3.595276 33,625 103 444 -1408
2023-01-24 03:52:19 GMT 51.814545 -3.598839 33,650 103 444 -1408
2023-01-24 03:52:18 GMT 51.815460 -3.605000 33,700 103 444 -1408
2023-01-24 03:52:16 GMT 51.815899 -3.608246 33,725 103 444 -1408
2023-01-24 03:52:15 GMT 51.816833 -3.614428 33,800 103 444 -1408
2023-01-24 03:52:13 GMT 51.817291 -3.617694 33,825 103 444 -1408
2023-01-24 03:52:11 GMT 51.818691 -3.627625 33,875 103 444 -1408
2023-01-24 03:52:09 GMT 51.819214 -3.631056 33,900 103 444 -1408
2023-01-24 03:52:07 GMT 51.820137 -3.637543 33,950 103 444 -1408
2023-01-24 03:52:06 GMT 51.820557 -3.640442 34,000 103 444 -1408
2023-01-24 03:52:04 GMT 51.821255 -3.645630 34,000 103 444 -1408
2023-01-24 03:52:03 GMT 51.822369 -3.653107 34,050 103 444 -1408
2023-01-24 03:52:01 GMT 51.822838 -3.656464 34,075 102 444 -1408
2023-01-24 03:52:00 GMT 51.823517 -3.661342 34,100 102 444 -1408
2023-01-24 03:51:59 GMT 51.823952 -3.664322 34,125 102 444 -1408
2023-01-24 03:51:58 GMT 51.824387 -3.667504 34,150 102 444 -1408
2023-01-24 03:51:57 GMT 51.825302 -3.673813 34,200 102 445 -1408
2023-01-24 03:51:55 GMT 51.825806 -3.677376 34,225 102 445 -1408
2023-01-24 03:51:54 GMT 51.826996 -3.685839 34,275 102 445 -1408
2023-01-24 03:51:52 GMT 51.826996 -3.685839 34,275 102 446 -1408
2023-01-24 03:51:50 GMT 51.828781 -3.698681 34,350 102 446 -1408
2023-01-24 03:51:48 GMT 51.828781 -3.698681 34,375 102 447 -1408
2023-01-24 03:51:46 GMT 51.829788 -3.705807 34,400 102 447 -1344
2023-01-24 03:51:45 GMT 51.830193 -3.708572 34,450 102 448 -1344
2023-01-24 03:51:44 GMT 51.831161 -3.715457 34,475 102 448 -1344
2023-01-24 03:51:42 GMT 51.831589 -3.718491 34,500 102 449 -1408
2023-01-24 03:51:41 GMT 51.832054 -3.721924 34,525 102 449 -1408
2023-01-24 03:51:40 GMT 51.833031 -3.728790 34,575 102 449 -1408
2023-01-24 03:51:38 GMT 51.833405 -3.731640 34,575 102 450 -1408
2023-01-24 03:51:36 GMT 51.834381 -3.738556 34,625 102 450 -1408
2023-01-24 03:51:35 GMT 51.834614 -3.740387 34,650 102 451 -1408
2023-01-24 03:51:34 GMT 51.835281 -3.745002 34,675 102 451 -1408
2023-01-24 03:51:32 GMT 51.836151 -3.751534 34,750 102 452 -1408
2023-01-24 03:51:30 GMT 51.836987 -3.757324 34,750 102 452 -1408
2023-01-24 03:51:28 GMT 51.837963 -3.764420 34,800 102 452 -1408
2023-01-24 03:51:27 GMT 51.838383 -3.767548 34,825 102 453 -1408
2023-01-24 03:51:25 GMT 51.839355 -3.774472 34,875 102 453 -1408
2023-01-24 03:51:24 GMT 51.839783 -3.777695 34,900 102 453 -1408
2023-01-24 03:51:23 GMT 51.840775 -3.784864 34,950 102 454 -1408
2023-01-24 03:51:20 GMT 51.842102 -3.794663 35,025 102 454 -1408
2023-01-24 03:51:17 GMT 51.842789 -3.799785 35,075 102 454 -1408
2023-01-24 03:51:14 GMT 51.843971 -3.808365 35,125 102 455 -1408
2023-01-24 03:51:13 GMT 51.844624 -3.813095 35,175 102 455 -1408
2023-01-24 03:51:11 GMT 51.845737 -3.821182 35,225 102 455 -1408
2023-01-24 03:51:09 GMT 51.846588 -3.827548 35,225 102 455 -1408
2023-01-24 03:51:07 GMT 51.847504 -3.834229 35,300 102 455 -1408
2023-01-24 03:51:05 GMT 51.848301 -3.839951 35,350 102 455 -1408
2023-01-24 03:51:04 GMT 51.848766 -3.843155 35,375 102 455 -1408
2023-01-24 03:51:03 GMT 51.849182 -3.846359 35,400 102 455 -1408
2023-01-24 03:51:02 GMT 51.849651 -3.849792 35,425 102 455 -1408
2023-01-24 03:51:00 GMT 51.850765 -3.857651 35,475 102 455 -1408
2023-01-24 03:50:59 GMT 51.851185 -3.860779 35,500 102 456 -1408
2023-01-24 03:50:57 GMT 51.852070 -3.867340 35,525 102 456 -1408
2023-01-24 03:50:56 GMT 51.852535 -3.870468 35,550 102 456 -1408
2023-01-24 03:50:55 GMT 51.853043 -3.874091 35,600 102 456 -1408
2023-01-24 03:50:53 GMT 51.853775 -3.879584 35,625 102 456 -1408
2023-01-24 03:50:52 GMT 51.854446 -3.884201 35,675 102 456 -1344
2023-01-24 03:50:51 GMT 51.854912 -3.887711 35,700 102 456 -1344
2023-01-24 03:50:49 GMT 51.855797 -3.893967 35,725 102 456 -1344
2023-01-24 03:50:48 GMT 51.856213 -3.896866 35,750 102 455 -1344
2023-01-24 03:50:47 GMT 51.857052 -3.902969 35,800 102 455 -1408
2023-01-24 03:50:45 GMT 51.857517 -3.906326 35,825 102 455 -1408
2023-01-24 03:50:44 GMT 51.858028 -3.909760 35,825 102 455 -1408
2023-01-24 03:50:43 GMT 51.858994 -3.916700 35,875 102 455 -1408
2023-01-24 03:50:41 GMT 51.859425 -3.920059 35,900 102 455 -1408
2023-01-24 03:50:39 GMT 51.860355 -3.926544 35,950 102 455 -1344
2023-01-24 03:50:38 GMT 51.860870 -3.930130 35,975 102 455 -1344
2023-01-24 03:50:36 GMT 51.861847 -3.937073 36,025 102 455 -1344
2023-01-24 03:50:35 GMT 51.862289 -3.940306 36,050 102 455 -1344
2023-01-24 03:50:34 GMT 51.862793 -3.943721 36,075 102 454 -1408
2023-01-24 03:50:31 GMT 51.864075 -3.952851 36,175 103 455 -1472
2023-01-24 03:50:29 GMT 51.865082 -3.959755 36,175 103 455 -1536
2023-01-24 03:50:28 GMT 51.865570 -3.963165 36,200 103 455 -1472
2023-01-24 03:50:27 GMT 51.866089 -3.966510 36,225 103 455 -1408
2023-01-24 03:50:26 GMT 51.867050 -3.973265 36,275 103 455 -1344
2023-01-24 03:50:24 GMT 51.867599 -3.976828 36,300 103 455 -1280
2023-01-24 03:50:23 GMT 51.868130 -3.980331 36,325 103 456 -1280
2023-01-24 03:50:20 GMT 51.869110 -3.987369 36,375 102 455 -1280
2023-01-24 03:50:19 GMT 51.869843 -3.992491 36,425 102 455 -1408
2023-01-24 03:50:17 GMT 51.870739 -3.998947 36,450 102 455 -1472
2023-01-24 03:50:16 GMT 51.871250 -4.002304 36,500 102 455 -1472
2023-01-24 03:50:15 GMT 51.872322 -4.010086 36,550 102 454 -1472
2023-01-24 03:50:12 GMT 51.873047 -4.015354 36,575 102 454 -1472
2023-01-24 03:50:10 GMT 51.873997 -4.022064 36,650 102 454 -1472
2023-01-24 03:50:09 GMT 51.874374 -4.025079 36,650 102 453 -1472
2023-01-24 03:50:08 GMT 51.875534 -4.033356 36,700 102 453 -1408
2023-01-24 03:50:05 GMT 51.876698 -4.041519 36,775 102 453 -1408
2023-01-24 03:50:03 GMT 51.877167 -4.045047 36,800 102 453 -1472
2023-01-24 03:50:02 GMT 51.877625 -4.048388 36,825 102 453 -1472
2023-01-24 03:50:01 GMT 51.878094 -4.051819 36,850 102 453 -1472
2023-01-24 03:50:00 GMT 51.878998 -4.058409 36,900 102 453 -1472
2023-01-24 03:49:57 GMT 51.879910 -4.064789 36,950 102 453 -1472
2023-01-24 03:49:56 GMT 51.880421 -4.068527 36,975 102 453 -1472
2023-01-24 03:49:54 GMT 51.881260 -4.074707 37,000 102 452 -1472
2023-01-24 03:49:53 GMT 51.881725 -4.078140 37,050 102 453 -1472
2023-01-24 03:49:52 GMT 51.882111 -4.081050 37,075 102 452 -1472
2023-01-24 03:49:51 GMT 51.883667 -4.092481 37,125 102 452 -1472
2023-01-24 03:49:49 GMT 51.883667 -4.092481 37,175 102 452 -1472
2023-01-24 03:49:47 GMT 51.884354 -4.097381 37,200 102 452 -1472
2023-01-24 03:49:46 GMT 51.884857 -4.101018 37,225 102 452 -1472
2023-01-24 03:49:45 GMT 51.885315 -4.104433 37,250 102 452 -1472
2023-01-24 03:49:44 GMT 51.885773 -4.107819 37,275 102 452 -1472
2023-01-24 03:49:43 GMT 51.886703 -4.114685 37,325 102 452 0
2023-01-24 03:49:41 GMT 51.887192 -4.118537 37,350 102 452 -1472
2023-01-24 03:49:40 GMT 51.887589 -4.121246 37,375 102 452 -1472
2023-01-24 03:49:38 GMT 51.888565 -4.128484 37,450 102 452 0
2023-01-24 03:49:36 GMT 51.889343 -4.134200 37,475 102 452 -1472
2023-01-24 03:49:35 GMT 51.889801 -4.137689 37,500 102 452 -1472
2023-01-24 03:49:34 GMT 51.890709 -4.144440 37,525 102 451 -1472
2023-01-24 03:49:32 GMT 51.891174 -4.147720 37,575 102 451 -1472
2023-01-24 03:49:31 GMT 51.891632 -4.151273 37,600 102 451 -1472
2023-01-24 03:49:30 GMT 51.892960 -4.161220 37,650 102 451 -1472
2023-01-24 03:49:28 GMT 51.892960 -4.161220 37,675 102 451 -1408
2023-01-24 03:49:26 GMT 51.893688 -4.166486 37,725 102 451 -1472
2023-01-24 03:49:24 GMT 51.894711 -4.174098 37,750 102 451 -1472
2023-01-24 03:49:23 GMT 51.895550 -4.180219 37,800 102 451 -1472
2023-01-24 03:49:21 GMT 51.895969 -4.183280 37,825 102 451 -1472
2023-01-24 03:49:19 GMT 51.896988 -4.190598 37,875 102 451 -1472
2023-01-24 03:49:17 GMT 51.897903 -4.197235 37,950 102 451 -1472
2023-01-24 03:49:16 GMT 51.898361 -4.200592 37,975 102 451 -1472
2023-01-24 03:49:15 GMT 51.899780 -4.210434 38,000 103 451 -1472
2023-01-24 03:49:13 GMT 51.899780 -4.210434 38,025 103 451 -1472
2023-01-24 03:49:12 GMT 51.900204 -4.213414 38,050 103 451 -1472
2023-01-24 03:49:10 GMT 51.901321 -4.220633 38,100 104 452 -1472
2023-01-24 03:49:09 GMT 51.901840 -4.223938 38,125 104 452 -1472
2023-01-24 03:49:08 GMT 51.902344 -4.227371 38,150 104 452 -1472
2023-01-24 03:49:06 GMT 51.903187 -4.232404 38,200 104 453 -1472
2023-01-24 03:49:04 GMT 51.904404 -4.239883 38,225 105 452 -1472
2023-01-24 03:49:03 GMT 51.904999 -4.243234 38,275 105 453 -1472
2023-01-24 03:49:02 GMT 51.905594 -4.246597 38,300 105 453 -1536
2023-01-24 03:49:01 GMT 51.906693 -4.252853 38,325 106 454 -1536
2023-01-24 03:48:59 GMT 51.907333 -4.256363 38,375 106 454 -1472
2023-01-24 03:48:58 GMT 51.907928 -4.259720 38,400 107 454 -1472
2023-01-24 03:48:57 GMT 51.909256 -4.266510 38,450 107 455 -1344
2023-01-24 03:48:55 GMT 51.909611 -4.268345 38,475 107 455 -1280
2023-01-24 03:48:54 GMT 51.910492 -4.272995 38,500 108 455 -1152
2023-01-24 03:48:52 GMT 51.911705 -4.278939 38,525 108 456 -1088
2023-01-24 03:48:50 GMT 51.913055 -4.285431 38,550 109 456 -960
2023-01-24 03:48:48 GMT 51.914356 -4.291495 38,600 109 456 -960
2023-01-24 03:48:46 GMT 51.916267 -4.300284 38,650 109 456 -960
2023-01-24 03:48:44 GMT 51.917267 -4.304962 38,650 109 456 -960
2023-01-24 03:48:43 GMT 51.917942 -4.308132 38,675 109 457 -1024
2023-01-24 03:48:40 GMT 51.920929 -4.322052 38,725 109 457 -1024
2023-01-24 03:48:37 GMT 51.921852 -4.326573 38,775 109 457 -960
2023-01-24 03:48:36 GMT 51.922531 -4.329605 38,775 109 457 -960
2023-01-24 03:48:33 GMT 51.925297 -4.342582 38,850 109 457 -960
2023-01-24 03:48:31 GMT 51.926041 -4.345956 38,875 109 457 -960
2023-01-24 03:48:30 GMT 51.926788 -4.349365 38,875 109 457 -960
2023-01-24 03:48:27 GMT 51.928940 -4.359512 38,950 109 457 -960
2023-01-24 03:48:25 GMT 51.930000 -4.364397 38,950 109 457 -960
2023-01-24 03:48:23 GMT 51.931503 -4.371414 38,975 109 457 -960
2023-01-24 03:48:22 GMT 51.932281 -4.374924 39,000 109 457 -960
2023-01-24 03:48:21 GMT 51.933678 -4.381583 39,025 109 457 -960
2023-01-24 03:48:19 GMT 51.934433 -4.385071 39,050 109 457 -960
2023-01-24 03:48:18 GMT 51.935074 -4.388018 39,050 109 457 -960
2023-01-24 03:48:16 GMT 51.936562 -4.395002 39,100 109 457 -960
2023-01-24 03:48:15 GMT 51.937317 -4.398346 39,100 109 457 -960
2023-01-24 03:48:14 GMT 51.938053 -4.401908 39,125 109 457 -960
2023-01-24 03:48:12 GMT 51.939468 -4.408493 39,150 109 457 -960
2023-01-24 03:48:10 GMT 51.940845 -4.414934 39,200 109 457 -960
2023-01-24 03:48:09 GMT 51.942307 -4.421692 39,225 109 457 -960
2023-01-24 03:48:06 GMT 51.943542 -4.427643 39,275 109 457 -960
2023-01-24 03:48:04 GMT 51.944614 -4.432513 39,300 109 456 -960
2023-01-24 03:48:03 GMT 51.946106 -4.439468 39,325 109 456 -960
2023-01-24 03:48:01 GMT 51.946747 -4.442520 39,350 109 456 -960
2023-01-24 03:47:59 GMT 51.948387 -4.450169 39,350 109 456 -1024
2023-01-24 03:47:58 GMT 51.949036 -4.453201 39,375 109 456 -960
2023-01-24 03:47:57 GMT 51.949814 -4.456787 39,400 109 455 -960
2023-01-24 03:47:56 GMT 51.950455 -4.459915 39,425 109 455 -960
2023-01-24 03:47:54 GMT 51.951874 -4.466476 39,450 109 455 -1024
2023-01-24 03:47:52 GMT 51.952972 -4.471588 39,475 109 454 -1024
2023-01-24 03:47:51 GMT 51.954346 -4.478027 39,525 109 454 -1024
2023-01-24 03:47:49 GMT 51.955307 -4.482422 39,550 109 453 -1024
2023-01-24 03:47:47 GMT 51.956394 -4.487601 39,575 109 452 -1024
2023-01-24 03:47:45 GMT 51.958054 -4.495316 39,625 108 452 -960
2023-01-24 03:47:44 GMT 51.959373 -4.501569 39,650 108 451 -960
2023-01-24 03:47:42 GMT 51.960022 -4.504547 39,675 108 451 -960
2023-01-24 03:47:40 GMT 51.961281 -4.510594 39,700 108 450 -960
2023-01-24 03:47:38 GMT 51.962727 -4.517421 39,750 108 449 -1024
2023-01-24 03:47:37 GMT 51.963821 -4.522400 39,775 108 448 -1024
2023-01-24 03:47:34 GMT 51.965145 -4.528800 39,800 108 446 -960
2023-01-24 03:47:33 GMT 51.967438 -4.539642 39,875 108 446 -960
2023-01-24 03:47:31 GMT 51.967438 -4.539642 39,875 108 446 -960
2023-01-24 03:47:30 GMT 51.968079 -4.542542 39,875 109 445 -960
2023-01-24 03:47:28 GMT 51.970592 -4.554539 39,950 108 444 -960
2023-01-24 03:47:26 GMT 51.970592 -4.554539 39,950 108 444 -960
2023-01-24 03:47:25 GMT 51.971924 -4.560699 39,975 108 443 -1024
2023-01-24 03:47:22 GMT 51.973900 -4.570077 40,025 108 441 -960
2023-01-24 03:47:20 GMT 51.974594 -4.573373 40,050 108 441 -960
2023-01-24 03:47:19 GMT 51.975311 -4.576645 40,075 108 441 -960
2023-01-24 03:47:18 GMT 51.976597 -4.582790 40,100 108 440 -960
2023-01-24 03:47:16 GMT 51.977188 -4.585571 40,125 108 440 -960
2023-01-24 03:47:15 GMT 51.977875 -4.588928 40,125 108 440 -960
2023-01-24 03:47:14 GMT 51.979389 -4.595973 40,175 108 440 -960
2023-01-24 03:47:11 GMT 51.980461 -4.601231 40,200 108 439 -960
2023-01-24 03:47:09 GMT 51.981812 -4.607544 40,225 108 439 -960
2023-01-24 03:47:07 GMT 51.983116 -4.613708 40,250 108 439 -960
2023-01-24 03:47:06 GMT 51.983768 -4.616847 40,275 108 439 -960
2023-01-24 03:47:04 GMT 51.985748 -4.626160 40,325 108 438 -960
2023-01-24 03:47:02 GMT 51.986481 -4.629669 40,325 108 439 -960
2023-01-24 03:47:01 GMT 51.987164 -4.632935 40,350 108 439 -960
2023-01-24 03:46:59 GMT 51.988174 -4.637756 40,375 108 439 -960
2023-01-24 03:46:58 GMT 51.988842 -4.640860 40,375 108 439 -960
2023-01-24 03:46:57 GMT 51.991074 -4.651376 40,425 108 439 -960
2023-01-24 03:46:55 GMT 51.991074 -4.651376 40,425 108 439 -960
2023-01-24 03:46:54 GMT 51.991726 -4.654515 40,425 108 439 -1024
2023-01-24 03:46:52 GMT 51.992981 -4.660492 40,475 108 440 -960
2023-01-24 03:46:51 GMT 51.993668 -4.663620 40,475 108 440 -960
2023-01-24 03:46:50 GMT 51.994354 -4.666748 40,500 108 440 -960
2023-01-24 03:46:48 GMT 51.995777 -4.673506 40,525 109 441 -960
2023-01-24 03:46:46 GMT 51.997128 -4.679862 40,550 109 442 -1024
2023-01-24 03:46:45 GMT 51.998978 -4.688797 40,575 108 442 -1024
2023-01-24 03:46:43 GMT 51.998978 -4.688797 40,575 108 443 -1024
2023-01-24 03:46:40 GMT 52.000946 -4.697952 40,625 108 444 -960
2023-01-24 03:46:38 GMT 52.003052 -4.707947 40,675 108 444 -960
2023-01-24 03:46:37 GMT 52.003052 -4.707947 40,675 108 444 -960
2023-01-24 03:46:36 GMT 52.003647 -4.710922 40,700 108 444 -960
2023-01-24 03:46:34 GMT 52.005020 -4.717255 40,725 108 445 -960
2023-01-24 03:46:33 GMT 52.005615 -4.720230 40,750 108 446 -1024
2023-01-24 03:46:32 GMT 52.006256 -4.723282 40,750 108 446 -1024
2023-01-24 03:46:30 GMT 52.007507 -4.729222 40,775 108 447 -1024
2023-01-24 03:46:28 GMT 52.009460 -4.738312 40,850 108 447 -960
2023-01-24 03:46:26 GMT 52.010147 -4.741669 40,850 108 447 -960
2023-01-24 03:46:25 GMT 52.010815 -4.744917 40,875 108 447 -960
2023-01-24 03:46:23 GMT 52.012115 -4.750959 40,925 108 447 -768
2023-01-24 03:46:22 GMT 52.012802 -4.754333 40,925 108 447 -768
2023-01-24 03:46:21 GMT 52.013535 -4.757767 40,950 108 447 -704
2023-01-24 03:46:20 GMT 52.014908 -4.764481 41,000 108 448 -448
2023-01-24 03:46:18 GMT 52.015610 -4.767596 41,000 108 448 -256
2023-01-24 03:46:17 GMT 52.016258 -4.770813 41,000 108 448 -64
2023-01-24 03:46:15 GMT 52.017704 -4.777719 41,000 108 448 0
2023-01-24 03:46:14 GMT 52.018112 -4.779587 41,000 108 448 0
2023-01-24 03:46:13 GMT 52.018845 -4.783096 41,000 108 448 0
2023-01-24 03:46:10 GMT 52.020859 -4.792786 41,000 108 448 -64
2023-01-24 03:46:07 GMT 52.024384 -4.809570 41,000 108 447 -64
2023-01-24 03:46:05 GMT 52.026398 -4.819183 41,000 108 448 -64
2023-01-24 03:46:02 GMT 52.026398 -4.819183 41,000 108 448 0
2023-01-24 03:45:59 GMT 52.029945 -4.836025 41,000 108 448 64
2023-01-24 03:45:56 GMT 52.029945 -4.836025 41,000 108 448 64
2023-01-24 03:45:53 GMT 52.033390 -4.852583 41,000 108 448 0
2023-01-24 03:45:51 GMT 52.033390 -4.852583 41,000 108 448 0
2023-01-24 03:45:49 GMT 52.034554 -4.858233 41,000 108 448 64
2023-01-24 03:45:47 GMT 52.038025 -4.874725 41,000 108 448 0
2023-01-24 03:45:44 GMT 52.038025 -4.874725 41,000 108 448 0
2023-01-24 03:45:42 GMT 52.041351 -4.890799 41,000 108 448 -64
2023-01-24 03:45:39 GMT 52.041351 -4.890799 41,000 108 448 -64
2023-01-24 03:45:36 GMT 52.043587 -4.901550 41,000 108 448 0
2023-01-24 03:45:34 GMT 52.044571 -4.906311 41,000 108 448 0
2023-01-24 03:45:32 GMT 52.045853 -4.912415 41,000 108 448 0
2023-01-24 03:45:29 GMT 52.047867 -4.922104 41,000 108 448 0
2023-01-24 03:45:27 GMT 52.049591 -4.930429 41,000 108 448 0
2023-01-24 03:45:25 GMT 52.050617 -4.935294 41,000 108 448 0
2023-01-24 03:45:23 GMT 52.051968 -4.941729 41,000 108 448 64
2023-01-24 03:45:21 GMT 52.053131 -4.947357 41,000 108 448 64
2023-01-24 03:45:19 GMT 52.054550 -4.954224 41,000 108 448 0
2023-01-24 03:45:16 GMT 52.056976 -4.965744 41,000 108 448 0
2023-01-24 03:45:13 GMT 52.058395 -4.972458 41,000 108 448 0
2023-01-24 03:45:11 GMT 52.059998 -4.980316 41,000 108 448 0
2023-01-24 03:45:08 GMT 52.062241 -4.991074 41,000 108 448 0
2023-01-24 03:45:06 GMT 52.063232 -4.995797 41,000 108 448 0
2023-01-24 03:45:03 GMT 52.065559 -5.006941 41,000 108 447 64
2023-01-24 03:45:00 GMT 52.067551 -5.016708 41,000 108 447 128
2023-01-24 03:44:57 GMT 52.069656 -5.026627 41,000 108 448 0
2023-01-24 03:44:54 GMT 52.071213 -5.034180 41,000 108 448 0
2023-01-24 03:44:52 GMT 52.072262 -5.039429 41,000 108 448 -64
2023-01-24 03:44:50 GMT 52.073612 -5.045942 41,000 108 447 0
2023-01-24 03:44:46 GMT 52.076172 -5.058262 41,000 108 447 0
2023-01-24 03:44:44 GMT 52.077755 -5.065874 41,000 108 447 0
2023-01-24 03:44:42 GMT 52.078766 -5.070801 41,000 108 447 0
2023-01-24 03:44:39 GMT 52.081192 -5.082550 41,000 108 447 -64
2023-01-24 03:44:36 GMT 52.082829 -5.090358 41,000 108 447 0
2023-01-24 03:44:33 GMT 52.084671 -5.099335 41,000 108 446 0
2023-01-24 03:44:31 GMT 52.086273 -5.107040 41,000 108 446 0
2023-01-24 03:44:28 GMT 52.088058 -5.115738 41,000 108 446 0
2023-01-24 03:44:26 GMT 52.089294 -5.121765 41,000 108 446 0
2023-01-24 03:44:24 GMT 52.091812 -5.133896 41,000 108 446 0
2023-01-24 03:44:22 GMT 52.093369 -5.141525 41,000 108 446 0
2023-01-24 03:44:20 GMT 52.093369 -5.141525 41,000 108 446 0
2023-01-24 03:44:18 GMT 52.095016 -5.149612 41,000 108 446 0
2023-01-24 03:44:16 GMT 52.096344 -5.156021 41,000 108 445 0
2023-01-24 03:44:14 GMT 52.098358 -5.165710 41,000 108 446 -64
2023-01-24 03:44:12 GMT 52.098358 -5.165710 41,000 108 446 -64
2023-01-24 03:44:10 GMT 52.099731 -5.172348 41,000 108 446 -64
2023-01-24 03:44:08 GMT 52.101032 -5.178798 41,000 108 447 0
2023-01-24 03:44:06 GMT 52.102432 -5.185699 41,000 108 447 0
2023-01-24 03:44:04 GMT 52.104198 -5.194179 41,000 108 447 0
2023-01-24 03:44:02 GMT 52.105221 -5.199123 41,000 108 449 0
2023-01-24 03:43:59 GMT 52.109039 -5.217564 41,000 108 448 -64
2023-01-24 03:43:56 GMT 52.109039 -5.217564 41,000 108 448 -64
2023-01-24 03:43:54 GMT 52.110714 -5.225725 41,000 108 448 0
2023-01-24 03:43:52 GMT 52.111645 -5.230355 41,000 108 448 0
2023-01-24 03:43:50 GMT 52.112904 -5.236476 41,000 108 448 64
2023-01-24 03:43:48 GMT 52.114151 -5.242615 41,000 108 449 64
2023-01-24 03:43:45 GMT 52.116257 -5.252762 41,000 108 449 64
2023-01-24 03:43:42 GMT 52.119003 -5.266418 41,000 108 448 0
2023-01-24 03:43:39 GMT 52.120377 -5.273056 41,000 108 449 0
2023-01-24 03:43:37 GMT 52.121422 -5.278146 41,000 108 449 0
2023-01-24 03:43:35 GMT 52.122757 -5.284729 41,000 108 449 0
2023-01-24 03:43:32 GMT 52.124634 -5.293998 41,000 108 449 0
2023-01-24 03:43:30 GMT 52.128174 -5.311340 41,000 108 451 0
2023-01-24 03:43:27 GMT 52.128174 -5.311340 41,000 108 449 0
2023-01-24 03:43:25 GMT 52.129486 -5.317688 41,000 108 450 0
2023-01-24 03:43:22 GMT 52.131104 -5.325701 41,000 108 451 0
2023-01-24 03:43:20 GMT 52.133881 -5.339050 41,000 108 450 0
2023-01-24 03:43:18 GMT 52.133881 -5.339050 41,000 108 450 0
2023-01-24 03:43:15 GMT 52.136169 -5.350418 41,000 108 450 0
2023-01-24 03:43:12 GMT 52.138184 -5.360184 41,000 108 450 0
2023-01-24 03:43:09 GMT 52.139439 -5.366429 41,000 108 450 0
2023-01-24 03:43:07 GMT 52.141113 -5.374669 41,000 108 451 0
2023-01-24 03:43:05 GMT 52.143768 -5.387726 41,000 108 451 0
2023-01-24 03:43:03 GMT 52.143768 -5.387726 41,000 108 451 0
2023-01-24 03:43:00 GMT 52.145737 -5.397415 41,000 108 451 0
2023-01-24 03:42:57 GMT 52.148849 -5.412750 41,000 108 451 0
2023-01-24 03:42:55 GMT 52.148849 -5.412750 41,000 108 451 0
2023-01-24 03:42:52 GMT 52.150936 -5.422930 41,000 108 451 0
2023-01-24 03:42:50 GMT 52.152237 -5.429382 41,000 108 451 0
2023-01-24 03:42:47 GMT 52.154251 -5.439301 41,000 108 452 0
2023-01-24 03:42:45 GMT 52.155590 -5.445844 41,000 108 452 0
2023-01-24 03:42:42 GMT 52.157269 -5.454241 41,000 108 452 0
2023-01-24 03:42:40 GMT 52.158943 -5.462481 41,000 108 452 0
2023-01-24 03:42:38 GMT 52.160156 -5.468445 41,000 108 452 0
2023-01-24 03:42:35 GMT 52.162079 -5.477905 41,000 108 452 0
2023-01-24 03:42:32 GMT 52.164139 -5.488205 41,000 108 452 64
2023-01-24 03:42:29 GMT 52.165508 -5.494890 41,000 108 452 -64
2023-01-24 03:42:26 GMT 52.167984 -5.507126 41,000 108 452 -64
2023-01-24 03:42:24 GMT 52.169220 -5.513306 41,000 108 452 -64
2023-01-24 03:42:22 GMT 52.170502 -5.519638 41,000 108 452 0
2023-01-24 03:42:20 GMT 52.173889 -5.536423 41,000 108 452 64
2023-01-24 03:42:17 GMT 52.175720 -5.545349 41,000 108 453 0
2023-01-24 03:42:14 GMT 52.175720 -5.545349 41,000 108 453 0
2023-01-24 03:42:12 GMT 52.176910 -5.551300 41,000 108 453 -64
2023-01-24 03:42:10 GMT 52.180573 -5.569305 41,000 108 453 0
2023-01-24 03:42:07 GMT 52.180573 -5.569305 41,000 108 453 0
2023-01-24 03:42:05 GMT 52.181580 -5.574341 41,000 108 453 0
2023-01-24 03:42:02 GMT 52.183640 -5.584641 41,000 108 455 0
2023-01-24 03:42:00 GMT 52.184963 -5.591178 41,000 108 453 -64
2023-01-24 03:41:57 GMT 52.187119 -5.601730 41,000 108 453 -64
2023-01-24 03:41:55 GMT 52.188129 -5.606873 41,000 108 454 0
2023-01-24 03:41:52 GMT 52.190094 -5.616531 41,000 108 454 0
2023-01-24 03:41:50 GMT 52.191811 -5.625235 41,000 108 454 0
2023-01-24 03:41:47 GMT 52.193577 -5.634024 41,000 108 454 0
2023-01-24 03:41:45 GMT 52.194881 -5.640459 41,000 108 454 0
2023-01-24 03:41:42 GMT 52.196548 -5.648651 41,000 108 454 0
2023-01-24 03:41:39 GMT 52.198334 -5.657730 41,000 108 455 0
2023-01-24 03:41:37 GMT 52.199768 -5.664786 41,000 108 455 0
2023-01-24 03:41:35 GMT 52.203278 -5.682297 41,000 108 455 0
2023-01-24 03:41:32 GMT 52.204937 -5.690683 41,000 108 455 0
2023-01-24 03:41:29 GMT 52.204937 -5.690683 41,000 108 455 0
2023-01-24 03:41:26 GMT 52.207214 -5.702209 41,000 108 455 0
2023-01-24 03:41:24 GMT 52.208176 -5.707016 41,000 108 455 0
2023-01-24 03:41:22 GMT 52.209869 -5.715323 41,000 108 455 0
2023-01-24 03:41:19 GMT 52.211746 -5.724716 41,000 108 455 64
2023-01-24 03:41:16 GMT 52.213688 -5.734392 41,000 108 455 0
2023-01-24 03:41:14 GMT 52.214573 -5.738787 41,000 108 455 0
2023-01-24 03:41:12 GMT 52.216278 -5.747452 41,000 108 455 0
2023-01-24 03:41:10 GMT 52.217651 -5.754242 41,000 108 455 0
2023-01-24 03:41:08 GMT 52.220810 -5.770035 41,000 108 455 0
2023-01-24 03:41:05 GMT 52.222813 -5.780143 41,000 107 455 0
2023-01-24 03:41:02 GMT 52.222813 -5.780143 41,000 107 455 0
2023-01-24 03:41:00 GMT 52.224163 -5.786970 41,000 107 455 0
2023-01-24 03:40:57 GMT 52.225838 -5.795445 41,000 107 455 0
2023-01-24 03:40:54 GMT 52.227795 -5.805254 41,000 107 455 0
2023-01-24 03:40:52 GMT 52.229095 -5.811768 41,000 108 454 0
2023-01-24 03:40:50 GMT 52.230679 -5.819693 41,000 108 454 0
2023-01-24 03:40:48 GMT 52.231842 -5.825500 41,000 108 454 0
2023-01-24 03:40:45 GMT 52.233856 -5.835571 41,000 108 454 0
2023-01-24 03:40:42 GMT 52.237244 -5.852574 41,000 107 454 0
2023-01-24 03:40:39 GMT 52.237244 -5.852574 41,000 107 454 0
2023-01-24 03:40:37 GMT 52.238453 -5.858538 41,000 107 454 0
2023-01-24 03:40:34 GMT 52.240540 -5.869141 41,000 107 454 64
2023-01-24 03:40:32 GMT 52.242180 -5.877293 41,000 107 454 64
2023-01-24 03:40:29 GMT 52.244339 -5.888214 41,000 107 453 -64
2023-01-24 03:40:26 GMT 52.245579 -5.894400 41,000 107 453 -64
2023-01-24 03:40:24 GMT 52.246880 -5.900992 41,000 107 452 0
2023-01-24 03:40:22 GMT 52.248604 -5.909624 41,000 107 452 0
2023-01-24 03:40:19 GMT 52.249905 -5.916138 41,000 107 452 0
2023-01-24 03:40:17 GMT 52.251675 -5.925084 41,000 107 452 -64
2023-01-24 03:40:14 GMT 52.253258 -5.933245 41,000 107 452 0
2023-01-24 03:40:12 GMT 52.254959 -5.941696 41,000 107 452 0
2023-01-24 03:40:10 GMT 52.256516 -5.949724 41,000 107 452 0
2023-01-24 03:40:07 GMT 52.258099 -5.957650 41,000 107 452 64
2023-01-24 03:40:04 GMT 52.260521 -5.969971 41,000 107 452 0
2023-01-24 03:40:01 GMT 52.262787 -5.981522 41,000 107 452 -64
2023-01-24 03:39:58 GMT 52.264023 -5.987701 41,000 107 452 0
2023-01-24 03:39:55 GMT 52.265736 -5.996495 41,000 107 452 0
2023-01-24 03:39:52 GMT 52.268005 -6.007996 41,000 107 452 64
2023-01-24 03:39:48 GMT 52.270477 -6.020432 41,000 107 452 64
2023-01-24 03:39:46 GMT 52.271412 -6.025138 41,000 107 452 0
2023-01-24 03:39:44 GMT 52.272671 -6.031651 41,000 107 452 0
2023-01-24 03:39:41 GMT 52.275417 -6.045541 41,000 107 452 -64
2023-01-24 03:39:38 GMT 52.276749 -6.052246 41,000 107 452 0
2023-01-24 03:39:36 GMT 52.277710 -6.057281 41,000 107 451 0
2023-01-24 03:39:34 GMT 52.281097 -6.074498 41,000 107 451 0
2023-01-24 03:39:31 GMT 52.281097 -6.074498 41,000 107 451 0
2023-01-24 03:39:28 GMT 52.283146 -6.084699 41,000 107 451 0
2023-01-24 03:39:25 GMT 52.284714 -6.092682 41,000 107 451 0
2023-01-24 03:39:23 GMT 52.286591 -6.102199 41,000 107 451 0
2023-01-24 03:39:20 GMT 52.288879 -6.113892 41,000 107 451 0
2023-01-24 03:39:17 GMT 52.291336 -6.126526 41,000 107 451 0
2023-01-24 03:39:14 GMT 52.293526 -6.137748 41,000 107 451 0
2023-01-24 03:39:11 GMT 52.293526 -6.137748 41,000 107 451 0
2023-01-24 03:39:09 GMT 52.294830 -6.144409 41,000 107 451 0
2023-01-24 03:39:07 GMT 52.296661 -6.153717 41,000 107 451 0
2023-01-24 03:39:04 GMT 52.298264 -6.162033 41,000 107 451 64
2023-01-24 03:39:01 GMT 52.299904 -6.170471 41,000 107 451 0
2023-01-24 03:38:58 GMT 52.302135 -6.182007 41,000 107 451 0
2023-01-24 03:38:55 GMT 52.303814 -6.190482 41,000 107 451 0
2023-01-24 03:38:53 GMT 52.304947 -6.196213 41,000 107 451 -64
2023-01-24 03:38:51 GMT 52.306000 -6.201547 41,000 107 451 -64
2023-01-24 03:38:49 GMT 52.307583 -6.209708 41,000 107 451 0
2023-01-24 03:38:47 GMT 52.308792 -6.216064 41,000 107 450 0
2023-01-24 03:38:45 GMT 52.310120 -6.222916 41,000 107 450 0
2023-01-24 03:38:42 GMT 52.314007 -6.242981 41,000 107 450 0
2023-01-24 03:38:39 GMT 52.314007 -6.242981 41,000 107 450 0
2023-01-24 03:38:36 GMT 52.315685 -6.251456 41,000 107 450 0
2023-01-24 03:38:34 GMT 52.318619 -6.266523 41,000 107 451 0
2023-01-24 03:38:31 GMT 52.320145 -6.274414 41,000 107 450 0
2023-01-24 03:38:29 GMT 52.320145 -6.274414 41,000 107 450 0
2023-01-24 03:38:27 GMT 52.321503 -6.281433 41,000 107 450 0
2023-01-24 03:38:24 GMT 52.323086 -6.289673 41,000 107 450 0
2023-01-24 03:38:22 GMT 52.324623 -6.297520 41,000 107 450 0
2023-01-24 03:38:19 GMT 52.327057 -6.310120 41,000 107 450 -64
2023-01-24 03:38:16 GMT 52.328339 -6.316681 41,000 107 450 -64
2023-01-24 03:38:14 GMT 52.330395 -6.327262 41,000 107 450 0
2023-01-24 03:38:11 GMT 52.332733 -6.339493 41,025 107 451 -64
2023-01-24 03:38:09 GMT 52.332733 -6.339493 41,000 107 450 -64
2023-01-24 03:38:07 GMT 52.334259 -6.347430 41,000 107 451 -64
2023-01-24 03:38:04 GMT 52.336212 -6.357474 41,000 107 451 -64
2023-01-24 03:38:01 GMT 52.337769 -6.365509 41,025 107 451 -64
2023-01-24 03:37:58 GMT 52.339325 -6.373367 41,000 107 451 64
2023-01-24 03:37:55 GMT 52.341705 -6.385727 41,025 107 451 -64
2023-01-24 03:37:53 GMT 52.343307 -6.393967 41,000 107 452 128
2023-01-24 03:37:50 GMT 52.344589 -6.400604 41,000 107 452 128
2023-01-24 03:37:47 GMT 52.348434 -6.420593 41,000 107 452 0
2023-01-24 03:37:44 GMT 52.348434 -6.420593 41,000 107 453 -64
2023-01-24 03:37:41 GMT 52.350460 -6.431004 41,000 107 454 0
2023-01-24 03:37:38 GMT 52.351822 -6.438141 41,000 107 455 0
2023-01-24 03:37:35 GMT 52.356091 -6.460196 41,000 107 455 0
2023-01-24 03:37:32 GMT 52.358093 -6.470398 41,000 107 456 0
2023-01-24 03:37:29 GMT 52.358093 -6.470398 41,000 107 456 0
2023-01-24 03:37:27 GMT 52.358963 -6.475143 41,000 107 457 64
2023-01-24 03:37:24 GMT 52.361214 -6.486720 41,000 107 457 64
2023-01-24 03:37:22 GMT 52.362442 -6.493073 41,000 107 457 0
2023-01-24 03:37:19 GMT 52.364380 -6.503200 41,000 107 457 0
2023-01-24 03:37:17 GMT 52.365356 -6.508301 41,000 107 457 0
2023-01-24 03:37:14 GMT 52.368805 -6.526260 41,000 107 457 0
2023-01-24 03:37:12 GMT 52.368805 -6.526260 41,000 107 457 0
2023-01-24 03:37:09 GMT 52.370708 -6.536159 41,000 107 457 0
2023-01-24 03:37:07 GMT 52.371639 -6.541024 41,000 107 457 0
2023-01-24 03:37:04 GMT 52.374153 -6.554051 41,000 107 458 0
2023-01-24 03:37:01 GMT 52.375351 -6.560440 41,000 107 458 0
2023-01-24 03:36:59 GMT 52.376953 -6.568832 41,000 107 458 0
2023-01-24 03:36:57 GMT 52.378189 -6.575165 41,000 107 458 0
2023-01-24 03:36:54 GMT 52.380157 -6.585519 41,000 107 458 0
2023-01-24 03:36:51 GMT 52.381786 -6.594073 41,000 107 458 0
2023-01-24 03:36:48 GMT 52.383545 -6.603470 41,000 107 458 0
2023-01-24 03:36:45 GMT 52.387115 -6.622162 41,000 107 458 0
2023-01-24 03:36:43 GMT 52.387115 -6.622162 41,000 107 458 0
2023-01-24 03:36:40 GMT 52.388763 -6.630783 41,000 107 459 0
2023-01-24 03:36:37 GMT 52.391006 -6.642532 41,000 107 459 -64
2023-01-24 03:36:34 GMT 52.392792 -6.651993 41,000 107 459 0
2023-01-24 03:36:31 GMT 52.394588 -6.661403 41,000 107 459 0
2023-01-24 03:36:28 GMT 52.398239 -6.680450 41,000 107 459 64
2023-01-24 03:36:26 GMT 52.398239 -6.680450 41,000 107 459 0
2023-01-24 03:36:23 GMT 52.399887 -6.689072 41,000 107 460 0
2023-01-24 03:36:19 GMT 52.402130 -6.700718 41,000 107 461 -64
2023-01-24 03:36:17 GMT 52.403412 -6.707535 41,000 107 460 0
2023-01-24 03:36:14 GMT 52.405296 -6.717355 41,000 107 461 0
2023-01-24 03:36:09 GMT 52.408722 -6.735153 41,000 107 461 0
2023-01-24 03:36:06 GMT 52.410461 -6.744232 41,000 107 461 0
2023-01-24 03:36:04 GMT 52.412605 -6.755729 41,000 107 463 0
2023-01-24 03:35:59 GMT 52.415039 -6.768341 41,000 107 463 64
2023-01-24 03:35:56 GMT 52.416981 -6.778486 41,000 107 463 64
2023-01-24 03:35:54 GMT 52.418007 -6.784058 41,000 107 463 0
2023-01-24 03:35:49 GMT 52.421310 -6.801453 41,000 107 463 0
2023-01-24 03:35:47 GMT 52.422501 -6.807556 41,000 107 463 0
2023-01-24 03:35:44 GMT 52.424469 -6.818008 41,000 106 463 0
2023-01-24 03:35:39 GMT 52.427628 -6.835022 41,000 106 462 0
2023-01-24 03:35:36 GMT 52.431290 -6.854553 41,000 107 463 -64
2023-01-24 03:35:33 GMT 52.431290 -6.854553 41,000 107 463 -64
2023-01-24 03:35:29 GMT 52.434082 -6.868362 41,000 108 464 0
2023-01-24 03:35:25 GMT 52.437000 -6.881993 41,000 109 463 -64
2023-01-24 03:35:22 GMT 52.439026 -6.891098 41,000 110 463 0
2023-01-24 03:35:18 GMT 52.442276 -6.905441 41,000 110 463 0
2023-01-24 03:35:15 GMT 52.444473 -6.915054 41,000 110 463 0
2023-01-24 03:35:13 GMT 52.445705 -6.920288 41,000 110 463 64
2023-01-24 03:35:10 GMT 52.447891 -6.929940 41,000 110 463 0
2023-01-24 03:35:08 GMT 52.449383 -6.936375 41,000 110 463 0
2023-01-24 03:35:05 GMT 52.452084 -6.948146 41,000 110 463 -64
2023-01-24 03:35:03 GMT 52.453571 -6.954738 41,000 110 463 0
2023-01-24 03:35:00 GMT 52.455460 -6.962967 41,000 110 463 0
2023-01-24 03:34:57 GMT 52.457336 -6.971130 41,000 110 463 0
2023-01-24 03:34:54 GMT 52.460312 -6.984024 41,000 110 463 0
2023-01-24 03:34:51 GMT 52.462097 -6.992035 41,000 110 463 0
2023-01-24 03:34:48 GMT 52.464325 -7.001665 41,000 110 463 0
2023-01-24 03:34:45 GMT 52.467087 -7.013855 41,000 110 463 0
2023-01-24 03:34:43 GMT 52.468277 -7.018890 41,000 110 463 0
2023-01-24 03:34:40 GMT 52.470379 -7.028268 41,000 110 463 64
2023-01-24 03:34:37 GMT 52.472332 -7.036743 41,000 110 463 64
2023-01-24 03:34:34 GMT 52.474613 -7.046788 41,000 110 463 0
2023-01-24 03:34:32 GMT 52.476196 -7.053604 41,000 110 463 -64
2023-01-24 03:34:28 GMT 52.480042 -7.070465 41,000 110 462 0
2023-01-24 03:34:25 GMT 52.481365 -7.076294 41,000 110 462 0
2023-01-24 03:34:23 GMT 52.483154 -7.084122 41,000 110 462 0
2023-01-24 03:34:20 GMT 52.485508 -7.094421 41,000 110 462 0
2023-01-24 03:34:17 GMT 52.487789 -7.104466 41,000 110 462 0
2023-01-24 03:34:13 GMT 52.490723 -7.117257 41,000 110 462 0
2023-01-24 03:34:10 GMT 52.492722 -7.126125 41,000 110 461 0
2023-01-24 03:34:07 GMT 52.495003 -7.136248 41,000 110 461 0
2023-01-24 03:34:03 GMT 52.498589 -7.152021 41,000 110 461 0
2023-01-24 03:34:00 GMT 52.500820 -7.161830 41,000 110 461 0
2023-01-24 03:33:57 GMT 52.502426 -7.168884 41,000 110 461 0
2023-01-24 03:33:53 GMT 52.505665 -7.183097 41,000 110 462 0
2023-01-24 03:33:50 GMT 52.507481 -7.191101 41,000 110 461 0
2023-01-24 03:33:47 GMT 52.509338 -7.199402 41,000 110 461 0
2023-01-24 03:33:45 GMT 52.511673 -7.209625 41,000 110 462 0
2023-01-24 03:33:42 GMT 52.514183 -7.220843 41,000 110 462 0
2023-01-24 03:33:38 GMT 52.516605 -7.231594 41,000 110 462 0
2023-01-24 03:33:35 GMT 52.518513 -7.239912 41,000 110 462 0
2023-01-24 03:33:33 GMT 52.520645 -7.249527 41,000 110 462 0
2023-01-24 03:33:31 GMT 52.521446 -7.253017 41,000 110 461 0
2023-01-24 03:33:27 GMT 52.524948 -7.268524 41,000 110 461 0
2023-01-24 03:33:23 GMT 52.528152 -7.282715 41,000 110 461 0
2023-01-24 03:33:21 GMT 52.529221 -7.287467 41,000 110 461 0
2023-01-24 03:33:18 GMT 52.531448 -7.297516 41,000 110 461 0
2023-01-24 03:33:15 GMT 52.533501 -7.306458 41,000 110 461 64
2023-01-24 03:33:13 GMT 52.535385 -7.314835 41,000 110 461 0
2023-01-24 03:33:10 GMT 52.538727 -7.329559 41,000 110 461 0
2023-01-24 03:33:08 GMT 52.540924 -7.339249 41,000 110 461 0
2023-01-24 03:33:05 GMT 52.542812 -7.347735 41,000 110 461 0
2023-01-24 03:33:03 GMT 52.542812 -7.347735 41,000 110 461 0
2023-01-24 03:33:01 GMT 52.546070 -7.362174 41,000 110 461 0
2023-01-24 03:32:58 GMT 52.546070 -7.362174 41,000 110 461 0
2023-01-24 03:32:55 GMT 52.548340 -7.372284 41,000 110 461 0
2023-01-24 03:32:52 GMT 52.550587 -7.382185 41,000 110 461 0
2023-01-24 03:32:49 GMT 52.552357 -7.390111 41,000 110 461 0
2023-01-24 03:32:46 GMT 52.554916 -7.401489 41,000 110 462 0
2023-01-24 03:32:43 GMT 52.558823 -7.419128 41,000 110 462 0
2023-01-24 03:32:38 GMT 52.560829 -7.427856 41,000 110 462 0
2023-01-24 03:32:35 GMT 52.563065 -7.437901 41,000 110 462 0
2023-01-24 03:32:33 GMT 52.564926 -7.446376 41,000 110 462 0
2023-01-24 03:32:31 GMT 52.566559 -7.453537 41,000 110 462 0
2023-01-24 03:32:28 GMT 52.568207 -7.460861 41,000 110 462 0
2023-01-24 03:32:25 GMT 52.570496 -7.471161 41,000 110 463 0
2023-01-24 03:32:22 GMT 52.572701 -7.481062 41,000 110 463 0
2023-01-24 03:32:20 GMT 52.574661 -7.489853 41,000 110 463 0
2023-01-24 03:32:17 GMT 52.576035 -7.496033 41,000 110 463 0
2023-01-24 03:32:14 GMT 52.578426 -7.506801 41,000 110 463 0
2023-01-24 03:32:11 GMT 52.581528 -7.520599 41,000 110 463 0
2023-01-24 03:32:08 GMT 52.582989 -7.527204 41,000 110 463 0
2023-01-24 03:32:06 GMT 52.584152 -7.532384 41,000 110 463 64
2023-01-24 03:32:03 GMT 52.588341 -7.551139 41,000 110 464 64
2023-01-24 03:32:01 GMT 52.588341 -7.551139 41,000 110 464 64
2023-01-24 03:31:58 GMT 52.590225 -7.559509 41,000 110 464 0
2023-01-24 03:31:56 GMT 52.594070 -7.576828 41,000 110 464 0
2023-01-24 03:31:53 GMT 52.594070 -7.576828 41,000 110 464 0
2023-01-24 03:31:51 GMT 52.595581 -7.583542 41,000 110 464 0
2023-01-24 03:31:48 GMT 52.597549 -7.592392 41,000 110 464 0
2023-01-24 03:31:44 GMT 52.599979 -7.603559 41,000 110 464 0
2023-01-24 03:31:41 GMT 52.602493 -7.614859 41,000 110 464 0
2023-01-24 03:31:38 GMT 52.604782 -7.625122 41,000 110 464 0
2023-01-24 03:31:36 GMT 52.606293 -7.631836 41,000 110 464 0
2023-01-24 03:31:33 GMT 52.608776 -7.643110 41,000 110 464 0
2023-01-24 03:31:30 GMT 52.610779 -7.651978 41,000 110 464 0
2023-01-24 03:31:27 GMT 52.613060 -7.662336 41,000 110 464 0
2023-01-24 03:31:24 GMT 52.616364 -7.677325 41,000 109 463 0
2023-01-24 03:31:22 GMT 52.616364 -7.677325 41,000 109 463 0
2023-01-24 03:31:20 GMT 52.618694 -7.687683 41,000 110 464 -64
2023-01-24 03:31:16 GMT 52.621346 -7.699847 41,000 110 464 0
2023-01-24 03:31:13 GMT 52.623322 -7.708740 41,000 109 464 0
2023-01-24 03:31:11 GMT 52.624832 -7.715530 41,000 109 464 0
2023-01-24 03:31:08 GMT 52.627121 -7.725830 41,000 109 464 0
2023-01-24 03:31:05 GMT 52.629120 -7.735003 41,000 109 464 0
2023-01-24 03:31:03 GMT 52.632751 -7.751404 41,000 109 464 0
2023-01-24 03:31:00 GMT 52.632751 -7.751404 41,000 109 464 0
2023-01-24 03:30:57 GMT 52.634800 -7.760664 41,000 109 465 0
2023-01-24 03:30:55 GMT 52.636368 -7.767868 41,000 109 465 0
2023-01-24 03:30:53 GMT 52.637787 -7.774200 41,000 109 467 0
2023-01-24 03:30:51 GMT 52.639206 -7.780762 41,000 109 465 0
2023-01-24 03:30:48 GMT 52.641815 -7.792587 41,000 109 465 -64
2023-01-24 03:30:43 GMT 52.645134 -7.807670 41,000 109 465 64
2023-01-24 03:30:41 GMT 52.646576 -7.814026 41,000 109 465 64
2023-01-24 03:30:38 GMT 52.649090 -7.825483 41,000 109 465 0
2023-01-24 03:30:36 GMT 52.649837 -7.828936 41,000 109 465 0
2023-01-24 03:30:33 GMT 52.652710 -7.841873 41,000 109 465 0
2023-01-24 03:30:31 GMT 52.656494 -7.859148 41,000 109 465 0
2023-01-24 03:30:28 GMT 52.656494 -7.859148 41,000 109 465 0
2023-01-24 03:30:25 GMT 52.658028 -7.866211 41,000 109 466 0
2023-01-24 03:30:21 GMT 52.661289 -7.881042 41,000 109 466 0
2023-01-24 03:30:18 GMT 52.663475 -7.891087 41,000 109 466 0
2023-01-24 03:30:16 GMT 52.665337 -7.899484 41,000 109 466 0
2023-01-24 03:30:13 GMT 52.667175 -7.907867 41,000 109 466 0
2023-01-24 03:30:11 GMT 52.668732 -7.914886 41,000 109 466 0
2023-01-24 03:30:08 GMT 52.670784 -7.924282 41,000 109 466 0
2023-01-24 03:30:05 GMT 52.673206 -7.935503 41,000 109 466 0
2023-01-24 03:30:03 GMT 52.674408 -7.941055 41,000 109 466 0
2023-01-24 03:30:01 GMT 52.675919 -7.947845 41,000 109 466 0
2023-01-24 03:29:58 GMT 52.678093 -7.957947 41,000 109 467 0
2023-01-24 03:29:56 GMT 52.679211 -7.962969 41,000 109 467 0
2023-01-24 03:29:53 GMT 52.681824 -7.975006 41,000 109 467 0
2023-01-24 03:29:51 GMT 52.683308 -7.981881 41,000 109 467 0
2023-01-24 03:29:48 GMT 52.685349 -7.991257 41,000 109 467 0
2023-01-24 03:29:46 GMT 52.686520 -7.996556 41,000 109 467 0
2023-01-24 03:29:43 GMT 52.689011 -8.008194 41,000 109 467 0
2023-01-24 03:29:41 GMT 52.692764 -8.025360 41,000 109 467 0
2023-01-24 03:29:38 GMT 52.692764 -8.025360 41,000 109 468 0
2023-01-24 03:29:35 GMT 52.695190 -8.036423 41,000 109 468 0
2023-01-24 03:29:33 GMT 52.696247 -8.041364 41,000 109 468 0
2023-01-24 03:29:31 GMT 52.697739 -8.048113 41,000 109 468 0
2023-01-24 03:29:28 GMT 52.700020 -8.058550 41,000 109 468 0
2023-01-24 03:29:24 GMT 52.702469 -8.069992 41,000 109 469 0
2023-01-24 03:29:21 GMT 52.705559 -8.084133 41,000 109 469 0
2023-01-24 03:29:18 GMT 52.707466 -8.092922 41,000 109 469 0
2023-01-24 03:29:16 GMT 52.708511 -8.097687 41,000 109 469 0
2023-01-24 03:29:13 GMT 52.710800 -8.108444 41,000 109 469 0
2023-01-24 03:29:10 GMT 52.713055 -8.118740 41,000 109 469 0
2023-01-24 03:29:07 GMT 52.714645 -8.126144 41,000 109 470 0
2023-01-24 03:29:05 GMT 52.716591 -8.135062 41,000 109 470 0
2023-01-24 03:29:02 GMT 52.718407 -8.143537 41,000 109 470 0
2023-01-24 03:28:59 GMT 52.723343 -8.166295 41,000 109 470 0
2023-01-24 03:28:56 GMT 52.723343 -8.166295 41,000 109 470 0
2023-01-24 03:28:53 GMT 52.725586 -8.176575 41,000 109 470 0
2023-01-24 03:28:50 GMT 52.727371 -8.184891 41,000 109 471 0
2023-01-24 03:28:47 GMT 52.729210 -8.193368 41,000 109 471 0
2023-01-24 03:28:45 GMT 52.731033 -8.201828 41,000 109 471 0
2023-01-24 03:28:42 GMT 52.733185 -8.211670 41,000 109 471 -64
2023-01-24 03:28:39 GMT 52.735397 -8.221933 41,000 109 470 0
2023-01-24 03:28:36 GMT 52.737263 -8.230565 41,000 109 470 0
2023-01-24 03:28:33 GMT 52.740097 -8.243713 41,000 109 470 0
2023-01-24 03:28:29 GMT 52.742615 -8.255463 41,000 109 470 0
2023-01-24 03:28:26 GMT 52.745132 -8.267136 41,000 109 471 0
2023-01-24 03:28:23 GMT 52.747269 -8.277100 41,000 109 471 0
2023-01-24 03:28:20 GMT 52.751926 -8.298837 41,000 109 472 0
2023-01-24 03:28:17 GMT 52.751926 -8.298837 41,000 109 472 64
2023-01-24 03:28:14 GMT 52.753834 -8.307704 41,000 109 471 0
2023-01-24 03:28:10 GMT 52.756943 -8.322144 41,000 109 471 0
2023-01-24 03:28:06 GMT 52.759560 -8.334307 41,000 109 472 0
2023-01-24 03:28:03 GMT 52.762119 -8.346313 41,000 109 472 0
2023-01-24 03:28:00 GMT 52.763515 -8.352670 41,000 109 472 0
2023-01-24 03:27:57 GMT 52.765915 -8.363800 41,000 109 472 0
2023-01-24 03:27:55 GMT 52.767471 -8.371124 41,000 109 473 0
2023-01-24 03:27:52 GMT 52.769337 -8.379822 41,000 109 472 0
2023-01-24 03:27:50 GMT 52.770721 -8.386383 41,000 109 472 0
2023-01-24 03:27:47 GMT 52.773293 -8.398342 41,000 109 473 0
2023-01-24 03:27:43 GMT 52.775993 -8.410976 41,000 109 472 0
2023-01-24 03:27:40 GMT 52.778458 -8.422546 41,000 109 472 0
2023-01-24 03:27:37 GMT 52.780277 -8.430987 41,000 109 472 0
2023-01-24 03:27:35 GMT 52.781998 -8.439226 41,000 109 472 0
2023-01-24 03:27:32 GMT 52.784000 -8.448565 41,000 109 472 0
2023-01-24 03:27:30 GMT 52.785782 -8.456955 41,000 109 473 0
2023-01-24 03:27:27 GMT 52.787491 -8.464809 41,000 109 473 0
2023-01-24 03:27:23 GMT 52.790657 -8.479797 41,000 109 473 0
2023-01-24 03:27:20 GMT 52.793335 -8.492355 41,000 109 473 0
2023-01-24 03:27:17 GMT 52.797180 -8.510361 41,000 109 474 -64
2023-01-24 03:27:14 GMT 52.797180 -8.510361 41,000 109 473 0
2023-01-24 03:27:10 GMT 52.799595 -8.521859 41,000 109 473 -64
2023-01-24 03:27:07 GMT 52.802124 -8.533707 41,000 109 474 64
2023-01-24 03:27:05 GMT 52.804066 -8.542969 41,000 109 474 64
2023-01-24 03:27:02 GMT 52.807926 -8.560939 41,000 109 474 0
2023-01-24 03:27:00 GMT 52.809448 -8.568268 41,000 109 474 0
2023-01-24 03:26:57 GMT 52.809448 -8.568268 41,000 109 475 0
2023-01-24 03:26:55 GMT 52.810905 -8.575143 41,000 109 474 0
2023-01-24 03:26:52 GMT 52.813156 -8.585587 41,000 109 475 0
2023-01-24 03:26:49 GMT 52.815933 -8.598764 41,000 109 474 0
2023-01-24 03:26:46 GMT 52.817368 -8.605423 41,000 109 475 0
2023-01-24 03:26:44 GMT 52.818775 -8.612104 41,000 109 475 0
2023-01-24 03:26:42 GMT 52.820171 -8.618774 41,000 109 475 0
2023-01-24 03:26:39 GMT 52.822357 -8.629074 41,000 109 475 0
2023-01-24 03:26:36 GMT 52.827713 -8.654480 41,000 109 475 0
2023-01-24 03:26:32 GMT 52.827713 -8.654480 41,000 109 475 64
2023-01-24 03:26:29 GMT 52.829956 -8.665009 41,000 109 475 0
2023-01-24 03:26:26 GMT 52.831390 -8.671901 41,000 109 476 0
2023-01-24 03:26:24 GMT 52.833160 -8.680219 41,000 109 476 0
2023-01-24 03:26:22 GMT 52.834671 -8.687439 41,000 109 476 0
2023-01-24 03:26:20 GMT 52.836044 -8.694031 41,000 109 476 0
2023-01-24 03:26:17 GMT 52.838562 -8.705902 41,000 109 476 0
2023-01-24 03:26:14 GMT 52.840714 -8.716049 41,000 109 476 0
2023-01-24 03:26:11 GMT 52.843323 -8.728485 41,000 109 476 0
2023-01-24 03:26:07 GMT 52.846115 -8.741837 41,000 109 476 0
2023-01-24 03:26:04 GMT 52.847683 -8.749355 41,000 109 476 0
2023-01-24 03:26:00 GMT 52.850922 -8.764801 41,000 109 476 0
2023-01-24 03:25:57 GMT 52.852753 -8.773499 41,000 109 476 0
2023-01-24 03:25:52 GMT 52.856369 -8.790665 41,000 109 476 0
2023-01-24 03:25:49 GMT 52.858715 -8.801854 41,000 109 476 0
2023-01-24 03:25:46 GMT 52.860950 -8.812526 41,000 109 476 0
2023-01-24 03:25:43 GMT 52.862457 -8.819733 41,000 109 476 0
2023-01-24 03:25:41 GMT 52.867233 -8.842503 41,000 109 476 0
2023-01-24 03:25:37 GMT 52.867233 -8.842503 41,000 109 475 0
2023-01-24 03:25:35 GMT 52.868351 -8.847996 41,000 109 475 0
2023-01-24 03:25:32 GMT 52.870819 -8.859767 41,000 109 475 0
2023-01-24 03:25:27 GMT 52.874268 -8.876419 41,000 109 475 0
2023-01-24 03:25:25 GMT 52.875366 -8.881607 41,000 109 475 0
2023-01-24 03:25:22 GMT 52.877975 -8.894119 41,000 109 475 0
2023-01-24 03:25:19 GMT 52.882507 -8.915710 41,000 109 475 0
2023-01-24 03:25:16 GMT 52.882507 -8.915710 41,000 109 475 0
2023-01-24 03:25:13 GMT 52.883945 -8.922703 41,000 108 474 0
2023-01-24 03:25:11 GMT 52.885437 -8.929825 41,000 108 474 0
2023-01-24 03:25:07 GMT 52.888508 -8.944676 41,000 108 474 0
2023-01-24 03:25:04 GMT 52.890884 -8.955994 41,000 108 473 0
2023-01-24 03:25:01 GMT 52.892715 -8.964844 41,000 108 474 0
2023-01-24 03:24:59 GMT 52.894466 -8.973162 41,000 108 473 0
2023-01-24 03:24:56 GMT 52.896702 -8.983991 41,000 108 473 0
2023-01-24 03:24:53 GMT 52.898193 -8.991132 41,000 108 473 0
2023-01-24 03:24:51 GMT 52.900131 -9.000549 41,000 108 473 0
2023-01-24 03:24:47 GMT 52.903107 -9.014740 41,000 108 473 0
2023-01-24 03:24:44 GMT 52.904850 -9.023228 41,000 108 473 0
2023-01-24 03:24:41 GMT 52.907135 -9.034348 41,000 108 473 0
2023-01-24 03:24:39 GMT 52.908966 -9.043274 41,000 108 473 0
2023-01-24 03:24:36 GMT 52.910389 -9.050145 41,000 108 473 0
2023-01-24 03:24:33 GMT 52.914997 -9.072274 41,025 108 473 -64
2023-01-24 03:24:30 GMT 52.914997 -9.072274 41,000 108 472 -64
2023-01-24 03:24:27 GMT 52.917114 -9.082642 41,025 108 472 0
2023-01-24 03:24:24 GMT 52.919174 -9.092484 41,000 108 472 128
2023-01-24 03:24:22 GMT 52.920586 -9.099426 41,000 108 472 64
2023-01-24 03:24:19 GMT 52.922726 -9.109785 41,000 108 472 64
2023-01-24 03:24:16 GMT 52.924446 -9.118182 41,000 108 472 0
2023-01-24 03:24:13 GMT 52.927231 -9.131622 41,000 108 472 0
2023-01-24 03:24:10 GMT 52.929657 -9.143448 41,000 108 472 0
2023-01-24 03:24:06 GMT 52.931755 -9.153495 41,000 108 472 0
2023-01-24 03:24:03 GMT 52.935425 -9.171371 41,000 108 472 -64
2023-01-24 03:24:00 GMT 52.935425 -9.171371 41,000 108 472 -64
2023-01-24 03:23:57 GMT 52.938366 -9.185747 41,000 108 472 0
2023-01-24 03:23:55 GMT 52.939251 -9.189985 41,000 108 472 0
2023-01-24 03:23:52 GMT 52.941788 -9.202194 41,000 108 472 0
2023-01-24 03:23:49 GMT 52.943626 -9.211251 41,000 108 471 0
2023-01-24 03:23:46 GMT 52.945721 -9.221375 41,000 108 471 64
2023-01-24 03:23:43 GMT 52.947723 -9.231184 41,000 108 471 64
2023-01-24 03:23:41 GMT 52.948792 -9.236298 41,000 108 471 0
2023-01-24 03:23:36 GMT 52.952660 -9.255197 41,000 108 470 0
2023-01-24 03:23:33 GMT 52.954742 -9.265366 41,000 108 471 0
2023-01-24 03:23:31 GMT 52.955841 -9.270782 41,000 108 471 0
2023-01-24 03:23:29 GMT 52.957626 -9.279480 41,000 108 471 0
2023-01-24 03:23:26 GMT 52.959782 -9.290118 41,000 108 471 -64
2023-01-24 03:23:23 GMT 52.961784 -9.300005 41,000 108 470 -64
2023-01-24 03:23:20 GMT 52.963852 -9.310074 41,000 108 470 0
2023-01-24 03:23:16 GMT 52.966736 -9.324188 41,000 108 470 0
2023-01-24 03:23:14 GMT 52.968208 -9.331316 41,000 108 470 0
2023-01-24 03:23:12 GMT 52.969162 -9.336243 41,000 108 470 0
2023-01-24 03:23:09 GMT 52.971497 -9.347458 41,000 108 471 0
2023-01-24 03:23:05 GMT 52.973511 -9.357452 41,000 108 470 0
2023-01-24 03:23:03 GMT 52.975708 -9.368286 41,000 108 470 0
2023-01-24 03:23:00 GMT 52.977768 -9.378357 41,000 108 471 0
2023-01-24 03:22:56 GMT 52.980743 -9.392853 41,000 108 471 0
2023-01-24 03:22:53 GMT 52.982529 -9.401550 41,000 108 471 0
2023-01-24 03:22:51 GMT 52.983948 -9.408493 41,000 108 471 0
2023-01-24 03:22:46 GMT 52.987518 -9.426041 41,000 108 471 64
2023-01-24 03:22:43 GMT 52.989716 -9.436863 41,000 108 471 64
2023-01-24 03:22:41 GMT 52.990829 -9.442357 41,000 108 471 0
2023-01-24 03:22:37 GMT 52.993717 -9.456560 41,000 108 471 0
2023-01-24 03:22:34 GMT 52.996231 -9.468881 41,000 108 471 -64
2023-01-24 03:22:31 GMT 53.000519 -9.490051 41,000 108 471 0
2023-01-24 03:22:27 GMT 53.000519 -9.490051 41,000 108 471 0
2023-01-24 03:22:23 GMT 53.003174 -9.503174 41,000 108 471 0
2023-01-24 03:22:21 GMT 53.004658 -9.510550 41,000 108 471 0
2023-01-24 03:22:16 GMT 53.008759 -9.530869 41,000 108 471 0
2023-01-24 03:22:12 GMT 53.011223 -9.542960 41,000 108 471 0
2023-01-24 03:22:09 GMT 53.013611 -9.554901 41,000 108 471 0
2023-01-24 03:22:06 GMT 53.015736 -9.565325 41,000 108 471 0
2023-01-24 03:22:03 GMT 53.017044 -9.571915 41,000 108 471 0
2023-01-24 03:22:00 GMT 53.019413 -9.583766 41,000 108 471 0
2023-01-24 03:21:56 GMT 53.022533 -9.599226 41,000 108 471 0
2023-01-24 03:21:53 GMT 53.023975 -9.606367 41,000 108 471 0
2023-01-24 03:21:51 GMT 53.025055 -9.611816 41,000 108 471 0
2023-01-24 03:21:47 GMT 53.028122 -9.627075 41,000 108 471 0
2023-01-24 03:21:43 GMT 53.032310 -9.647879 41,000 108 471 0
2023-01-24 03:21:41 GMT 53.032310 -9.647879 41,000 108 471 0
2023-01-24 03:21:37 GMT 53.035149 -9.661926 41,000 108 471 0
2023-01-24 03:21:33 GMT 53.039757 -9.684919 41,000 108 470 0
2023-01-24 03:21:27 GMT 53.041901 -9.695748 41,000 108 470 0
2023-01-24 03:21:24 GMT 53.044365 -9.708147 41,000 108 470 0
2023-01-24 03:21:21 GMT 53.045998 -9.716230 41,000 108 470 0
2023-01-24 03:21:17 GMT 53.048904 -9.730606 41,000 108 470 0
2023-01-24 03:21:13 GMT 53.051193 -9.742203 41,000 108 470 0
2023-01-24 03:21:11 GMT 53.052841 -9.750366 41,000 108 470 0
2023-01-24 03:21:06 GMT 53.056046 -9.766541 41,000 108 472 0
2023-01-24 03:21:03 GMT 53.058105 -9.776840 41,000 108 471 0
2023-01-24 03:21:01 GMT 53.059681 -9.784659 41,000 108 471 0
2023-01-24 03:20:57 GMT 53.062775 -9.800262 41,000 108 471 0
2023-01-24 03:20:53 GMT 53.066525 -9.819109 41,000 108 471 0
2023-01-24 03:20:51 GMT 53.066525 -9.819109 41,000 108 471 0
2023-01-24 03:20:47 GMT 53.069412 -9.833627 41,000 108 471 0
2023-01-24 03:20:44 GMT 53.071564 -9.844360 41,000 108 471 0
2023-01-24 03:20:41 GMT 53.073601 -9.854579 41,000 108 471 0
2023-01-24 03:20:35 GMT 53.077927 -9.876404 41,000 108 471 0
2023-01-24 03:20:32 GMT 53.079372 -9.883615 41,000 108 471 0
2023-01-24 03:20:30 GMT 53.080769 -9.890599 41,000 108 471 0
2023-01-24 03:20:27 GMT 53.082870 -9.901123 41,000 108 472 0
2023-01-24 03:20:24 GMT 53.085052 -9.912258 41,000 108 472 0
2023-01-24 03:20:21 GMT 53.087814 -9.926147 41,000 108 472 0
2023-01-24 03:20:16 GMT 53.090221 -9.938311 41,000 108 472 0
2023-01-24 03:20:13 GMT 53.094688 -9.960911 41,000 108 472 0
2023-01-24 03:20:10 GMT 53.094688 -9.960911 41,000 108 472 0
2023-01-24 03:20:04 GMT 53.098694 -9.981321 41,000 108 473 0
2023-01-24 03:20:00 GMT 53.101440 -9.995135 41,000 108 473 0
2023-01-24 03:19:56 GMT 53.104790 -10.012342 41,000 108 473 0
2023-01-24 03:19:52 GMT 53.106747 -10.022278 41,000 108 473 0
2023-01-24 03:19:49 GMT 53.108459 -10.030831 41,000 108 473 0
2023-01-24 03:19:46 GMT 53.110935 -10.043443 41,000 108 473 0
2023-01-24 03:19:42 GMT 53.113682 -10.057499 41,000 108 473 0
2023-01-24 03:19:39 GMT 53.115189 -10.065046 41,000 108 473 0
2023-01-24 03:19:36 GMT 53.117500 -10.076725 41,000 108 473 0
2023-01-24 03:19:33 GMT 53.120270 -10.090864 41,000 108 473 0
2023-01-24 03:19:30 GMT 53.122284 -10.101222 41,000 107 474 0
2023-01-24 03:19:26 GMT 53.124207 -10.111032 41,000 108 474 0
2023-01-24 03:19:22 GMT 53.127228 -10.126334 41,000 108 474 0
2023-01-24 03:19:19 GMT 53.129013 -10.135437 41,000 108 474 0
2023-01-24 03:19:15 GMT 53.132080 -10.151210 41,000 108 474 0
2023-01-24 03:19:12 GMT 53.133820 -10.160078 41,000 108 474 0
2023-01-24 03:19:09 GMT 53.135937 -10.170836 41,000 108 474 0
2023-01-24 03:19:06 GMT 53.137890 -10.180853 41,000 108 474 0
2023-01-24 03:19:03 GMT 53.140171 -10.192485 41,000 108 474 0
2023-01-24 03:18:59 GMT 53.142700 -10.205357 41,000 108 474 0
2023-01-24 03:18:56 GMT 53.144733 -10.215831 41,000 107 474 0
2023-01-24 03:18:52 GMT 53.147324 -10.228978 41,000 107 474 0
2023-01-24 03:18:49 GMT 53.149670 -10.241035 41,000 107 473 0
2023-01-24 03:18:46 GMT 53.151443 -10.250087 41,000 107 474 0
2023-01-24 03:18:43 GMT 53.153687 -10.261780 41,000 107 474 0
2023-01-24 03:18:41 GMT 53.155022 -10.268501 41,000 107 473 0
2023-01-24 03:18:38 GMT 53.156570 -10.276533 41,000 107 473 0
2023-01-24 03:18:36 GMT 53.160645 -10.297642 41,000 107 474 0
2023-01-24 03:18:32 GMT 53.160645 -10.297642 41,000 107 474 0
2023-01-24 03:18:29 GMT 53.167076 -10.330622 41,000 107 473 0
2023-01-24 03:18:23 GMT 53.167076 -10.330622 41,000 107 474 0
2023-01-24 03:18:21 GMT 53.168106 -10.335938 41,000 107 473 0
2023-01-24 03:18:18 GMT 53.170532 -10.348336 41,000 107 473 0
2023-01-24 03:18:13 GMT 53.173691 -10.364816 41,000 107 473 0
2023-01-24 03:18:11 GMT 53.175037 -10.371740 41,000 107 473 0
2023-01-24 03:18:08 GMT 53.177032 -10.382002 41,000 107 473 0
2023-01-24 03:18:03 GMT 53.180374 -10.399344 41,000 107 473 0
2023-01-24 03:18:01 GMT 53.181976 -10.407607 41,000 107 473 0
2023-01-24 03:17:58 GMT 53.183624 -10.416295 41,000 107 473 0
2023-01-24 03:17:52 GMT 53.187378 -10.435756 41,000 107 473 0
2023-01-24 03:17:49 GMT 53.189751 -10.447998 41,000 107 473 0
2023-01-24 03:17:47 GMT 53.190628 -10.452785 41,000 107 472 0
2023-01-24 03:17:43 GMT 53.193939 -10.469728 41,000 107 472 0
2023-01-24 03:17:39 GMT 53.196304 -10.482213 41,000 107 472 0
2023-01-24 03:17:33 GMT 53.200642 -10.504626 41,000 107 473 0
2023-01-24 03:17:31 GMT 53.201797 -10.510699 41,000 107 473 0
2023-01-24 03:17:28 GMT 53.204086 -10.522705 41,000 107 473 0
2023-01-24 03:17:23 GMT 53.207062 -10.538164 41,000 107 473 0
2023-01-24 03:17:21 GMT 53.208462 -10.545502 41,000 107 473 0
2023-01-24 03:17:18 GMT 53.210373 -10.555438 41,000 107 473 0
2023-01-24 03:17:15 GMT 53.212280 -10.565316 41,000 107 473 0
2023-01-24 03:17:12 GMT 53.214340 -10.576067 41,000 107 473 0
2023-01-24 03:17:09 GMT 53.216400 -10.586740 41,000 107 473 0
2023-01-24 03:17:06 GMT 53.218414 -10.597412 41,000 107 473 0
2023-01-24 03:17:03 GMT 53.220474 -10.608188 41,000 107 473 0
2023-01-24 03:16:59 GMT 53.223175 -10.622445 41,000 107 474 0
2023-01-24 03:16:56 GMT 53.225082 -10.632342 41,000 107 474 0
2023-01-24 03:16:52 GMT 53.227707 -10.646066 41,000 107 474 0
2023-01-24 03:16:49 GMT 53.229832 -10.657304 41,000 107 474 0
2023-01-24 03:16:46 GMT 53.231693 -10.667078 41,000 107 474 0
2023-01-24 03:16:42 GMT 53.234299 -10.680673 41,000 107 474 0
2023-01-24 03:16:38 GMT 53.237373 -10.696725 41,000 107 474 0
2023-01-24 03:16:35 GMT 53.238968 -10.705235 41,000 107 474 0
2023-01-24 03:16:32 GMT 53.240864 -10.715224 41,000 107 474 64
2023-01-24 03:16:30 GMT 53.244450 -10.733966 41,000 107 475 64
2023-01-24 03:16:27 GMT 53.244450 -10.733966 41,000 107 475 0
2023-01-24 03:16:22 GMT 53.247208 -10.748474 41,000 107 475 -64
2023-01-24 03:16:19 GMT 53.249523 -10.760866 41,000 107 475 0
2023-01-24 03:16:16 GMT 53.251339 -10.770479 41,000 107 475 0
2023-01-24 03:16:11 GMT 53.254395 -10.786298 41,000 107 474 0
2023-01-24 03:16:08 GMT 53.256866 -10.799482 41,000 107 474 0
2023-01-24 03:16:06 GMT 53.258011 -10.805368 41,000 107 475 0
2023-01-24 03:16:02 GMT 53.261261 -10.822632 41,000 107 475 0
2023-01-24 03:15:59 GMT 53.263092 -10.832363 41,000 107 474 0
2023-01-24 03:15:56 GMT 53.264511 -10.839951 41,000 107 474 0
2023-01-24 03:15:53 GMT 53.266792 -10.851988 41,000 107 474 0
2023-01-24 03:15:48 GMT 53.269726 -10.867660 41,000 107 474 0
2023-01-24 03:15:45 GMT 53.271423 -10.876622 41,000 107 474 0
2023-01-24 03:15:42 GMT 53.273666 -10.888393 41,000 107 474 0
2023-01-24 03:15:39 GMT 53.277878 -10.910915 41,000 107 474 0
2023-01-24 03:15:36 GMT 53.277878 -10.910915 41,000 107 474 0
2023-01-24 03:15:29 GMT 53.282547 -10.935713 41,000 107 474 0
2023-01-24 03:15:26 GMT 53.284576 -10.946583 41,000 107 473 0
2023-01-24 03:15:21 GMT 53.289459 -10.972517 41,000 107 474 0
2023-01-24 03:15:18 GMT 53.291748 -10.984837 41,000 107 473 0
2023-01-24 03:15:15 GMT 53.291748 -10.984837 41,000 107 474 0
2023-01-24 03:15:09 GMT 53.297150 -11.013715 41,000 107 473 0
2023-01-24 03:15:06 GMT 53.297150 -11.013715 41,000 107 473 0
2023-01-24 03:15:02 GMT 53.299564 -11.026638 41,000 107 473 0
2023-01-24 03:14:58 GMT 53.302544 -11.042552 41,000 107 474 0
2023-01-24 03:14:55 GMT 53.304565 -11.053345 41,000 107 474 0
2023-01-24 03:14:48 GMT 53.309052 -11.077515 41,000 107 473 0
2023-01-24 03:14:44 GMT 53.311298 -11.089567 41,000 107 473 0
2023-01-24 03:14:40 GMT 53.314087 -11.104431 41,000 107 473 0
2023-01-24 03:14:37 GMT 53.315872 -11.114162 41,000 107 473 0
2023-01-24 03:14:34 GMT 53.317768 -11.124223 41,000 107 473 0
2023-01-24 03:14:31 GMT 53.320469 -11.138844 41,000 107 473 0
2023-01-24 03:14:27 GMT 53.322376 -11.149184 41,000 107 473 0
2023-01-24 03:14:23 GMT 53.324844 -11.162345 41,000 107 473 0
2023-01-24 03:14:20 GMT 53.327030 -11.174146 41,000 107 473 0
2023-01-24 03:14:17 GMT 53.328709 -11.183193 41,000 107 472 0
2023-01-24 03:14:14 GMT 53.331036 -11.195715 41,000 107 473 0
2023-01-24 03:14:10 GMT 53.333691 -11.210175 41,000 107 473 0
2023-01-24 03:14:07 GMT 53.335411 -11.219464 41,000 107 474 0
2023-01-24 03:14:04 GMT 53.337433 -11.230460 41,000 107 473 0
2023-01-24 03:14:00 GMT 53.340088 -11.244742 41,000 107 472 -64
2023-01-24 03:13:57 GMT 53.341557 -11.252666 41,000 107 472 0
2023-01-24 03:13:53 GMT 53.344070 -11.266399 41,000 107 472 0
2023-01-24 03:13:50 GMT 53.346539 -11.279728 41,000 107 473 0
2023-01-24 03:13:47 GMT 53.348305 -11.289179 41,000 107 473 0
2023-01-24 03:13:43 GMT 53.350773 -11.302670 41,000 107 474 0
2023-01-24 03:13:38 GMT 53.354370 -11.322196 41,000 107 473 -64
2023-01-24 03:13:33 GMT 53.357243 -11.337810 41,000 107 473 64
2023-01-24 03:13:27 GMT 53.361015 -11.358409 41,000 107 473 0
2023-01-24 03:13:23 GMT 53.363571 -11.372341 41,000 107 473 0
2023-01-24 03:13:20 GMT 53.365906 -11.385053 41,000 107 473 0
2023-01-24 03:13:17 GMT 53.367859 -11.395650 41,000 107 473 0
2023-01-24 03:13:13 GMT 53.370346 -11.409380 41,000 107 473 0
2023-01-24 03:13:09 GMT 53.372681 -11.422093 41,000 107 473 0
2023-01-24 03:13:06 GMT 53.374607 -11.432486 41,000 107 473 0
2023-01-24 03:13:03 GMT 53.376610 -11.443634 41,000 107 473 0
2023-01-24 03:12:58 GMT 53.380241 -11.463426 41,000 106 473 0
2023-01-24 03:12:55 GMT 53.382248 -11.474513 41,000 106 473 0
2023-01-24 03:12:52 GMT 53.383545 -11.481440 41,000 106 473 0
2023-01-24 03:12:47 GMT 53.386780 -11.499390 41,000 106 472 0
2023-01-24 03:12:42 GMT 53.389755 -11.515712 41,000 106 473 0
2023-01-24 03:12:38 GMT 53.392715 -11.532090 41,000 106 473 0
2023-01-24 03:12:32 GMT 53.396072 -11.550476 41,000 106 472 0
2023-01-24 03:12:27 GMT 53.399414 -11.568996 41,000 106 472 0
2023-01-24 03:12:22 GMT 53.402710 -11.586966 41,000 106 472 0
2023-01-24 03:12:19 GMT 53.404587 -11.597325 41,000 106 472 0
2023-01-24 03:12:16 GMT 53.406326 -11.606977 41,000 106 472 0
2023-01-24 03:12:12 GMT 53.409119 -11.622280 41,000 106 472 0
2023-01-24 03:12:09 GMT 53.410995 -11.632795 41,000 106 472 0
2023-01-24 03:12:06 GMT 53.412643 -11.641976 41,000 106 471 0
2023-01-24 03:12:02 GMT 53.415249 -11.656333 41,000 106 472 0
2023-01-24 03:11:58 GMT 53.417667 -11.669823 41,000 106 471 0
2023-01-24 03:11:54 GMT 53.420509 -11.685495 41,000 106 471 0
2023-01-24 03:11:51 GMT 53.422211 -11.695025 41,000 106 472 0
2023-01-24 03:11:47 GMT 53.424511 -11.707791 41,000 106 472 0
2023-01-24 03:11:44 GMT 53.426971 -11.721392 41,000 106 471 0
2023-01-24 03:11:39 GMT 53.430130 -11.738970 41,000 106 471 0
2023-01-24 03:11:33 GMT 53.433243 -11.756156 41,000 106 472 0
2023-01-24 03:11:29 GMT 53.436382 -11.773789 41,000 106 470 0
2023-01-24 03:11:26 GMT 53.437637 -11.780797 41,000 106 471 0
2023-01-24 03:11:21 GMT 53.440750 -11.798139 41,000 106 471 0
2023-01-24 03:11:16 GMT 53.443737 -11.814827 41,000 106 470 0
2023-01-24 03:11:11 GMT 53.447296 -11.834708 41,000 106 470 0
2023-01-24 03:11:06 GMT 53.450256 -11.851340 41,000 106 470 0
2023-01-24 03:11:01 GMT 53.453606 -11.870001 41,000 106 470 0
2023-01-24 03:10:56 GMT 53.456772 -11.887773 41,000 106 470 0
2023-01-24 03:10:51 GMT 53.459751 -11.904656 41,000 106 470 0
2023-01-24 03:10:47 GMT 53.462219 -11.918550 41,000 106 470 -64
2023-01-24 03:10:41 GMT 53.466316 -11.941412 41,000 106 470 0
2023-01-24 03:10:38 GMT 53.467667 -11.949086 41,000 106 470 0
2023-01-24 03:10:33 GMT 53.471329 -11.969604 41,000 106 470 0
2023-01-24 03:10:30 GMT 53.472610 -11.976824 41,000 106 470 0
2023-01-24 03:10:26 GMT 53.474716 -11.988831 41,000 106 471 0
2023-01-24 03:10:20 GMT 53.478745 -12.011588 41,000 106 471 0
2023-01-24 03:10:15 GMT 53.481491 -12.026969 41,000 106 471 -64
2023-01-24 03:10:12 GMT 53.483772 -12.039885 41,000 106 471 -64
2023-01-24 03:10:09 GMT 53.485291 -12.048392 41,000 106 471 0
2023-01-24 03:10:06 GMT 53.487534 -12.061262 41,000 106 471 0
2023-01-24 03:10:02 GMT 53.490105 -12.075752 41,000 106 471 0
2023-01-24 03:09:59 GMT 53.491653 -12.084333 41,000 106 471 0
2023-01-24 03:09:55 GMT 53.493942 -12.097281 41,000 106 471 0
2023-01-24 03:09:50 GMT 53.497879 -12.119536 41,000 106 472 0
2023-01-24 03:09:46 GMT 53.499710 -12.129926 41,000 106 472 0
2023-01-24 03:09:41 GMT 53.503098 -12.149074 41,000 106 472 0
2023-01-24 03:09:37 GMT 53.505478 -12.162807 41,000 106 472 0
2023-01-24 03:09:34 GMT 53.507263 -12.172852 41,000 106 472 0
2023-01-24 03:09:29 GMT 53.510307 -12.190543 41,000 106 472 0
2023-01-24 03:09:25 GMT 53.512802 -12.204712 41,000 106 472 0
2023-01-24 03:09:21 GMT 53.514961 -12.217120 41,000 106 472 0
2023-01-24 03:09:18 GMT 53.516872 -12.227864 41,000 106 472 0
2023-01-24 03:09:15 GMT 53.518688 -12.238366 41,000 106 472 0
2023-01-24 03:09:12 GMT 53.521107 -12.251937 41,000 106 472 0
2023-01-24 03:09:09 GMT 53.522877 -12.262035 41,000 106 472 0
2023-01-24 03:09:05 GMT 53.525066 -12.274798 41,000 106 471 0
2023-01-24 03:09:01 GMT 53.527672 -12.289743 41,000 106 471 0
2023-01-24 03:08:58 GMT 53.529255 -12.298952 41,000 106 471 0
2023-01-24 03:08:55 GMT 53.530884 -12.308161 41,000 106 470 0
2023-01-24 03:08:51 GMT 53.533722 -12.324560 41,000 106 470 0
2023-01-24 03:08:48 GMT 53.535233 -12.333330 41,000 106 470 0
2023-01-24 03:08:45 GMT 53.537064 -12.343924 41,000 106 470 0
2023-01-24 03:08:38 GMT 53.541550 -12.369664 41,000 106 470 0
2023-01-24 03:08:33 GMT 53.544430 -12.386277 41,000 106 470 0
2023-01-24 03:08:30 GMT 53.546200 -12.396617 41,000 106 470 0
2023-01-24 03:08:25 GMT 53.549316 -12.414551 41,000 106 469 0
2023-01-24 03:08:21 GMT 53.551895 -12.429382 41,000 106 469 0
2023-01-24 03:08:18 GMT 53.554161 -12.442421 41,000 106 469 0
2023-01-24 03:08:15 GMT 53.555420 -12.449707 41,000 106 469 0
2023-01-24 03:08:10 GMT 53.558258 -12.466251 41,000 106 469 0
2023-01-24 03:08:07 GMT 53.560024 -12.476510 41,000 106 469 0
2023-01-24 03:08:04 GMT 53.561981 -12.487578 41,000 106 469 0
2023-01-24 03:08:01 GMT 53.564308 -12.501310 41,000 106 469 0
2023-01-24 03:07:57 GMT 53.566311 -12.512781 41,000 106 469 0
2023-01-24 03:07:54 GMT 53.567799 -12.521587 41,000 106 469 0
2023-01-24 03:07:50 GMT 53.570221 -12.535562 41,000 106 468 0
2023-01-24 03:07:47 GMT 53.572407 -12.548406 41,000 106 468 0
2023-01-24 03:07:44 GMT 53.574005 -12.557765 41,000 106 468 0
2023-01-24 03:07:40 GMT 53.576504 -12.572237 41,000 106 468 0
2023-01-24 03:07:34 GMT 53.579636 -12.590411 41,000 106 468 0
2023-01-24 03:07:27 GMT 53.584511 -12.618848 41,000 106 468 0
2023-01-24 03:07:24 GMT 53.585629 -12.625391 41,000 105 468 0
2023-01-24 03:07:19 GMT 53.588703 -12.643567 41,000 105 468 0
2023-01-24 03:07:14 GMT 53.591675 -12.660723 41,000 105 468 0
2023-01-24 03:07:09 GMT 53.594662 -12.678223 41,000 105 468 -64
2023-01-24 03:07:05 GMT 53.597641 -12.695591 41,000 105 468 0
2023-01-24 03:07:00 GMT 53.600464 -12.712280 41,000 105 468 0
2023-01-24 03:06:54 GMT 53.603577 -12.730643 41,000 105 468 0
2023-01-24 03:06:50 GMT 53.606949 -12.750361 41,000 105 468 0
2023-01-24 03:06:46 GMT 53.609253 -12.763994 41,000 105 467 0
2023-01-24 03:06:39 GMT 53.612869 -12.785339 41,000 105 467 -64
2023-01-24 03:06:35 GMT 53.614864 -12.797214 41,025 105 467 -64
2023-01-24 03:06:29 GMT 53.618729 -12.819946 41,025 105 467 -64
2023-01-24 03:06:25 GMT 53.620823 -12.832435 41,025 105 468 -64
2023-01-24 03:06:19 GMT 53.624779 -12.855700 41,025 105 468 0
2023-01-24 03:06:14 GMT 53.629395 -12.883039 41,000 105 469 64
2023-01-24 03:06:09 GMT 53.630676 -12.890730 40,975 105 470 64
2023-01-24 03:06:05 GMT 53.632782 -12.903128 40,975 105 471 128
2023-01-24 03:05:58 GMT 53.637070 -12.928889 41,000 105 472 0
2023-01-24 03:05:45 GMT 53.647156 -12.988586 41,000 105 472 0
2023-01-24 03:05:31 GMT 53.655167 -13.036691 41,000 105 472 64
2023-01-24 03:05:19 GMT 53.664734 -13.094212 41,000 105 473 0
2023-01-24 03:05:07 GMT 53.667652 -13.111698 41,000 105 473 0
2023-01-24 03:05:04 GMT 53.668865 -13.118888 41,000 105 473 0
2023-01-24 03:04:57 GMT 53.672928 -13.143415 41,000 105 473 0
2023-01-24 03:04:53 GMT 53.675217 -13.157305 41,000 105 473 0
2023-01-24 03:04:48 GMT 53.678558 -13.177159 41,000 105 473 64
2023-01-24 03:04:44 GMT 53.680737 -13.190460 41,000 105 473 0
2023-01-24 03:04:32 GMT 53.689819 -13.245353 41,000 105 474 0
2023-01-24 03:04:27 GMT 53.690975 -13.252339 41,000 105 474 0
2023-01-24 03:04:17 GMT 53.698006 -13.294830 41,000 105 474 0
2023-01-24 03:04:14 GMT 53.698658 -13.298789 41,000 105 474 0
2023-01-24 03:04:05 GMT 53.705643 -13.341199 41,000 105 474 0
2023-01-24 03:03:56 GMT 53.708633 -13.359532 41,000 105 474 0
2023-01-24 03:03:46 GMT 53.714401 -13.394688 41,000 105 474 0
2023-01-24 03:03:36 GMT 53.720119 -13.429574 41,000 105 473 64
2023-01-24 03:03:31 GMT 53.723049 -13.447508 41,000 105 473 64
2023-01-24 03:03:27 GMT 53.725845 -13.464687 41,000 105 474 0
2023-01-24 03:03:22 GMT 53.728546 -13.481323 41,000 105 474 0
2023-01-24 03:03:17 GMT 53.732269 -13.504055 41,000 105 472 0
2023-01-24 03:03:06 GMT 53.738834 -13.544527 41,000 105 472 0
2023-01-24 03:02:54 GMT 53.747677 -13.599216 41,000 105 472 0
2023-01-24 03:02:46 GMT 53.749374 -13.609785 41,000 105 472 0
2023-01-24 03:02:42 GMT 53.751617 -13.623596 41,000 105 471 0
2023-01-24 03:02:36 GMT 53.754986 -13.644212 41,000 105 471 0
2023-01-24 03:02:32 GMT 53.757267 -13.658591 41,000 105 471 0
2023-01-24 03:02:25 GMT 53.761322 -13.683629 41,000 105 472 0
2023-01-24 03:02:10 GMT 53.771561 -13.747289 41,000 105 472 0
2023-01-24 03:02:06 GMT 53.772720 -13.754569 41,000 105 472 -64
2023-01-24 03:01:55 GMT 53.778351 -13.789804 41,000 105 472 0
2023-01-24 03:01:45 GMT 53.784027 -13.825352 41,000 105 472 64
2023-01-24 03:01:32 GMT 53.793625 -13.885426 41,000 105 474 0
2023-01-24 03:01:24 GMT 53.795609 -13.897940 41,000 105 474 0
2023-01-24 03:01:17 GMT 53.800095 -13.926191 41,000 105 474 0
2023-01-24 03:01:13 GMT 53.801865 -13.937369 41,000 104 473 0
2023-01-24 03:01:07 GMT 53.805496 -13.960170 41,000 104 473 -64
2023-01-24 03:01:04 GMT 53.807079 -13.970328 41,000 104 473 -64
2023-01-24 03:00:55 GMT 53.812775 -14.006313 41,025 104 472 0
2023-01-24 03:00:47 GMT 53.816669 -14.031076 41,000 104 472 0
2023-01-24 03:00:44 GMT 53.818359 -14.041626 41,000 104 472 0
2023-01-24 03:00:34 GMT 53.824207 -14.078495 41,000 104 473 0
2023-01-24 03:00:26 GMT 53.828522 -14.106053 41,000 104 473 64
2023-01-24 03:00:23 GMT 53.829987 -14.115391 41,000 104 473 64
2023-01-24 03:00:13 GMT 53.835613 -14.151198 41,000 104 473 0
2023-01-24 03:00:03 GMT 53.841106 -14.186500 41,000 104 472 0
2023-01-24 02:59:59 GMT 53.843948 -14.204538 41,000 104 471 64
2023-01-24 02:59:53 GMT 53.846786 -14.222900 41,000 104 470 0
2023-01-24 02:59:43 GMT 53.852280 -14.258396 40,975 104 469 192
2023-01-24 02:59:35 GMT 53.856609 -14.285943 40,925 104 470 704
2023-01-24 02:59:32 GMT 53.858276 -14.296744 40,900 104 470 704
2023-01-24 02:59:23 GMT 53.863640 -14.331342 40,775 104 470 640
2023-01-24 02:59:12 GMT 53.869263 -14.367763 40,675 104 470 640
2023-01-24 02:59:02 GMT 53.874996 -14.405096 40,550 104 470 640
2023-01-24 02:58:55 GMT 53.878956 -14.430784 40,475 104 470 640
2023-01-24 02:58:51 GMT 53.881050 -14.444356 40,450 104 470 640
2023-01-24 02:58:45 GMT 53.884869 -14.469156 40,375 104 470 576
2023-01-24 02:58:40 GMT 53.887150 -14.483858 40,325 104 470 576
2023-01-24 02:58:32 GMT 53.891464 -14.512233 40,275 104 468 384
2023-01-24 02:58:23 GMT 53.896866 -14.547782 40,200 104 467 576
2023-01-24 02:58:12 GMT 53.902084 -14.581996 40,100 104 467 640
2023-01-24 02:58:02 GMT 53.908005 -14.620864 40,025 104 466 128
2023-01-24 02:57:54 GMT 53.912292 -14.648935 40,000 104 466 0
2023-01-24 02:57:51 GMT 53.913448 -14.656570 40,000 104 466 0
2023-01-24 02:57:42 GMT 53.918747 -14.691781 40,000 104 467 0
2023-01-24 02:57:31 GMT 53.924194 -14.727565 40,000 104 467 -64
2023-01-24 02:57:21 GMT 53.929462 -14.762636 40,000 104 468 0
2023-01-24 02:57:12 GMT 53.934723 -14.797485 40,000 104 469 0
2023-01-24 02:57:07 GMT 53.936867 -14.811913 40,000 104 469 0
2023-01-24 02:57:01 GMT 53.940220 -14.834290 40,000 104 469 0
2023-01-24 02:56:56 GMT 53.942963 -14.852546 40,000 104 469 0
2023-01-24 02:56:51 GMT 53.945946 -14.872095 40,000 104 470 0
2023-01-24 02:56:48 GMT 53.946991 -14.879098 40,000 104 470 0
2023-01-24 02:56:39 GMT 53.952255 -14.914176 40,000 103 470 0
2023-01-24 02:56:29 GMT 53.957024 -14.950535 40,000 101 472 0
2023-01-24 02:56:20 GMT 53.960266 -14.979309 40,000 99 472 0
We lost coverage of the aircraft here for a total of 146 minutes
2023-01-24 00:29:51 GMT 48.716667 -46.683334 39,000 70 520
2023-01-24 00:28:51 GMT 48.666668 -46.883331 39,000 71 520
2023-01-24 00:26:51 GMT 48.566666 -47.283333 39,000 72 520
2023-01-24 00:25:50 GMT 48.533333 -47.500000 39,000 75 520
2023-01-24 00:24:50 GMT 48.483334 -47.716667 39,000 77 520
2023-01-24 00:23:51 GMT 48.433334 -47.916668 39,000 77 530
2023-01-24 00:22:55 GMT 48.416668 -48.183334 39,000 72 530
2023-01-24 00:21:56 GMT 48.383331 -48.416668 39,000 69 530
2023-01-24 00:20:56 GMT 48.333332 -48.616669 39,000 69 530
We lost coverage of the aircraft here for a total of 7 minutes
2023-01-24 00:13:45 GMT 47.984985 -50.082001 39,000 74 548 0
2023-01-24 00:13:37 GMT 47.978970 -50.114910 39,000 74 550 0
2023-01-24 00:13:34 GMT 47.976837 -50.126289 39,000 74 550 0
2023-01-24 00:13:22 GMT 47.969696 -50.164948 39,000 74 551 0
2023-01-24 00:13:12 GMT 47.962372 -50.204498 39,000 74 552 0
2023-01-24 00:13:01 GMT 47.954956 -50.244324 39,000 74 554 0
2023-01-24 00:12:49 GMT 47.947502 -50.284492 39,000 74 555 0
2023-01-24 00:12:41 GMT 47.941078 -50.319141 39,000 74 557 0
2023-01-24 00:12:29 GMT 47.933853 -50.357826 39,000 74 558 0
2023-01-24 00:12:20 GMT 47.926880 -50.395061 39,000 74 559 0
2023-01-24 00:12:08 GMT 47.918610 -50.439194 39,000 74 560 0
2023-01-24 00:11:57 GMT 47.911423 -50.477390 39,000 74 562 0
2023-01-24 00:11:47 GMT 47.904114 -50.516335 39,000 74 563 0
2023-01-24 00:11:37 GMT 47.896713 -50.555561 39,000 74 565 64
2023-01-24 00:11:25 GMT 47.889263 -50.595139 39,000 74 566 64
2023-01-24 00:11:16 GMT 47.882126 -50.632759 39,000 74 567 0
2023-01-24 00:11:04 GMT 47.874043 -50.675495 39,000 74 567 0
2023-01-24 00:10:54 GMT 47.866425 -50.715431 39,000 74 568 -64
2023-01-24 00:10:44 GMT 47.859192 -50.753265 39,000 74 568 0
2023-01-24 00:10:32 GMT 47.850998 -50.796413 39,000 74 568 0
2023-01-24 00:10:23 GMT 47.843922 -50.833530 39,000 74 568 0
2023-01-24 00:10:11 GMT 47.836349 -50.872879 39,000 74 568 0
2023-01-24 00:10:01 GMT 47.828110 -50.915726 39,000 74 568 0
2023-01-24 00:09:51 GMT 47.820557 -50.954865 39,000 73 569 0
2023-01-24 00:09:39 GMT 47.813049 -50.993729 39,000 73 569 0
2023-01-24 00:09:30 GMT 47.805702 -51.031845 39,000 74 570 64
2023-01-24 00:09:19 GMT 47.798115 -51.070862 39,000 74 570 0
2023-01-24 00:09:09 GMT 47.790806 -51.108749 39,000 73 570 0
2023-01-24 00:08:58 GMT 47.782333 -51.152271 39,000 73 570 0
2023-01-24 00:08:46 GMT 47.774605 -51.191784 39,000 73 570 0
2023-01-24 00:08:37 GMT 47.766861 -51.231445 39,000 73 570 0
2023-01-24 00:08:26 GMT 47.758778 -51.272701 39,000 73 570 0
2023-01-24 00:08:14 GMT 47.751099 -51.311928 39,000 73 570 0
2023-01-24 00:08:08 GMT 47.746395 -51.335732 39,000 73 570 0
2023-01-24 00:08:02 GMT 47.742626 -51.354816 39,000 73 571 0
2023-01-24 00:07:52 GMT 47.734863 -51.394318 39,000 73 571 0
2023-01-24 00:07:43 GMT 47.727997 -51.428993 39,000 73 572 -64
2023-01-24 00:07:33 GMT 47.719440 -51.472073 39,000 73 572 0
2023-01-24 00:07:23 GMT 47.713158 -51.504257 39,000 73 572 0
2023-01-24 00:07:12 GMT 47.705109 -51.544899 39,000 73 572 -64
2023-01-24 00:07:09 GMT 47.702312 -51.558765 39,000 73 572 0
2023-01-24 00:07:02 GMT 47.697750 -51.581936 39,000 73 571 0
2023-01-24 00:06:59 GMT 47.694809 -51.596535 39,000 73 571 0
2023-01-24 00:06:52 GMT 47.690231 -51.619537 39,000 73 571 0
2023-01-24 00:06:49 GMT 47.686951 -51.635883 39,000 73 571 0
2023-01-24 00:06:40 GMT 47.681316 -51.664124 39,000 73 571 -64
2023-01-24 00:06:37 GMT 47.678284 -51.679138 39,000 73 571 -64
2023-01-24 00:06:32 GMT 47.675125 -51.695042 39,000 73 571 0
2023-01-24 00:06:27 GMT 47.670731 -51.716972 39,000 73 572 64
2023-01-24 00:06:21 GMT 47.666885 -51.736240 39,000 73 572 -64
2023-01-24 00:06:17 GMT 47.662903 -51.756042 39,000 73 572 0
2023-01-24 00:06:06 GMT 47.654892 -51.795731 39,000 73 572 0
2023-01-24 00:05:56 GMT 47.647064 -51.834595 38,975 73 572 0
2023-01-24 00:05:50 GMT 47.643562 -51.852016 39,000 73 572 -128
2023-01-24 00:05:45 GMT 47.639099 -51.874146 39,000 73 572 0
2023-01-24 00:05:41 GMT 47.636398 -51.887535 39,000 73 571 64
2023-01-24 00:05:34 GMT 47.630585 -51.916306 39,000 73 572 -128
2023-01-24 00:05:29 GMT 47.628021 -51.928940 39,000 73 571 -64
2023-01-24 00:05:23 GMT 47.622711 -51.955032 39,025 73 570 64
2023-01-24 00:05:20 GMT 47.621155 -51.962791 39,000 73 570 64
2023-01-24 00:05:14 GMT 47.615021 -51.993279 39,000 73 571 -64
2023-01-24 00:05:11 GMT 47.613556 -52.000282 39,000 73 571 0
2023-01-24 00:05:01 GMT 47.605911 -52.037842 39,000 73 571 0
2023-01-24 00:04:51 GMT 47.598541 -52.073959 39,000 73 571 0
2023-01-24 00:04:40 GMT 47.590530 -52.113098 39,000 73 571 64
2023-01-24 00:04:31 GMT 47.583252 -52.148598 39,000 73 571 64
2023-01-24 00:04:21 GMT 47.574738 -52.190140 39,000 73 571 -64
2023-01-24 00:04:11 GMT 47.567688 -52.224266 39,000 73 571 0
2023-01-24 00:03:59 GMT 47.557812 -52.272243 39,000 73 571 64
2023-01-24 00:03:56 GMT 47.555649 -52.282906 39,000 73 570 0
2023-01-24 00:03:49 GMT 47.549572 -52.312458 39,000 73 570 64
2023-01-24 00:03:41 GMT 47.544662 -52.336052 39,000 72 570 0
2023-01-24 00:03:37 GMT 47.541473 -52.351543 39,000 72 570 0
2023-01-24 00:03:28 GMT 47.533493 -52.390022 39,000 72 571 64
2023-01-24 00:03:20 GMT 47.528824 -52.412476 39,000 72 570 0
2023-01-24 00:03:17 GMT 47.525692 -52.427605 39,000 72 571 64
2023-01-24 00:03:11 GMT 47.521454 -52.447838 39,000 72 571 -64
2023-01-24 00:03:05 GMT 47.516380 -52.472252 39,000 72 571 0
2023-01-24 00:03:01 GMT 47.513729 -52.484787 39,000 72 571 0
2023-01-24 00:02:56 GMT 47.508747 -52.508945 39,000 72 571 -64
2023-01-24 00:02:51 GMT 47.505981 -52.522202 39,000 72 571 0
2023-01-24 00:02:44 GMT 47.500553 -52.548313 39,000 72 571 0
2023-01-24 00:02:41 GMT 47.498085 -52.560001 39,000 72 571 -64
2023-01-24 00:02:35 GMT 47.492523 -52.586334 39,000 72 572 0
2023-01-24 00:02:31 GMT 47.490280 -52.596977 39,000 72 572 0
2023-01-24 00:02:25 GMT 47.485565 -52.619724 39,000 72 573 0
2023-01-24 00:02:21 GMT 47.482407 -52.634811 39,000 72 573 -64
2023-01-24 00:02:15 GMT 47.477554 -52.657951 39,000 72 573 64
2023-01-24 00:02:11 GMT 47.474533 -52.672371 39,000 72 573 64
2023-01-24 00:02:01 GMT 47.466705 -52.709587 39,000 72 573 64
2023-01-24 00:01:51 GMT 47.458797 -52.747124 39,000 72 574 64
2023-01-24 00:01:43 GMT 47.452698 -52.775997 39,000 72 574 -64
2023-01-24 00:01:40 GMT 47.451115 -52.783604 39,000 72 574 -64
2023-01-24 00:01:34 GMT 47.445419 -52.810318 39,000 72 574 0
2023-01-24 00:01:30 GMT 47.443268 -52.820549 39,000 72 574 0
2023-01-24 00:01:24 GMT 47.437134 -52.849525 39,000 72 574 0
2023-01-24 00:01:19 GMT 47.433792 -52.865318 39,000 72 574 0
2023-01-24 00:01:10 GMT 47.425964 -52.902054 39,000 72 573 64
2023-01-24 00:01:00 GMT 47.419086 -52.934242 39,000 72 573 0
2023-01-24 00:00:58 GMT 47.417133 -52.943329 39,000 72 573 0
2023-01-24 00:00:53 GMT 47.412460 -52.965157 39,000 72 573 0
2023-01-24 00:00:50 GMT 47.411266 -52.970863 39,000 72 573 0
2023-01-24 00:00:40 GMT 47.403442 -53.007454 39,000 72 572 -64
2023-01-24 00:00:30 GMT 47.395065 -53.046455 39,000 72 572 0
2023-01-24 00:00:19 GMT 47.386917 -53.084599 39,000 72 572 0
2023-01-24 00:00:10 GMT 47.379192 -53.120796 39,000 72 572 64
2023-01-23 23:59:59 GMT 47.370487 -53.161293 39,000 72 572 -64
2023-01-23 23:59:50 GMT 47.362839 -53.196693 39,000 72 572 0
2023-01-23 23:59:39 GMT 47.354519 -53.234959 39,000 72 572 -64
2023-01-23 23:59:30 GMT 47.346886 -53.270168 39,000 72 571 64
2023-01-23 23:59:19 GMT 47.337341 -53.314537 39,000 72 572 64
2023-01-23 23:59:10 GMT 47.328217 -53.356510 39,000 72 571 0
2023-01-23 23:58:57 GMT 47.319370 -53.396935 39,000 72 570 64
2023-01-23 23:58:47 GMT 47.311317 -53.433907 39,000 72 571 0
2023-01-23 23:58:37 GMT 47.304886 -53.463318 39,000 72 571 0
2023-01-23 23:58:34 GMT 47.301495 -53.478699 39,000 72 571 0
2023-01-23 23:58:26 GMT 47.294632 -53.510078 39,000 72 571 0
2023-01-23 23:58:18 GMT 47.289642 -53.532806 39,000 72 571 64
2023-01-23 23:58:08 GMT 47.281631 -53.569405 39,000 72 571 0
2023-01-23 23:58:03 GMT 47.276779 -53.591583 39,000 72 571 0
2023-01-23 23:57:58 GMT 47.273331 -53.607155 39,000 72 571 0
2023-01-23 23:57:54 GMT 47.268585 -53.628799 39,000 72 571 0
2023-01-23 23:57:49 GMT 47.265198 -53.644112 39,000 71 572 0
2023-01-23 23:57:39 GMT 47.257233 -53.680023 39,000 72 571 0
2023-01-23 23:57:28 GMT 47.248444 -53.719986 39,000 72 571 0
2023-01-23 23:57:19 GMT 47.240845 -53.754250 39,000 71 572 0
2023-01-23 23:57:09 GMT 47.232365 -53.792515 39,000 71 571 0
2023-01-23 23:56:56 GMT 47.223194 -53.833782 39,000 71 571 0
2023-01-23 23:56:47 GMT 47.215794 -53.867165 39,000 71 570 0
2023-01-23 23:56:38 GMT 47.207520 -53.904213 39,000 71 570 -64
2023-01-23 23:56:28 GMT 47.199371 -53.940536 39,000 71 569 64
2023-01-23 23:56:18 GMT 47.191086 -53.977547 39,000 71 569 0
2023-01-23 23:56:07 GMT 47.180832 -54.023369 39,000 71 568 0
2023-01-23 23:55:58 GMT 47.175014 -54.049213 39,000 71 568 0
2023-01-23 23:55:48 GMT 47.166542 -54.086750 39,000 71 567 -64
2023-01-23 23:55:43 GMT 47.161793 -54.107876 39,000 71 567 0
2023-01-23 23:55:38 GMT 47.158310 -54.123459 39,000 71 566 0
2023-01-23 23:55:28 GMT 47.150154 -54.159500 39,000 71 566 0
2023-01-23 23:55:18 GMT 47.141403 -54.198376 39,000 71 566 -64
2023-01-23 23:55:15 GMT 47.138100 -54.212952 39,000 71 566 0
2023-01-23 23:55:07 GMT 47.132812 -54.236000 39,000 71 566 0
2023-01-23 23:54:56 GMT 47.124180 -54.274082 39,000 71 566 0
2023-01-23 23:54:47 GMT 47.116821 -54.306545 39,000 71 566 0
2023-01-23 23:54:38 GMT 47.108871 -54.341606 39,000 71 567 0
2023-01-23 23:54:26 GMT 47.099442 -54.383011 39,000 71 567 0
2023-01-23 23:54:17 GMT 47.091797 -54.416382 39,000 71 566 64
2023-01-23 23:54:08 GMT 47.083817 -54.451057 39,000 71 566 -64
2023-01-23 23:53:57 GMT 47.075089 -54.489235 39,000 71 566 0
2023-01-23 23:53:47 GMT 47.066254 -54.527687 39,000 71 566 -64
2023-01-23 23:53:38 GMT 47.058701 -54.560509 39,000 71 565 0
2023-01-23 23:53:28 GMT 47.050232 -54.597038 39,000 71 565 0
2023-01-23 23:53:17 GMT 47.041084 -54.636700 39,000 71 565 0
2023-01-23 23:53:08 GMT 47.033798 -54.668381 39,000 71 565 64
2023-01-23 23:52:58 GMT 47.025116 -54.705788 39,000 71 566 0
2023-01-23 23:52:46 GMT 47.015442 -54.747414 39,000 71 566 -64
2023-01-23 23:52:37 GMT 47.007843 -54.780098 39,000 71 566 0
2023-01-23 23:52:27 GMT 46.999420 -54.816284 39,000 71 566 0
2023-01-23 23:52:16 GMT 46.990295 -54.855511 39,000 71 566 0
2023-01-23 23:52:07 GMT 46.982391 -54.889343 39,000 71 566 0
2023-01-23 23:51:58 GMT 46.974419 -54.923401 39,000 71 566 0
2023-01-23 23:51:50 GMT 46.950001 -54.916668 39,000 71 560
2023-01-23 23:50:50 GMT 46.916668 -55.150002 39,000 66 560
2023-01-23 23:49:50 GMT 46.849998 -55.366669 39,000 71 560
2023-01-23 23:48:50 GMT 46.799999 -55.566666 39,000 71 560
2023-01-23 23:47:50 GMT 46.733334 -55.766666 39,000 74 560
2023-01-23 23:46:55 GMT 46.700001 -56.049999 39,000 69 560
2023-01-23 23:45:50 GMT 46.650002 -56.216667 39,000 70 560
2023-01-23 23:44:55 GMT 46.599998 -56.483334 39,000 68 560
2023-01-23 23:43:55 GMT 46.533333 -56.700001 39,000 70 560
2023-01-23 23:42:55 GMT 46.483334 -56.900002 39,000 70 560
We lost coverage of the aircraft here for a total of 7 minutes
2023-01-23 23:35:49 GMT 46.133331 -58.375919 39,000 70 567 0
2023-01-23 23:35:37 GMT 46.123398 -58.415913 39,000 70 568 0
2023-01-23 23:35:14 GMT 46.103939 -58.494164 39,000 70 568 0
2023-01-23 23:34:56 GMT 46.087090 -58.561592 39,000 70 568 64
2023-01-23 23:34:43 GMT 46.077217 -58.601074 39,000 70 569 0
2023-01-23 23:31:02 GMT 45.876999 -59.386459 39,000 69 573 0
2023-01-23 23:30:58 GMT 45.872406 -59.404217 39,000 69 573 0
2023-01-23 23:29:23 GMT 45.784359 -59.741180 39,000 69 572 0
2023-01-23 23:29:12 GMT 45.775097 -59.776199 39,000 69 572 0
2023-01-23 23:28:58 GMT 45.762131 -59.825314 39,000 69 572 0
2023-01-23 23:28:53 GMT 45.756500 -59.846684 39,000 69 571 0
2023-01-23 23:27:47 GMT 45.694839 -60.078804 39,000 69 571 0
2023-01-23 23:27:36 GMT 45.684082 -60.119064 39,000 69 571 0
2023-01-23 23:27:31 GMT 45.678734 -60.139023 39,000 69 571 0
2023-01-23 23:27:18 GMT 45.667465 -60.181046 39,000 69 571 0
2023-01-23 23:27:03 GMT 45.652771 -60.235691 39,000 68 571 0
2023-01-23 23:26:55 GMT 45.646591 -60.258671 39,000 68 571 0
2023-01-23 23:26:48 GMT 45.639580 -60.284729 39,000 68 571 0
2023-01-23 23:26:46 GMT 45.636742 -60.295303 39,000 68 571 0
2023-01-23 23:26:39 GMT 45.630157 -60.319763 39,000 68 571 0
2023-01-23 23:26:34 GMT 45.626499 -60.333344 39,000 68 571 0
2023-01-23 23:26:28 GMT 45.620632 -60.355042 39,000 68 571 0
2023-01-23 23:26:25 GMT 45.616959 -60.368637 39,000 68 571 0
2023-01-23 23:26:12 GMT 45.605785 -60.409973 39,000 68 570 0
2023-01-23 23:26:01 GMT 45.594040 -60.453342 39,000 68 570 0
2023-01-23 23:25:56 GMT 45.590141 -60.467583 39,000 68 570 0
2023-01-23 23:25:50 GMT 45.584335 -60.489117 39,000 68 570 0
2023-01-23 23:25:41 GMT 45.575710 -60.520798 39,000 68 570 0
2023-01-23 23:25:33 GMT 45.567352 -60.551617 39,000 68 570 0
2023-01-23 23:25:22 GMT 45.557053 -60.589199 39,000 68 570 0
2023-01-23 23:25:12 GMT 45.547211 -60.625237 39,000 68 569 0
2023-01-23 23:25:01 GMT 45.537186 -60.661926 39,000 68 569 0
2023-01-23 23:24:50 GMT 45.526611 -60.700577 39,000 68 568 0
2023-01-23 23:24:39 GMT 45.516998 -60.735691 39,000 68 568 0
2023-01-23 23:24:34 GMT 45.511238 -60.756538 39,000 68 568 0
2023-01-23 23:24:30 GMT 45.507477 -60.770287 39,000 68 568 0
2023-01-23 23:24:20 GMT 45.497318 -60.807182 39,000 68 568 0
2023-01-23 23:24:09 GMT 45.487728 -60.842018 39,000 68 567 0
2023-01-23 23:23:59 GMT 45.477814 -60.877857 39,000 68 566 0
2023-01-23 23:23:48 GMT 45.467560 -60.914940 39,000 68 565 0
2023-01-23 23:23:38 GMT 45.458073 -60.949333 39,000 68 565 0
2023-01-23 23:23:25 GMT 45.446529 -60.990868 39,000 68 564 0
2023-01-23 23:23:16 GMT 45.437031 -61.025101 39,000 68 563 0
2023-01-23 23:23:06 GMT 45.427025 -61.061207 39,000 68 563 0
2023-01-23 23:22:49 GMT 45.411381 -61.117279 39,000 68 563 0
2023-01-23 23:22:41 GMT 45.402863 -61.147961 39,000 68 562 0
2023-01-23 23:22:16 GMT 45.379959 -61.229954 39,000 68 562 0
2023-01-23 23:22:06 GMT 45.369598 -61.266762 39,000 68 562 0
2023-01-23 23:22:01 GMT 45.365753 -61.280430 39,000 68 562 0
2023-01-23 23:21:57 GMT 45.361359 -61.296124 39,000 68 562 0
2023-01-23 23:21:53 GMT 45.357101 -61.311363 39,000 68 562 0
2023-01-23 23:21:48 GMT 45.352798 -61.326664 39,000 68 562 0
2023-01-23 23:21:41 GMT 45.346863 -61.347858 39,000 68 562 0
2023-01-23 23:21:29 GMT 45.335361 -61.388653 39,000 68 562 0
2023-01-23 23:21:22 GMT 45.327484 -61.416451 39,000 68 562 0
2023-01-23 23:21:09 GMT 45.315578 -61.458656 39,000 68 562 0
2023-01-23 23:21:02 GMT 45.308441 -61.483807 39,000 68 562 0
2023-01-23 23:20:50 GMT 45.296814 -61.524876 39,000 68 562 0
2023-01-23 23:20:41 GMT 45.288158 -61.555393 39,000 68 562 0
2023-01-23 23:20:30 GMT 45.277542 -61.592636 39,000 68 562 0
2023-01-23 23:20:21 GMT 45.268799 -61.623360 39,000 67 563 0
2023-01-23 23:20:11 GMT 45.259140 -61.657234 39,000 67 563 0
2023-01-23 23:20:01 GMT 45.249115 -61.692417 39,000 67 563 0
2023-01-23 23:19:58 GMT 45.245331 -61.705650 39,000 68 563 0
2023-01-23 23:19:51 GMT 45.239410 -61.726421 39,000 67 564 0
2023-01-23 23:19:41 GMT 45.229317 -61.761520 39,000 67 564 0
2023-01-23 23:19:31 GMT 45.219818 -61.794762 39,000 67 565 0
2023-01-23 23:19:21 GMT 45.209473 -61.830727 39,000 67 565 0
2023-01-23 23:19:10 GMT 45.199036 -61.866955 39,000 67 566 0
2023-01-23 23:18:59 GMT 45.188862 -61.902397 39,000 67 566 0
2023-01-23 23:18:50 GMT 45.179504 -61.935024 39,000 67 566 0
2023-01-23 23:18:40 GMT 45.169636 -61.969120 39,000 67 566 0
2023-01-23 23:18:30 GMT 45.159851 -62.003109 39,000 67 566 0
2023-01-23 23:18:19 GMT 45.149002 -62.040581 39,000 67 566 0
2023-01-23 23:18:09 GMT 45.139565 -62.073154 39,000 67 566 0
2023-01-23 23:18:00 GMT 45.129272 -62.108589 39,000 67 566 0
2023-01-23 23:17:49 GMT 45.119034 -62.143963 39,000 67 566 0
2023-01-23 23:17:45 GMT 45.115173 -62.157246 39,000 67 566 0
2023-01-23 23:17:39 GMT 45.109039 -62.178303 39,000 67 566 0
2023-01-23 23:17:37 GMT 45.106201 -62.188046 39,000 67 566 0
2023-01-23 23:17:29 GMT 45.099762 -62.210152 39,000 67 566 0
2023-01-23 23:17:23 GMT 45.093201 -62.232643 39,000 67 566 0
2023-01-23 23:17:18 GMT 45.089008 -62.247128 39,000 67 566 0
2023-01-23 23:17:12 GMT 45.082169 -62.270378 39,000 67 565 0
2023-01-23 23:17:09 GMT 45.079559 -62.279270 39,000 67 565 0
2023-01-23 23:17:06 GMT 45.074997 -62.294827 39,000 67 566 0
2023-01-23 23:16:57 GMT 45.066525 -62.323833 39,000 67 566 0
2023-01-23 23:16:52 GMT 45.062164 -62.338650 39,000 67 565 0
2023-01-23 23:16:48 GMT 45.057911 -62.353107 39,000 67 565 0
2023-01-23 23:16:43 GMT 45.053394 -62.368515 39,000 67 565 0
2023-01-23 23:16:37 GMT 45.047623 -62.388210 39,000 67 564 0
2023-01-23 23:16:34 GMT 45.043900 -62.400970 39,000 67 565 0
2023-01-23 23:16:28 GMT 45.037674 -62.422092 39,000 67 565 0
2023-01-23 23:16:19 GMT 45.028519 -62.453354 39,000 67 565 0
2023-01-23 23:16:17 GMT 45.026642 -62.459759 39,000 67 565 0
2023-01-23 23:16:09 GMT 45.018494 -62.487293 39,000 67 565 0
2023-01-23 23:16:06 GMT 45.016479 -62.494255 39,000 67 565 0
2023-01-23 23:15:58 GMT 45.008381 -62.521652 39,000 67 565 0
2023-01-23 23:15:55 GMT 45.004982 -62.533176 39,000 67 565 0
2023-01-23 23:15:49 GMT 44.998947 -62.553535 39,000 67 565 0
2023-01-23 23:15:47 GMT 44.996368 -62.562382 39,000 67 565 0
2023-01-23 23:15:38 GMT 44.988270 -62.589645 39,000 67 565 0
2023-01-23 23:15:36 GMT 44.985706 -62.598289 39,000 67 565 0
2023-01-23 23:15:30 GMT 44.980587 -62.615639 39,000 67 565 0
2023-01-23 23:15:26 GMT 44.975693 -62.632076 39,000 67 565 0
2023-01-23 23:15:22 GMT 44.971710 -62.645546 39,000 67 565 0
2023-01-23 23:15:18 GMT 44.968094 -62.657646 39,000 67 565 0
2023-01-23 23:15:15 GMT 44.965485 -62.666473 39,000 67 565 0
2023-01-23 23:15:11 GMT 44.960804 -62.682293 39,000 67 564 0
2023-01-23 23:15:08 GMT 44.958244 -62.690868 39,000 67 564 0
2023-01-23 23:15:05 GMT 44.954380 -62.703865 39,000 67 564 64
2023-01-23 23:15:01 GMT 44.949631 -62.719807 39,000 67 564 64
2023-01-23 23:14:58 GMT 44.947674 -62.726372 39,000 67 564 0
2023-01-23 23:14:52 GMT 44.941345 -62.747742 39,000 67 564 0
2023-01-23 23:14:48 GMT 44.937607 -62.760250 39,000 67 564 0
2023-01-23 23:14:44 GMT 44.934174 -62.771793 39,000 67 565 0
2023-01-23 23:14:38 GMT 44.927334 -62.794769 39,000 67 565 0
2023-01-23 23:14:34 GMT 44.923283 -62.808304 39,000 67 565 0
2023-01-23 23:14:28 GMT 44.917416 -62.827862 39,000 67 565 0
2023-01-23 23:14:26 GMT 44.915833 -62.833221 39,000 67 565 0
2023-01-23 23:14:21 GMT 44.909546 -62.854221 39,000 67 565 0
2023-01-23 23:14:17 GMT 44.906242 -62.865242 39,000 67 565 0
2023-01-23 23:14:13 GMT 44.902176 -62.878876 39,000 67 565 0
2023-01-23 23:14:08 GMT 44.897213 -62.895454 39,000 67 565 0
2023-01-23 23:14:04 GMT 44.891953 -62.913074 39,000 67 565 0
2023-01-23 23:13:58 GMT 44.886383 -62.931519 39,000 67 564 0
2023-01-23 23:13:53 GMT 44.881851 -62.946705 39,000 67 564 0
2023-01-23 23:13:47 GMT 44.875854 -62.966503 39,000 67 564 0
2023-01-23 23:13:45 GMT 44.873291 -62.975201 39,000 67 564 0
2023-01-23 23:13:42 GMT 44.870865 -62.983246 39,000 67 564 0
2023-01-23 23:13:37 GMT 44.865513 -63.001034 39,000 67 564 0
2023-01-23 23:13:33 GMT 44.860809 -63.016640 39,000 67 564 0
2023-01-23 23:13:25 GMT 44.852188 -63.045307 39,000 67 564 0
2023-01-23 23:13:22 GMT 44.850632 -63.050537 39,000 67 564 0
2023-01-23 23:13:16 GMT 44.844795 -63.069832 39,000 67 564 0
2023-01-23 23:13:14 GMT 44.842072 -63.078918 39,000 66 564 0
2023-01-23 23:13:11 GMT 44.839508 -63.087421 39,000 66 564 0
2023-01-23 23:13:06 GMT 44.835392 -63.101048 39,000 66 564 0
2023-01-23 23:13:01 GMT 44.829060 -63.121948 39,000 67 563 0
2023-01-23 23:12:57 GMT 44.825150 -63.134945 39,000 66 562 0
2023-01-23 23:12:52 GMT 44.818958 -63.155376 39,000 66 563 0
2023-01-23 23:12:47 GMT 44.814972 -63.168575 39,000 66 563 0
2023-01-23 23:12:41 GMT 44.808884 -63.188587 39,000 66 563 64
2023-01-23 23:12:37 GMT 44.804714 -63.202335 39,000 66 563 0
2023-01-23 23:12:31 GMT 44.797916 -63.224777 39,000 66 562 0
2023-01-23 23:12:27 GMT 44.794750 -63.235161 39,000 66 563 0
2023-01-23 23:12:21 GMT 44.787460 -63.259212 39,000 66 562 0
2023-01-23 23:12:16 GMT 44.784092 -63.270130 39,000 66 562 0
2023-01-23 23:12:11 GMT 44.778305 -63.289162 39,000 66 561 0
2023-01-23 23:12:07 GMT 44.773499 -63.304989 39,000 66 561 -64
2023-01-23 23:11:59 GMT 44.766495 -63.328011 39,000 66 561 -64
2023-01-23 23:11:56 GMT 44.763233 -63.338593 39,000 66 561 0
2023-01-23 23:11:47 GMT 44.752014 -63.375370 39,000 66 560 0
2023-01-23 23:11:39 GMT 44.745033 -63.398281 39,000 66 560 0
2023-01-23 23:11:36 GMT 44.742008 -63.408195 39,000 66 559 64
2023-01-23 23:11:33 GMT 44.738342 -63.420216 39,000 66 559 0
2023-01-23 23:11:28 GMT 44.734634 -63.432247 39,000 66 559 0
2023-01-23 23:11:25 GMT 44.722736 -63.471165 39,000 66 559 0
2023-01-23 23:11:17 GMT 44.720764 -63.477566 39,000 66 558 0
2023-01-23 23:11:09 GMT 44.714355 -63.498558 39,000 66 558 0
2023-01-23 23:11:06 GMT 44.711700 -63.507256 39,000 66 558 0
2023-01-23 23:11:03 GMT 44.708584 -63.517387 39,000 66 558 0
2023-01-23 23:10:58 GMT 44.703510 -63.533936 39,000 66 558 0
2023-01-23 23:10:55 GMT 44.696686 -63.556236 39,000 66 558 0
2023-01-23 23:10:51 GMT 44.696686 -63.556236 39,000 66 558 0
2023-01-23 23:10:41 GMT 44.683491 -63.598984 39,000 66 558 0
2023-01-23 23:10:36 GMT 44.680977 -63.607086 39,000 66 558 0
2023-01-23 23:10:30 GMT 44.674183 -63.629196 39,000 66 558 0
2023-01-23 23:10:27 GMT 44.671715 -63.637234 39,000 66 558 0
2023-01-23 23:10:24 GMT 44.661053 -63.671665 39,000 66 558 0
2023-01-23 23:10:17 GMT 44.661053 -63.671665 39,000 66 559 0
2023-01-23 23:10:13 GMT 44.657318 -63.683689 39,000 66 558 0
2023-01-23 23:10:05 GMT 44.649719 -63.708344 39,000 66 558 0
2023-01-23 23:10:03 GMT 44.647110 -63.716778 39,000 66 558 0
2023-01-23 23:09:55 GMT 44.639126 -63.742542 39,000 66 558 0
2023-01-23 23:09:53 GMT 44.636612 -63.750713 39,000 66 558 0
2023-01-23 23:09:45 GMT 44.628983 -63.775372 39,000 66 558 0
2023-01-23 23:09:42 GMT 44.625908 -63.785347 39,000 66 558 0
2023-01-23 23:09:35 GMT 44.618690 -63.808594 39,000 66 558 0
2023-01-23 23:09:30 GMT 44.613602 -63.824944 39,000 66 558 0
2023-01-23 23:09:25 GMT 44.607925 -63.843254 39,000 66 559 0
2023-01-23 23:09:19 GMT 44.601883 -63.862610 39,000 66 559 0
2023-01-23 23:09:14 GMT 44.596985 -63.878368 39,000 66 559 0
2023-01-23 23:09:11 GMT 44.591038 -63.897488 39,000 66 559 0
2023-01-23 23:09:04 GMT 44.586868 -63.910870 39,000 66 559 0
2023-01-23 23:09:01 GMT 44.583435 -63.921860 39,000 66 559 0
2023-01-23 23:08:54 GMT 44.575653 -63.946774 39,000 66 559 0
2023-01-23 23:08:46 GMT 44.566589 -63.975742 39,000 66 559 0
2023-01-23 23:08:41 GMT 44.562057 -63.990326 39,000 66 559 0
2023-01-23 23:08:33 GMT 44.554169 -64.015457 39,000 66 559 0
2023-01-23 23:08:29 GMT 44.544346 -64.046875 39,000 66 559 0
2023-01-23 23:08:24 GMT 44.544346 -64.046875 39,000 66 560 0
2023-01-23 23:08:20 GMT 44.540764 -64.058197 39,000 66 560 0
2023-01-23 23:08:13 GMT 44.534340 -64.078766 39,000 66 560 0
2023-01-23 23:08:10 GMT 44.530197 -64.091949 39,000 66 560 -64
2023-01-23 23:08:06 GMT 44.525772 -64.106026 39,000 66 560 0
2023-01-23 23:08:02 GMT 44.521442 -64.119896 39,000 66 560 0
2023-01-23 23:07:58 GMT 44.518185 -64.130280 39,000 66 560 0
2023-01-23 23:07:54 GMT 44.513809 -64.144081 39,000 66 560 0
2023-01-23 23:07:51 GMT 44.510971 -64.153091 39,000 66 560 0
2023-01-23 23:07:43 GMT 44.502262 -64.180725 39,000 66 560 0
2023-01-23 23:07:41 GMT 44.500031 -64.187881 39,000 66 560 0
2023-01-23 23:07:38 GMT 44.498016 -64.194229 39,000 66 560 0
2023-01-23 23:07:34 GMT 44.492813 -64.210732 39,000 66 560 -64
2023-01-23 23:07:29 GMT 44.487461 -64.227684 39,000 66 560 0
2023-01-23 23:07:24 GMT 44.482338 -64.243958 39,000 66 560 0
2023-01-23 23:07:21 GMT 44.480301 -64.250336 39,000 66 560 0
2023-01-23 23:07:17 GMT 44.476227 -64.263283 39,000 66 560 0
2023-01-23 23:07:14 GMT 44.471680 -64.277184 39,000 66 560 0
2023-01-23 23:07:10 GMT 44.467537 -64.290718 39,000 66 560 0
2023-01-23 23:07:07 GMT 44.465698 -64.296638 39,000 66 560 0
2023-01-23 23:07:01 GMT 44.458549 -64.319122 39,000 66 560 0
2023-01-23 23:06:58 GMT 44.454300 -64.332535 39,000 66 560 0
2023-01-23 23:06:53 GMT 44.450180 -64.345619 39,000 66 560 0
2023-01-23 23:06:50 GMT 44.447796 -64.353088 39,000 65 560 0
2023-01-23 23:06:47 GMT 44.443909 -64.365303 39,000 66 560 0
2023-01-23 23:06:42 GMT 44.439510 -64.379082 39,000 66 560 0
2023-01-23 23:06:40 GMT 44.436394 -64.388863 39,000 66 560 0
2023-01-23 23:06:36 GMT 44.433151 -64.399178 39,000 66 560 0
2023-01-23 23:06:32 GMT 44.429077 -64.411995 39,000 66 560 0
2023-01-23 23:06:30 GMT 44.426010 -64.421684 39,000 66 560 0
2023-01-23 23:06:26 GMT 44.421616 -64.435471 39,000 65 560 0
2023-01-23 23:06:23 GMT 44.418983 -64.443855 39,000 65 560 64
2023-01-23 23:06:18 GMT 44.412930 -64.462746 39,000 66 561 0
2023-01-23 23:06:13 GMT 44.408089 -64.478088 39,000 66 561 0
2023-01-23 23:06:10 GMT 44.404037 -64.490753 39,000 66 561 0
2023-01-23 23:06:07 GMT 44.402084 -64.496849 39,000 66 561 0
2023-01-23 23:06:03 GMT 44.397720 -64.510544 39,000 66 561 0
2023-01-23 23:05:57 GMT 44.391235 -64.530876 39,000 66 561 0
2023-01-23 23:05:53 GMT 44.386814 -64.544678 39,000 66 561 0
2023-01-23 23:05:47 GMT 44.380280 -64.565147 39,000 66 561 0
2023-01-23 23:05:43 GMT 44.376850 -64.575897 39,000 65 561 0
2023-01-23 23:05:39 GMT 44.371994 -64.591110 39,000 65 560 0
2023-01-23 23:05:36 GMT 44.369404 -64.599136 39,000 65 560 -64
2023-01-23 23:05:33 GMT 44.365723 -64.610664 39,000 65 560 0
2023-01-23 23:05:26 GMT 44.358372 -64.633575 39,000 65 560 0
2023-01-23 23:05:23 GMT 44.355103 -64.643753 39,000 65 560 -64
2023-01-23 23:05:15 GMT 44.347244 -64.668274 39,000 65 560 0
2023-01-23 23:05:11 GMT 44.343102 -64.681206 39,000 65 560 0
2023-01-23 23:05:08 GMT 44.338806 -64.694496 39,000 65 560 -64
2023-01-23 23:05:02 GMT 44.333176 -64.712021 39,000 65 560 -64
2023-01-23 23:04:56 GMT 44.326996 -64.731247 39,000 65 559 0
2023-01-23 23:04:53 GMT 44.323223 -64.743034 39,000 65 559 0
2023-01-23 23:04:46 GMT 44.316799 -64.762932 39,000 65 561 0
2023-01-23 23:04:43 GMT 44.312843 -64.775253 39,000 65 561 0
2023-01-23 23:04:37 GMT 44.306232 -64.795624 39,000 65 561 0
2023-01-23 23:04:33 GMT 44.301956 -64.808876 39,000 65 561 0
2023-01-23 23:04:26 GMT 44.295319 -64.829475 39,000 65 562 0
2023-01-23 23:04:21 GMT 44.290192 -64.845299 39,000 65 562 0
2023-01-23 23:04:16 GMT 44.284119 -64.864021 39,000 65 562 0
2023-01-23 23:04:11 GMT 44.279510 -64.878288 39,000 65 562 0
2023-01-23 23:04:05 GMT 44.272995 -64.898384 39,000 65 562 0
2023-01-23 23:04:02 GMT 44.268852 -64.911316 39,000 65 561 0
2023-01-23 23:03:56 GMT 44.262100 -64.932083 39,000 65 561 0
2023-01-23 23:03:52 GMT 44.258331 -64.943672 39,000 65 561 0
2023-01-23 23:03:45 GMT 44.250927 -64.966515 39,000 65 561 -64
2023-01-23 23:03:42 GMT 44.247574 -64.976807 39,000 65 561 0
2023-01-23 23:03:34 GMT 44.239746 -65.000999 39,000 65 561 64
2023-01-23 23:03:31 GMT 44.236496 -65.010880 39,000 65 561 0
2023-01-23 23:03:24 GMT 44.228531 -65.035530 39,000 65 561 0
2023-01-23 23:03:18 GMT 44.221134 -65.058151 39,000 65 560 0
2023-01-23 23:03:14 GMT 44.218369 -65.066727 39,000 65 560 0
2023-01-23 23:03:11 GMT 44.214157 -65.079735 39,000 65 560 0
2023-01-23 23:03:04 GMT 44.207245 -65.100929 39,000 65 559 0
2023-01-23 23:03:00 GMT 44.203079 -65.113609 39,000 65 560 0
2023-01-23 23:02:53 GMT 44.196213 -65.134666 39,000 65 560 0
2023-01-23 23:02:50 GMT 44.192085 -65.147354 39,000 65 558 0
2023-01-23 23:02:43 GMT 44.184952 -65.168983 39,000 65 558 0
2023-01-23 23:02:39 GMT 44.181198 -65.180611 39,000 65 558 0
2023-01-23 23:02:30 GMT 44.171787 -65.209221 39,000 65 558 0
2023-01-23 23:02:28 GMT 44.169525 -65.216187 39,000 65 558 0
2023-01-23 23:02:22 GMT 44.162434 -65.237732 39,000 65 558 0
2023-01-23 23:02:19 GMT 44.158585 -65.249527 39,000 65 558 0
2023-01-23 23:02:13 GMT 44.151901 -65.269966 39,000 65 557 0
2023-01-23 23:02:09 GMT 44.149567 -65.277054 39,000 65 557 0
2023-01-23 23:02:07 GMT 44.147305 -65.283836 39,000 65 557 0
2023-01-23 23:02:02 GMT 44.141235 -65.302353 39,000 65 556 0
2023-01-23 23:01:59 GMT 44.138504 -65.310585 39,000 65 556 0
2023-01-23 23:01:57 GMT 44.136177 -65.317642 39,000 65 556 0
2023-01-23 23:01:50 GMT 44.128052 -65.342400 39,000 65 556 0
2023-01-23 23:01:47 GMT 44.125305 -65.350700 39,000 65 556 0
2023-01-23 23:01:40 GMT 44.117661 -65.373955 39,000 65 555 0
2023-01-23 23:01:36 GMT 44.114296 -65.384216 39,000 65 555 0
2023-01-23 23:01:30 GMT 44.106567 -65.407562 39,000 65 554 0
2023-01-23 23:01:27 GMT 44.103104 -65.418030 39,000 65 554 0
2023-01-23 23:01:20 GMT 44.096142 -65.439148 39,000 65 554 0
2023-01-23 23:01:16 GMT 44.092373 -65.450592 39,000 65 553 0
2023-01-23 23:01:10 GMT 44.085526 -65.471237 39,000 65 553 0
2023-01-23 23:01:05 GMT 44.081200 -65.484467 39,000 65 553 0
2023-01-23 23:01:00 GMT 44.074726 -65.503952 39,000 65 552 0
2023-01-23 23:00:56 GMT 44.070072 -65.518013 39,000 65 552 0
2023-01-23 23:00:50 GMT 44.063648 -65.537369 39,000 65 551 0
2023-01-23 23:00:45 GMT 44.059086 -65.551102 39,000 65 551 0
2023-01-23 23:00:39 GMT 44.052895 -65.569809 39,000 65 551 0
2023-01-23 23:00:35 GMT 44.047867 -65.584785 39,000 65 550 -64
2023-01-23 23:00:29 GMT 44.041676 -65.603554 39,000 65 550 0
2023-01-23 23:00:23 GMT 44.036316 -65.619553 39,000 65 550 0
2023-01-23 23:00:19 GMT 44.031006 -65.635643 39,000 65 550 0
2023-01-23 23:00:13 GMT 44.025467 -65.652252 39,000 65 549 -64
2023-01-23 23:00:08 GMT 44.019150 -65.671227 39,000 65 549 0
2023-01-23 23:00:04 GMT 44.014954 -65.683792 39,000 65 548 64
2023-01-23 22:59:57 GMT 44.008392 -65.703415 39,000 65 548 0
2023-01-23 22:59:52 GMT 44.003269 -65.718773 39,000 65 548 0
2023-01-23 22:59:48 GMT 43.997871 -65.734993 39,000 65 548 0
2023-01-23 22:59:42 GMT 43.992691 -65.750427 39,000 65 547 0
2023-01-23 22:59:37 GMT 43.986374 -65.769455 39,000 65 547 0
2023-01-23 22:59:33 GMT 43.981483 -65.784042 39,000 65 548 64
2023-01-23 22:59:27 GMT 43.975246 -65.802681 39,000 64 548 0
2023-01-23 22:59:21 GMT 43.969803 -65.818832 39,000 64 548 0
2023-01-23 22:59:17 GMT 43.965050 -65.832893 39,000 65 548 0
2023-01-23 22:59:11 GMT 43.957787 -65.854469 39,000 65 548 0
2023-01-23 22:59:08 GMT 43.955555 -65.861275 39,000 65 548 0
2023-01-23 22:59:01 GMT 43.948105 -65.883347 39,000 65 547 0
2023-01-23 22:58:58 GMT 43.942753 -65.899399 39,000 65 547 0
2023-01-23 22:58:51 GMT 43.937401 -65.915421 39,000 65 548 0
2023-01-23 22:58:47 GMT 43.933254 -65.927780 39,000 65 548 0
2023-01-23 22:58:45 GMT 43.931160 -65.933861 39,000 65 548 0
2023-01-23 22:58:41 GMT 43.926224 -65.948563 39,000 65 548 0
2023-01-23 22:58:36 GMT 43.921326 -65.963127 39,000 65 548 0
2023-01-23 22:58:29 GMT 43.914871 -65.982353 39,000 64 548 -64
2023-01-23 22:58:25 GMT 43.910065 -65.996597 39,000 65 548 -64
2023-01-23 22:58:20 GMT 43.903557 -66.015862 39,000 64 547 0
2023-01-23 22:58:14 GMT 43.897179 -66.034767 39,000 64 547 0
2023-01-23 22:58:07 GMT 43.889542 -66.057327 39,000 64 547 0
2023-01-23 22:58:05 GMT 43.888412 -66.060600 39,000 64 547 0
2023-01-23 22:57:57 GMT 43.878883 -66.088715 39,000 64 548 0
2023-01-23 22:57:54 GMT 43.876694 -66.095123 39,000 64 548 0
2023-01-23 22:57:49 GMT 43.870193 -66.114319 39,000 64 547 0
2023-01-23 22:57:45 GMT 43.865986 -66.126709 39,000 64 547 0
2023-01-23 22:57:37 GMT 43.854950 -66.159348 39,000 64 546 0
2023-01-23 22:57:34 GMT 43.854950 -66.159348 39,000 64 546 0
2023-01-23 22:57:28 GMT 43.847992 -66.179787 39,000 64 546 0
2023-01-23 22:57:23 GMT 43.843456 -66.193214 39,000 64 545 0
2023-01-23 22:57:14 GMT 43.832283 -66.225975 39,000 64 545 0
2023-01-23 22:57:06 GMT 43.821213 -66.258484 39,000 64 546 0
2023-01-23 22:57:03 GMT 43.821213 -66.258484 39,000 64 546 0
2023-01-23 22:56:57 GMT 43.814827 -66.277245 39,000 64 546 0
2023-01-23 22:56:52 GMT 43.810455 -66.289909 39,000 64 546 0
2023-01-23 22:56:45 GMT 43.802902 -66.312073 39,000 64 545 0
2023-01-23 22:56:42 GMT 43.799603 -66.321716 39,000 64 545 0
2023-01-23 22:56:36 GMT 43.792389 -66.342842 39,000 64 545 0
2023-01-23 22:56:32 GMT 43.787842 -66.356079 39,000 64 545 0
2023-01-23 22:56:22 GMT 43.777496 -66.386482 39,000 64 544 0
2023-01-23 22:56:14 GMT 43.769905 -66.408691 39,000 64 544 0
2023-01-23 22:56:11 GMT 43.765621 -66.421051 39,000 64 544 0
2023-01-23 22:56:04 GMT 43.758125 -66.442955 39,000 64 544 0
2023-01-23 22:56:01 GMT 43.754726 -66.452835 39,000 64 544 0
2023-01-23 22:55:51 GMT 43.743988 -66.484016 39,000 64 544 0
2023-01-23 22:55:43 GMT 43.736343 -66.506310 39,000 64 544 0
2023-01-23 22:55:38 GMT 43.730057 -66.524574 39,000 64 544 0
2023-01-23 22:55:33 GMT 43.724514 -66.540787 39,000 64 544 0
2023-01-23 22:55:30 GMT 43.720325 -66.553017 39,000 64 544 0
2023-01-23 22:55:23 GMT 43.714134 -66.570938 39,000 64 544 0
2023-01-23 22:55:20 GMT 43.710781 -66.580681 39,000 64 544 0
2023-01-23 22:55:13 GMT 43.703064 -66.603142 39,000 64 544 0
2023-01-23 22:55:10 GMT 43.699516 -66.613380 39,000 64 545 0
2023-01-23 22:55:00 GMT 43.688232 -66.646004 39,000 64 546 0
2023-01-23 22:54:49 GMT 43.677311 -66.677467 39,000 64 546 0
2023-01-23 22:54:42 GMT 43.668606 -66.702507 39,000 64 547 0
2023-01-23 22:54:38 GMT 43.665813 -66.710487 39,000 64 547 0
2023-01-23 22:54:31 GMT 43.657791 -66.733574 39,000 64 547 0
2023-01-23 22:54:27 GMT 43.653992 -66.744499 39,000 64 548 0
2023-01-23 22:54:20 GMT 43.645935 -66.767509 39,000 64 548 0
2023-01-23 22:54:17 GMT 43.642910 -66.776146 39,000 64 548 0
2023-01-23 22:54:11 GMT 43.634949 -66.799034 39,000 64 549 0
2023-01-23 22:54:06 GMT 43.630508 -66.811882 39,000 64 550 0
2023-01-23 22:54:00 GMT 43.623684 -66.831406 39,000 63 550 0
2023-01-23 22:53:57 GMT 43.620144 -66.841209 39,000 63 550 0
2023-01-23 22:53:50 GMT 43.611145 -66.865158 39,000 61 550 0
2023-01-23 22:53:46 GMT 43.607391 -66.874825 39,000 61 551 0
2023-01-23 22:53:39 GMT 43.599014 -66.895691 39,000 60 550 0
2023-01-23 22:53:35 GMT 43.594254 -66.907059 39,000 59 551 0
2023-01-23 22:53:27 GMT 43.567215 -66.966637 39,000 57 551 0
2023-01-23 22:53:17 GMT 43.567215 -66.966637 39,000 56 552 0
2023-01-23 22:53:11 GMT 43.560745 -66.979851 39,000 55 552 0
2023-01-23 22:53:04 GMT 43.550858 -66.999229 39,000 54 552 0
2023-01-23 22:52:58 GMT 43.541199 -67.017433 39,000 53 552 0
2023-01-23 22:52:54 GMT 43.535660 -67.027588 39,000 52 553 0
2023-01-23 22:52:48 GMT 43.524433 -67.047401 39,000 51 553 0
2023-01-23 22:52:43 GMT 43.519035 -67.056625 39,000 50 553 0
2023-01-23 22:52:37 GMT 43.507629 -67.075523 39,000 45 557 0
2023-01-23 22:52:33 GMT 43.501556 -67.085327 39,000 49 553 -64
2023-01-23 22:52:26 GMT 43.490498 -67.102661 39,000 48 553 0
2023-01-23 22:52:22 GMT 43.483932 -67.112541 39,000 47 553 -64
2023-01-23 22:52:15 GMT 43.471527 -67.130615 39,000 45 552 -64
2023-01-23 22:52:11 GMT 43.463882 -67.141350 39,025 45 552 0
2023-01-23 22:52:05 GMT 43.452370 -67.157333 39,025 45 552 0
2023-01-23 22:52:00 GMT 43.444290 -67.168625 39,000 45 553 0
2023-01-23 22:51:56 GMT 43.434540 -67.182159 39,000 45 553 0
2023-01-23 22:51:51 GMT 43.427559 -67.191856 39,000 45 553 0
2023-01-23 22:51:45 GMT 43.416477 -67.207230 39,000 45 555 0
2023-01-23 22:51:41 GMT 43.409042 -67.217613 39,000 45 555 0
2023-01-23 22:51:35 GMT 43.398232 -67.232666 39,000 45 555 0
2023-01-23 22:51:30 GMT 43.389359 -67.244949 39,000 45 555 0
2023-01-23 22:51:24 GMT 43.378212 -67.260391 39,000 45 555 0
2023-01-23 22:51:19 GMT 43.370392 -67.271248 39,000 45 555 0
2023-01-23 22:51:14 GMT 43.360291 -67.285194 39,000 45 557 0
2023-01-23 22:51:04 GMT 43.340698 -67.312340 39,000 45 557 0
2023-01-23 22:50:59 GMT 43.333382 -67.322517 39,000 45 556 0
2023-01-23 22:50:52 GMT 43.321838 -67.338463 39,000 45 557 -64
2023-01-23 22:50:48 GMT 43.314514 -67.348618 39,000 45 556 0
2023-01-23 22:50:42 GMT 43.302986 -67.364502 39,000 45 555 64
2023-01-23 22:50:37 GMT 43.294884 -67.375687 39,000 45 555 64
2023-01-23 22:50:33 GMT 43.284851 -67.389565 39,000 45 555 0
2023-01-23 22:50:27 GMT 43.275890 -67.401909 39,000 45 555 64
2023-01-23 22:50:20 GMT 43.262329 -67.420670 39,000 45 555 0
2023-01-23 22:50:16 GMT 43.256062 -67.429306 39,000 45 555 0
2023-01-23 22:50:12 GMT 43.247177 -67.441551 39,000 45 555 0
2023-01-23 22:50:09 GMT 43.242554 -67.447876 39,000 45 555 0
2023-01-23 22:50:01 GMT 43.228958 -67.466660 39,000 45 554 0
2023-01-23 22:49:48 GMT 43.203178 -67.502090 39,000 45 554 0
2023-01-23 22:49:40 GMT 43.189724 -67.520599 39,000 45 554 0
2023-01-23 22:49:35 GMT 43.181484 -67.531914 39,000 45 554 0
2023-01-23 22:49:29 GMT 43.171234 -67.545990 39,000 45 554 0
2023-01-23 22:49:25 GMT 43.163361 -67.556786 39,000 45 554 0
2023-01-23 22:49:19 GMT 43.153179 -67.570755 39,000 45 554 0
2023-01-23 22:49:11 GMT 43.136467 -67.593643 39,000 45 554 0
2023-01-23 22:49:08 GMT 43.133606 -67.597595 39,000 45 555 0
2023-01-23 22:48:56 GMT 43.111282 -67.628174 39,000 45 555 0
2023-01-23 22:48:47 GMT 43.093414 -67.652596 39,000 45 555 0
2023-01-23 22:48:41 GMT 43.083893 -67.665627 39,000 45 555 0
2023-01-23 22:48:36 GMT 43.075390 -67.677223 39,000 45 555 0
2023-01-23 22:48:28 GMT 43.060726 -67.697227 39,000 45 555 0
2023-01-23 22:48:25 GMT 43.055328 -67.704590 39,000 45 555 0
2023-01-23 22:48:16 GMT 43.037064 -67.729500 39,000 45 556 0
2023-01-23 22:48:09 GMT 43.026077 -67.744507 39,000 45 555 0
2023-01-23 22:48:05 GMT 43.018982 -67.754158 39,000 45 555 0
2023-01-23 22:47:59 GMT 43.008121 -67.768967 39,000 44 556 0
2023-01-23 22:47:54 GMT 42.999390 -67.780853 39,000 44 556 0
2023-01-23 22:47:48 GMT 42.987732 -67.796700 39,000 44 556 0
2023-01-23 22:47:45 GMT 42.981308 -67.805443 39,000 44 556 0
2023-01-23 22:47:37 GMT 42.968693 -67.822655 39,000 44 556 0
2023-01-23 22:47:34 GMT 42.945831 -67.853668 39,000 44 557 -64
2023-01-23 22:47:26 GMT 42.945831 -67.853668 39,000 44 557 -64
2023-01-23 22:47:23 GMT 42.942810 -67.857773 39,000 44 557 -64
2023-01-23 22:47:17 GMT 42.924774 -67.882225 39,000 44 557 0
2023-01-23 22:47:14 GMT 42.924774 -67.882225 39,000 44 557 0
2023-01-23 22:47:02 GMT 42.904682 -67.909500 39,000 44 558 0
2023-01-23 22:46:55 GMT 42.889069 -67.930641 39,000 44 558 0
2023-01-23 22:46:47 GMT 42.873962 -67.951080 39,000 44 558 0
2023-01-23 22:46:42 GMT 42.867256 -67.960182 39,000 44 558 0
2023-01-23 22:46:36 GMT 42.856548 -67.974701 39,000 44 558 0
2023-01-23 22:46:33 GMT 42.851898 -67.980972 39,000 44 558 0
2023-01-23 22:46:26 GMT 42.837418 -68.000534 39,000 44 557 0
2023-01-23 22:46:23 GMT 42.832947 -68.006546 39,000 44 557 0
2023-01-23 22:46:19 GMT 42.824844 -68.017441 39,000 44 557 0
2023-01-23 22:46:11 GMT 42.811249 -68.035835 39,000 44 557 0
2023-01-23 22:46:03 GMT 42.794586 -68.058304 39,000 44 557 0
2023-01-23 22:46:00 GMT 42.789932 -68.064583 39,000 44 557 0
2023-01-23 22:45:51 GMT 42.773529 -68.086647 39,000 44 557 0
2023-01-23 22:45:46 GMT 42.764050 -68.099457 39,000 44 557 0
2023-01-23 22:45:41 GMT 42.754135 -68.112808 39,000 44 557 0
2023-01-23 22:45:37 GMT 42.748581 -68.120232 39,000 44 557 64
2023-01-23 22:45:33 GMT 42.741055 -68.130371 39,000 44 557 0
2023-01-23 22:45:28 GMT 42.730499 -68.144508 39,000 44 557 0
2023-01-23 22:45:20 GMT 42.717499 -68.161987 39,000 44 557 0
2023-01-23 22:45:17 GMT 42.712006 -68.169418 39,000 44 557 0
2023-01-23 22:45:14 GMT 42.706093 -68.177254 39,000 44 557 0
2023-01-23 22:45:10 GMT 42.697201 -68.189201 39,000 44 556 0
2023-01-23 22:45:06 GMT 42.692593 -68.195457 39,000 44 556 0
2023-01-23 22:44:56 GMT 42.674252 -68.219986 39,000 44 556 0
2023-01-23 22:44:52 GMT 42.666138 -68.230904 39,000 44 556 -64
2023-01-23 22:44:46 GMT 42.655163 -68.245598 39,000 44 556 0
2023-01-23 22:44:43 GMT 42.650024 -68.252502 39,000 44 556 0
2023-01-23 22:44:39 GMT 42.640869 -68.264732 39,000 44 556 -64
2023-01-23 22:44:36 GMT 42.636215 -68.270958 39,000 44 556 -64
2023-01-23 22:44:32 GMT 42.629467 -68.279968 39,000 44 556 0
2023-01-23 22:44:26 GMT 42.617798 -68.295509 39,000 44 556 0
2023-01-23 22:44:20 GMT 42.607452 -68.309364 39,000 44 557 0
2023-01-23 22:44:16 GMT 42.598801 -68.320854 39,000 44 557 0
2023-01-23 22:44:08 GMT 42.584080 -68.340515 39,000 44 557 0
2023-01-23 22:44:05 GMT 42.579563 -68.346588 39,000 44 557 0
2023-01-23 22:43:55 GMT 42.561314 -68.370857 39,000 44 557 0
2023-01-23 22:43:48 GMT 42.547722 -68.389000 39,000 44 557 0
2023-01-23 22:43:45 GMT 42.541443 -68.397324 39,000 44 557 0
2023-01-23 22:43:38 GMT 42.528946 -68.413986 39,000 44 557 0
2023-01-23 22:43:34 GMT 42.523327 -68.421448 39,000 44 557 0
2023-01-23 22:43:31 GMT 42.496887 -68.456642 39,000 44 557 0
2023-01-23 22:43:21 GMT 42.496887 -68.456642 39,000 44 557 0
2023-01-23 22:43:16 GMT 42.489487 -68.466484 39,000 44 557 0
2023-01-23 22:43:13 GMT 42.484863 -68.472664 39,000 44 557 0
2023-01-23 22:43:10 GMT 42.478317 -68.481277 39,000 44 557 0
2023-01-23 22:43:06 GMT 42.469700 -68.492729 39,000 44 557 0
2023-01-23 22:43:03 GMT 42.465977 -68.497650 39,000 44 557 0
2023-01-23 22:43:00 GMT 42.458900 -68.507034 39,000 44 557 -64
2023-01-23 22:42:54 GMT 42.448517 -68.520859 39,000 44 557 0
2023-01-23 22:42:52 GMT 42.445679 -68.524536 39,000 44 557 0
2023-01-23 22:42:44 GMT 42.430595 -68.544594 39,000 44 557 0
2023-01-23 22:42:36 GMT 42.414349 -68.566124 39,000 44 557 0
2023-01-23 22:42:33 GMT 42.408920 -68.573349 39,000 44 557 0
2023-01-23 22:42:24 GMT 42.393723 -68.593391 39,000 44 557 0
2023-01-23 22:42:16 GMT 42.378223 -68.613838 39,000 44 557 0
2023-01-23 22:42:12 GMT 42.371567 -68.622650 39,000 44 557 0
2023-01-23 22:42:06 GMT 42.362118 -68.635101 39,000 44 557 0
2023-01-23 22:42:03 GMT 42.350990 -68.649796 39,000 44 557 0
2023-01-23 22:41:54 GMT 42.336456 -68.669044 39,000 44 557 0
2023-01-23 22:41:51 GMT 42.333488 -68.672920 39,000 44 557 0
2023-01-23 22:41:46 GMT 42.322495 -68.687462 39,000 44 557 0
2023-01-23 22:41:41 GMT 42.314400 -68.698082 39,000 44 557 0
2023-01-23 22:41:35 GMT 42.302307 -68.714050 39,000 44 557 0
2023-01-23 22:41:32 GMT 42.296677 -68.721420 39,000 44 557 0
2023-01-23 22:41:29 GMT 42.291138 -68.728722 39,000 44 557 0
2023-01-23 22:41:23 GMT 42.280746 -68.742393 39,000 44 557 0
2023-01-23 22:41:20 GMT 42.277130 -68.747200 39,000 44 557 0
2023-01-23 22:41:15 GMT 42.264954 -68.763176 39,000 44 557 0
2023-01-23 22:41:10 GMT 42.258041 -68.772232 39,000 44 557 0
2023-01-23 22:41:06 GMT 42.250298 -68.782394 39,000 44 557 0
2023-01-23 22:41:04 GMT 42.245728 -68.788399 39,000 44 557 0
2023-01-23 22:41:01 GMT 42.231400 -68.807182 39,000 44 557 0
2023-01-23 22:40:56 GMT 42.231400 -68.807182 39,000 44 557 0
2023-01-23 22:40:53 GMT 42.225300 -68.815231 39,000 44 557 0
2023-01-23 22:40:49 GMT 42.218830 -68.823723 39,000 44 557 0
2023-01-23 22:40:46 GMT 42.212963 -68.831390 39,000 44 557 0
2023-01-23 22:40:42 GMT 42.206448 -68.839951 39,000 44 557 0
2023-01-23 22:40:39 GMT 42.200348 -68.847931 39,000 44 557 0
2023-01-23 22:40:35 GMT 42.192947 -68.857620 39,000 44 557 0
2023-01-23 22:40:32 GMT 42.188141 -68.863930 39,000 44 557 0
2023-01-23 22:40:29 GMT 42.181866 -68.872139 39,000 44 557 0
2023-01-23 22:40:26 GMT 42.177612 -68.877724 39,000 44 557 0
2023-01-23 22:40:21 GMT 42.168365 -68.889771 39,000 44 557 0
2023-01-23 22:40:19 GMT 42.162689 -68.897179 39,000 44 557 0
2023-01-23 22:40:12 GMT 42.148071 -68.916344 39,000 44 557 0
2023-01-23 22:40:08 GMT 42.143230 -68.922668 39,000 44 557 0
2023-01-23 22:40:05 GMT 42.138657 -68.928658 39,000 44 556 0
2023-01-23 22:39:59 GMT 42.125244 -68.946266 39,000 44 557 0
2023-01-23 22:39:55 GMT 42.120621 -68.952194 39,000 44 557 0
2023-01-23 22:39:51 GMT 42.110363 -68.965591 39,000 44 557 0
2023-01-23 22:39:48 GMT 42.105789 -68.971542 39,000 44 557 0
2023-01-23 22:39:45 GMT 42.101238 -68.977531 39,000 44 557 0
2023-01-23 22:39:42 GMT 42.094666 -68.986023 39,000 44 557 0
2023-01-23 22:39:39 GMT 42.090019 -68.992096 39,000 44 557 0
2023-01-23 22:39:35 GMT 42.083496 -69.000633 39,000 44 557 0
2023-01-23 22:39:32 GMT 42.076309 -69.009995 39,000 44 557 -64
2023-01-23 22:39:30 GMT 42.064270 -69.025665 39,000 44 557 -64
2023-01-23 22:39:25 GMT 42.064270 -69.025665 39,000 44 557 0
2023-01-23 22:39:22 GMT 42.057480 -69.034508 39,000 44 557 0
2023-01-23 22:39:18 GMT 42.051544 -69.042267 39,000 44 557 64
2023-01-23 22:39:14 GMT 42.044537 -69.051369 39,000 44 557 64
2023-01-23 22:39:11 GMT 42.038998 -69.058586 39,000 44 557 0
2023-01-23 22:39:08 GMT 42.032410 -69.067116 39,000 44 557 0
2023-01-23 22:39:04 GMT 42.026184 -69.075287 39,000 44 557 64
2023-01-23 22:38:58 GMT 42.007576 -69.099403 39,000 44 557 0
2023-01-23 22:38:55 GMT 42.007576 -69.099403 39,000 44 557 0
2023-01-23 22:38:51 GMT 42.001007 -69.107941 39,000 44 557 0
2023-01-23 22:38:47 GMT 41.993237 -69.118057 39,000 44 557 0
2023-01-23 22:38:44 GMT 41.988815 -69.123802 39,000 44 557 0
2023-01-23 22:38:41 GMT 41.982578 -69.131920 39,000 44 557 0
2023-01-23 22:38:35 GMT 41.971779 -69.145905 39,000 44 557 0
2023-01-23 22:38:31 GMT 41.964020 -69.155937 39,000 44 557 0
2023-01-23 22:38:24 GMT 41.951706 -69.171921 39,000 44 557 0
2023-01-23 22:38:21 GMT 41.945435 -69.180031 39,000 43 557 0
2023-01-23 22:38:14 GMT 41.931789 -69.197769 39,000 43 557 0
2023-01-23 22:38:11 GMT 41.926254 -69.204880 39,000 43 557 0
2023-01-23 22:38:06 GMT 41.917511 -69.216179 39,000 43 557 0
2023-01-23 22:38:03 GMT 41.912609 -69.222557 39,000 43 557 0
2023-01-23 22:38:00 GMT 41.906742 -69.230087 39,000 43 557 0
2023-01-23 22:37:53 GMT 41.895058 -69.245163 39,000 44 557 0
2023-01-23 22:37:50 GMT 41.888351 -69.253883 39,000 43 558 0
2023-01-23 22:37:44 GMT 41.876358 -69.269424 39,000 43 558 0
2023-01-23 22:37:40 GMT 41.869873 -69.277740 39,000 43 558 0
2023-01-23 22:37:33 GMT 41.854885 -69.297096 39,000 43 558 0
2023-01-23 22:37:30 GMT 41.851135 -69.301949 39,000 43 558 0
2023-01-23 22:37:24 GMT 41.837448 -69.319611 39,000 43 559 0
2023-01-23 22:37:20 GMT 41.832138 -69.326355 39,000 43 559 0
2023-01-23 22:37:13 GMT 41.813370 -69.350571 39,000 43 559 0
2023-01-23 22:37:10 GMT 41.813370 -69.350571 39,000 43 560 0
2023-01-23 22:37:04 GMT 41.802612 -69.364433 39,000 43 560 -64
2023-01-23 22:37:00 GMT 41.794052 -69.375420 39,000 43 560 0
2023-01-23 22:36:53 GMT 41.780540 -69.392845 39,000 43 560 0
2023-01-23 22:36:50 GMT 41.775700 -69.399040 39,000 43 560 64
2023-01-23 22:36:47 GMT 41.769043 -69.407600 39,000 43 560 0
2023-01-23 22:36:43 GMT 41.764385 -69.413536 39,000 43 560 0
2023-01-23 22:36:39 GMT 41.756470 -69.423668 39,000 43 560 0
2023-01-23 22:36:34 GMT 41.745438 -69.437836 39,000 43 559 0
2023-01-23 22:36:29 GMT 41.737976 -69.447449 39,000 43 559 0
2023-01-23 22:36:24 GMT 41.726944 -69.461624 39,000 43 559 0
2023-01-23 22:36:22 GMT 41.723141 -69.466492 39,000 43 558 0
2023-01-23 22:36:19 GMT 41.719666 -69.470985 39,000 43 558 0
2023-01-23 22:36:13 GMT 41.706436 -69.487900 39,000 43 558 0
2023-01-23 22:36:09 GMT 41.700439 -69.495583 39,000 43 558 -64
2023-01-23 22:36:05 GMT 41.692696 -69.505516 39,000 43 558 0
2023-01-23 22:36:02 GMT 41.687164 -69.512619 39,000 43 558 0
2023-01-23 22:35:58 GMT 41.678406 -69.523849 39,000 43 558 64
2023-01-23 22:35:53 GMT 41.670303 -69.534256 39,000 43 558 0
2023-01-23 22:35:49 GMT 41.660809 -69.546394 39,000 43 558 0
2023-01-23 22:35:45 GMT 41.654709 -69.554123 39,000 43 559 -64
2023-01-23 22:35:42 GMT 41.644409 -69.567368 39,000 43 559 0
2023-01-23 22:35:39 GMT 41.644409 -69.567368 39,000 43 559 0
2023-01-23 22:35:37 GMT 41.640976 -69.571732 39,000 43 559 0
2023-01-23 22:35:33 GMT 41.633286 -69.581596 39,000 43 559 0
2023-01-23 22:35:31 GMT 41.628689 -69.587463 39,000 43 559 0
2023-01-23 22:35:28 GMT 41.621239 -69.596985 39,000 43 558 64
2023-01-23 22:35:23 GMT 41.614628 -69.605354 39,000 43 558 64
2023-01-23 22:35:20 GMT 41.607056 -69.614990 39,000 43 558 0
2023-01-23 22:35:17 GMT 41.601608 -69.621986 39,000 43 558 -64
2023-01-23 22:35:13 GMT 41.596252 -69.628792 39,000 43 558 0
2023-01-23 22:35:07 GMT 41.582832 -69.645912 39,000 43 559 0
2023-01-23 22:35:03 GMT 41.577164 -69.653069 39,000 43 559 0
2023-01-23 22:34:59 GMT 41.567844 -69.665009 39,000 43 559 0
2023-01-23 22:34:56 GMT 41.563095 -69.671074 39,000 43 558 0
2023-01-23 22:34:53 GMT 41.558346 -69.677147 39,000 43 558 0
2023-01-23 22:34:49 GMT 41.549881 -69.687904 39,000 43 558 0
2023-01-23 22:34:46 GMT 41.543747 -69.695702 39,000 43 558 0
2023-01-23 22:34:43 GMT 41.539959 -69.700523 39,000 43 558 0
2023-01-23 22:34:37 GMT 41.529465 -69.713867 39,000 43 558 0
2023-01-23 22:34:33 GMT 41.520721 -69.724983 39,000 43 559 -64
2023-01-23 22:34:27 GMT 41.510513 -69.737968 39,000 43 559 0
2023-01-23 22:34:23 GMT 41.502251 -69.748428 39,000 43 558 0
2023-01-23 22:34:17 GMT 41.491608 -69.762001 39,000 43 559 -64
2023-01-23 22:34:12 GMT 41.482700 -69.773338 39,000 43 559 -64
2023-01-23 22:34:07 GMT 41.472153 -69.786720 39,025 43 559 0
2023-01-23 22:34:03 GMT 41.464172 -69.796906 39,000 43 559 -64
2023-01-23 22:33:56 GMT 41.452972 -69.811127 39,000 43 559 128
2023-01-23 22:33:53 GMT 41.445412 -69.820732 39,000 43 559 64
2023-01-23 22:33:47 GMT 41.433681 -69.835678 38,975 43 559 64
2023-01-23 22:33:43 GMT 41.425735 -69.845703 38,975 43 559 128
2023-01-23 22:33:36 GMT 41.414886 -69.859436 38,950 43 559 320
2023-01-23 22:33:33 GMT 41.408432 -69.867615 38,925 45 560 576
2023-01-23 22:33:26 GMT 41.395321 -69.884544 38,850 45 560 640
2023-01-23 22:33:23 GMT 41.389847 -69.892021 38,825 45 560 576
2023-01-23 22:33:20 GMT 41.385590 -69.897888 38,675 46 561 576
2023-01-23 22:33:16 GMT 41.377399 -69.909439 38,775 47 562 512
2023-01-23 22:33:13 GMT 41.371391 -69.918243 38,750 48 562 448
2023-01-23 22:33:10 GMT 41.367764 -69.923668 38,650 52 563 512
2023-01-23 22:33:06 GMT 41.359497 -69.936279 38,675 49 562 448
2023-01-23 22:33:03 GMT 41.354588 -69.944084 38,675 50 564 512
2023-01-23 22:32:59 GMT 41.349380 -69.952515 38,550 54 564 576
2023-01-23 22:32:53 GMT 41.338482 -69.970924 38,575 52 565 512
2023-01-23 22:32:49 GMT 41.330933 -69.984314 38,550 54 565 576
2023-01-23 22:32:45 GMT 41.326237 -69.992958 38,500 54 565 640
2023-01-23 22:32:41 GMT 41.320141 -70.004448 38,450 55 565 704
2023-01-23 22:32:38 GMT 41.315903 -70.012749 38,450 55 565 704
2023-01-23 22:32:34 GMT 41.308735 -70.027107 38,375 69 568 0
2023-01-23 22:32:31 GMT 41.305710 -70.033325 38,350 57 567 704
2023-01-23 22:32:28 GMT 41.302914 -70.039276 38,325 58 567 704
2023-01-23 22:32:25 GMT 41.297283 -70.051453 38,250 60 568 704
2023-01-23 22:32:22 GMT 41.294540 -70.057556 38,250 59 567 704
2023-01-23 22:32:18 GMT 41.288158 -70.072296 38,200 60 568 704
2023-01-23 22:32:14 GMT 41.279160 -70.094177 38,125 62 569 640
2023-01-23 22:32:11 GMT 41.279160 -70.094177 38,075 64 568 576
2023-01-23 22:32:07 GMT 41.273392 -70.108948 38,050 63 568 640
2023-01-23 22:32:02 GMT 41.269363 -70.119751 38,025 64 568 576
2023-01-23 22:31:59 GMT 41.266232 -70.128418 38,000 64 569 576
2023-01-23 22:31:56 GMT 41.261444 -70.142212 37,950 65 569 512
2023-01-23 22:31:52 GMT 41.258560 -70.150818 37,925 66 569 512
2023-01-23 22:31:50 GMT 41.255859 -70.158997 37,875 68 568 512
2023-01-23 22:31:45 GMT 41.249634 -70.179016 37,850 68 568 512
2023-01-23 22:31:42 GMT 41.248169 -70.183960 37,675 72 566 448
2023-01-23 22:31:39 GMT 41.245697 -70.192444 37,800 70 568 512
2023-01-23 22:31:36 GMT 41.242256 -70.204758 37,775 70 568 512
2023-01-23 22:31:33 GMT 41.239197 -70.216125 37,750 71 567 512
2023-01-23 22:31:30 GMT 41.236496 -70.226868 37,725 72 567 448
2023-01-23 22:31:25 GMT 41.232388 -70.243896 37,700 73 567 448
2023-01-23 22:31:21 GMT 41.230133 -70.253723 37,675 73 567 448
2023-01-23 22:31:15 GMT 41.225143 -70.275513 37,625 73 566 512
2023-01-23 22:31:11 GMT 41.217590 -70.308533 37,575 73 566 512
2023-01-23 22:31:05 GMT 41.217590 -70.308533 37,525 73 566 512
2023-01-23 22:31:02 GMT 41.215256 -70.318680 37,500 73 566 448
2023-01-23 22:30:58 GMT 41.212650 -70.329918 37,475 73 566 448
2023-01-23 22:30:52 GMT 41.208115 -70.349792 37,450 73 565 384
2023-01-23 22:30:50 GMT 41.206924 -70.354919 37,250 73 564 768
2023-01-23 22:30:45 GMT 41.202850 -70.372803 37,400 73 565 448
2023-01-23 22:30:42 GMT 41.200500 -70.383034 37,375 73 565 512
2023-01-23 22:30:35 GMT 41.194588 -70.408569 37,225 73 564 576
2023-01-23 22:30:32 GMT 41.190216 -70.427673 37,275 73 564 512
2023-01-23 22:30:29 GMT 41.190216 -70.427673 37,250 73 564 512
2023-01-23 22:30:26 GMT 41.188202 -70.436340 37,225 73 564 576
2023-01-23 22:30:22 GMT 41.184769 -70.451233 37,200 73 564 576
2023-01-23 22:30:19 GMT 41.183460 -70.456818 37,150 73 564 576
2023-01-23 22:30:16 GMT 41.180420 -70.470093 37,125 73 564 576
2023-01-23 22:30:11 GMT 41.176941 -70.484985 37,100 72 564 640
2023-01-23 22:30:08 GMT 41.174709 -70.494713 37,050 72 564 704
2023-01-23 22:30:03 GMT 41.170010 -70.514938 36,975 72 564 768
2023-01-23 22:30:00 GMT 41.168106 -70.523071 36,950 73 564 768
2023-01-23 22:29:55 GMT 41.164467 -70.538971 36,875 73 564 704
2023-01-23 22:29:52 GMT 41.162003 -70.549515 36,850 73 564 704
2023-01-23 22:29:50 GMT 41.160919 -70.554321 36,825 72 564 640
2023-01-23 22:29:47 GMT 41.158695 -70.563873 36,800 72 564 640
2023-01-23 22:29:42 GMT 41.154274 -70.582977 36,750 72 565 640
2023-01-23 22:29:39 GMT 41.152225 -70.591530 36,675 72 565 640
2023-01-23 22:29:35 GMT 41.148270 -70.608505 36,650 72 564 576
2023-01-23 22:29:32 GMT 41.146729 -70.615173 36,650 72 564 576
2023-01-23 22:29:30 GMT 41.145428 -70.620865 36,625 72 563 512
2023-01-23 22:29:27 GMT 41.143021 -70.631226 36,600 72 563 512
2023-01-23 22:29:22 GMT 41.139084 -70.648193 36,575 72 563 512
2023-01-23 22:29:20 GMT 41.136955 -70.657387 36,550 72 563 512
2023-01-23 22:29:16 GMT 41.135056 -70.665405 36,500 72 562 384
2023-01-23 22:29:12 GMT 41.131371 -70.681351 36,500 72 562 384
2023-01-23 22:29:10 GMT 41.129333 -70.690002 36,475 72 561 256
2023-01-23 22:29:07 GMT 41.126991 -70.699959 36,475 72 561 192
2023-01-23 22:29:02 GMT 41.123611 -70.714417 36,450 72 560 256
2023-01-23 22:28:57 GMT 41.119034 -70.733948 36,425 72 558 384
2023-01-23 22:28:52 GMT 41.116009 -70.746773 36,400 72 557 448
2023-01-23 22:28:50 GMT 41.115215 -70.750206 36,375 72 557 448
2023-01-23 22:28:47 GMT 41.112625 -70.761292 36,350 72 557 384
2023-01-23 22:28:45 GMT 41.111481 -70.766174 36,350 72 557 320
2023-01-23 22:28:42 GMT 41.108746 -70.778046 36,325 72 557 256
2023-01-23 22:28:39 GMT 41.106697 -70.786659 36,300 72 556 192
2023-01-23 22:28:36 GMT 41.103298 -70.801140 36,300 72 554 256
2023-01-23 22:28:30 GMT 41.099529 -70.817245 36,250 72 553 512
2023-01-23 22:28:27 GMT 41.096783 -70.828857 36,225 72 553 640
2023-01-23 22:28:24 GMT 41.095200 -70.835724 36,175 72 552 704
2023-01-23 22:28:21 GMT 41.089645 -70.859375 36,150 72 552 832
2023-01-23 22:28:17 GMT 41.089645 -70.859375 36,125 72 553 832
2023-01-23 22:28:15 GMT 41.088089 -70.865967 36,050 72 552 896
2023-01-23 22:28:11 GMT 41.085022 -70.878967 36,000 72 553 960
2023-01-23 22:28:08 GMT 41.082676 -70.888969 35,950 72 554 1024
2023-01-23 22:28:05 GMT 41.079929 -70.900642 35,900 72 554 1024
2023-01-23 22:28:01 GMT 41.077740 -70.909821 35,825 72 554 1088
2023-01-23 22:27:57 GMT 41.074310 -70.924316 35,775 72 554 1216
2023-01-23 22:27:54 GMT 41.072342 -70.932793 35,675 72 555 1216
2023-01-23 22:27:51 GMT 41.069687 -70.944031 35,600 72 556 1152
2023-01-23 22:27:48 GMT 41.067123 -70.954773 35,575 72 556 1152
2023-01-23 22:27:45 GMT 41.064800 -70.964691 35,525 72 556 1152
2023-01-23 22:27:42 GMT 41.062798 -70.973114 35,475 72 565 1920
2023-01-23 22:27:37 GMT 41.058701 -70.990341 35,375 72 557 1152
2023-01-23 22:27:34 GMT 41.057327 -70.996277 35,375 72 557 1152
2023-01-23 22:27:31 GMT 41.054558 -71.007889 35,275 72 557 1280
2023-01-23 22:27:27 GMT 41.051331 -71.021484 35,175 72 558 1344
2023-01-23 22:27:24 GMT 41.048973 -71.031479 35,100 72 558 1408
2023-01-23 22:27:20 GMT 41.045200 -71.047272 34,975 72 559 1792
2023-01-23 22:27:16 GMT 41.043247 -71.055573 34,900 72 560 1856
2023-01-23 22:27:13 GMT 41.039978 -71.069275 34,750 72 562 2048
2023-01-23 22:27:10 GMT 41.037552 -71.079529 34,575 72 564 2048
2023-01-23 22:27:06 GMT 41.034492 -71.092468 34,525 72 565 1984
2023-01-23 22:27:02 GMT 41.032166 -71.102203 34,250 72 568 1600
2023-01-23 22:26:59 GMT 41.027416 -71.122177 34,300 72 568 1536
2023-01-23 22:26:56 GMT 41.027416 -71.122177 34,275 72 568 1472
2023-01-23 22:26:53 GMT 41.025463 -71.130356 34,150 72 569 1344
2023-01-23 22:26:50 GMT 41.022621 -71.142403 34,100 72 569 1216
2023-01-23 22:26:47 GMT 41.019459 -71.155510 33,975 72 570 1152
2023-01-23 22:26:44 GMT 41.017178 -71.165123 34,000 72 570 1152
2023-01-23 22:26:41 GMT 41.015533 -71.171936 33,950 72 569 832
2023-01-23 22:26:38 GMT 41.012466 -71.184875 33,875 72 570 1024
2023-01-23 22:26:34 GMT 41.010406 -71.193542 33,850 72 570 1024
2023-01-23 22:26:31 GMT 41.007496 -71.205765 33,750 72 569 832
2023-01-23 22:26:28 GMT 41.005352 -71.214874 33,750 72 568 832
2023-01-23 22:26:25 GMT 41.002003 -71.228981 33,675 72 569 832
2023-01-23 22:26:21 GMT 40.999626 -71.238976 33,625 72 568 832
2023-01-23 22:26:18 GMT 40.994476 -71.260498 33,575 72 566 768
2023-01-23 22:26:14 GMT 40.994476 -71.260498 33,525 72 567 768
2023-01-23 22:26:11 GMT 40.991062 -71.274681 33,500 72 566 768
2023-01-23 22:26:05 GMT 40.986221 -71.294968 33,425 72 565 768
2023-01-23 22:26:01 GMT 40.983398 -71.306641 33,375 72 565 768
2023-01-23 22:25:58 GMT 40.981285 -71.315567 33,125 72 563 768
2023-01-23 22:25:54 GMT 40.977905 -71.329712 33,275 72 564 832
2023-01-23 22:25:50 GMT 40.971405 -71.356567 33,225 72 562 640
2023-01-23 22:25:45 GMT 40.971405 -71.356567 33,175 72 562 704
2023-01-23 22:25:43 GMT 40.969460 -71.364693 33,150 72 562 704
2023-01-23 22:25:40 GMT 40.966808 -71.375740 32,975 72 561 576
2023-01-23 22:25:37 GMT 40.964951 -71.383484 32,975 72 561 576
2023-01-23 22:25:34 GMT 40.958679 -71.409424 33,025 72 560 768
2023-01-23 22:25:30 GMT 40.958679 -71.409424 32,975 72 559 576
2023-01-23 22:25:27 GMT 40.956436 -71.418762 32,950 72 559 448
2023-01-23 22:25:23 GMT 40.952911 -71.433472 32,925 72 558 320
2023-01-23 22:25:18 GMT 40.948792 -71.450439 32,900 72 555 448
2023-01-23 22:25:15 GMT 40.946743 -71.459076 32,875 72 555 512
2023-01-23 22:25:12 GMT 40.945484 -71.464256 32,850 72 554 640
2023-01-23 22:25:08 GMT 40.942646 -71.475990 32,825 72 552 704
2023-01-23 22:25:05 GMT 40.939854 -71.487602 32,800 72 552 640
2023-01-23 22:25:02 GMT 40.934692 -71.509094 32,725 72 551 832
2023-01-23 22:24:59 GMT 40.934692 -71.509094 32,725 72 551 896
2023-01-23 22:24:56 GMT 40.932449 -71.518250 32,625 72 551 960
2023-01-23 22:24:53 GMT 40.930450 -71.526428 32,600 72 550 1024
2023-01-23 22:24:50 GMT 40.928101 -71.536133 32,550 72 550 1088
2023-01-23 22:24:47 GMT 40.925446 -71.547180 32,375 72 549 1088
2023-01-23 22:24:44 GMT 40.923065 -71.556885 32,450 72 549 1088
2023-01-23 22:24:41 GMT 40.921097 -71.564941 32,375 72 549 1088
2023-01-23 22:24:38 GMT 40.918808 -71.574463 32,350 72 549 1088
2023-01-23 22:24:35 GMT 40.916565 -71.583740 32,250 72 549 1088
2023-01-23 22:24:32 GMT 40.914577 -71.591782 31,925 72 546 960
2023-01-23 22:24:28 GMT 40.910339 -71.609375 32,150 72 548 1088
2023-01-23 22:24:25 GMT 40.908337 -71.617561 32,075 72 548 1024
2023-01-23 22:24:21 GMT 40.905670 -71.628540 32,050 72 547 1024
2023-01-23 22:24:17 GMT 40.902565 -71.641220 32,000 72 546 960
2023-01-23 22:24:14 GMT 40.900589 -71.649536 31,950 72 546 960
2023-01-23 22:24:11 GMT 40.897400 -71.662506 31,575 72 544 896
2023-01-23 22:24:07 GMT 40.892853 -71.681213 31,125 72 537 960
2023-01-23 22:24:04 GMT 40.892853 -71.681213 31,800 72 544 896
2023-01-23 22:24:00 GMT 40.889717 -71.693909 31,750 72 543 960
2023-01-23 22:23:57 GMT 40.887039 -71.704956 31,650 72 542 960
2023-01-23 22:23:54 GMT 40.885059 -71.713074 31,650 72 542 960
2023-01-23 22:23:52 GMT 40.883106 -71.721123 31,600 72 542 960
2023-01-23 22:23:49 GMT 40.881454 -71.727783 31,575 72 542 896
2023-01-23 22:23:46 GMT 40.878845 -71.738586 31,525 72 541 896
2023-01-23 22:23:43 GMT 40.876591 -71.747841 31,450 72 540 896
2023-01-23 22:23:40 GMT 40.873516 -71.760384 31,400 72 540 896
2023-01-23 22:23:35 GMT 40.870743 -71.771729 31,350 72 539 960
2023-01-23 22:23:33 GMT 40.868954 -71.778923 31,325 72 537 960
2023-01-23 22:23:29 GMT 40.862778 -71.804199 31,175 72 536 1088
2023-01-23 22:23:26 GMT 40.861645 -71.808891 31,150 72 536 1152
2023-01-23 22:23:23 GMT 40.861645 -71.808891 31,125 72 536 1152
2023-01-23 22:23:20 GMT 40.859116 -71.819214 30,975 72 536 1280
2023-01-23 22:23:16 GMT 40.855362 -71.834419 30,975 72 536 1280
2023-01-23 22:23:13 GMT 40.852707 -71.845345 30,900 72 536 1472
2023-01-23 22:23:09 GMT 40.847397 -71.866821 30,725 72 534 0
2023-01-23 22:23:06 GMT 40.847397 -71.866821 30,725 72 536 1536
2023-01-23 22:23:03 GMT 40.846252 -71.871643 30,700 72 536 1536
2023-01-23 22:23:00 GMT 40.843445 -71.882919 30,550 72 536 1408
2023-01-23 22:22:57 GMT 40.841908 -71.889221 30,450 72 534 0
2023-01-23 22:22:53 GMT 40.838322 -71.903893 30,450 72 535 1344
2023-01-23 22:22:48 GMT 40.834122 -71.920959 30,325 72 535 1280
2023-01-23 22:22:45 GMT 40.831432 -71.931923 30,250 72 534 1344
2023-01-23 22:22:42 GMT 40.829544 -71.939575 30,175 72 534 1728
2023-01-23 22:22:37 GMT 40.826157 -71.953247 30,075 72 534 1728
2023-01-23 22:22:33 GMT 40.822632 -71.967529 29,925 71 535 1920
2023-01-23 22:22:28 GMT 40.818817 -71.982918 29,750 71 536 1984
2023-01-23 22:22:24 GMT 40.815811 -71.995056 29,575 71 536 1856
2023-01-23 22:22:21 GMT 40.814350 -72.001022 29,575 71 536 1856
2023-01-23 22:22:18 GMT 40.811188 -72.013916 29,450 72 537 1664
2023-01-23 22:22:15 GMT 40.806992 -72.030800 29,350 71 536 1344
2023-01-23 22:22:12 GMT 40.806992 -72.030800 29,350 71 536 1344
2023-01-23 22:22:09 GMT 40.804249 -72.041908 29,225 71 535 1152
2023-01-23 22:22:06 GMT 40.802261 -72.049988 29,200 71 535 1152
2023-01-23 22:22:02 GMT 40.799915 -72.059509 29,125 71 534 1088
2023-01-23 22:22:00 GMT 40.797916 -72.067444 29,075 72 534 1024
2023-01-23 22:21:57 GMT 40.794937 -72.079613 29,050 71 533 1024
2023-01-23 22:21:54 GMT 40.793198 -72.086548 29,000 71 532 1024
2023-01-23 22:21:51 GMT 40.790817 -72.096191 28,950 72 530 1088
2023-01-23 22:21:48 GMT 40.788483 -72.105530 28,875 72 530 1088
2023-01-23 22:21:45 GMT 40.784180 -72.123047 28,750 71 529 1088
2023-01-23 22:21:42 GMT 40.784180 -72.123047 28,700 71 527 1024
2023-01-23 22:21:39 GMT 40.781063 -72.135544 28,700 71 528 1024
2023-01-23 22:21:36 GMT 40.778870 -72.144348 28,650 71 527 1024
2023-01-23 22:21:32 GMT 40.775013 -72.159828 28,575 71 526 1024
2023-01-23 22:21:28 GMT 40.773849 -72.164444 28,500 71 524 1088
2023-01-23 22:21:25 GMT 40.770962 -72.176056 28,425 71 523 1280
2023-01-23 22:21:21 GMT 40.767658 -72.189415 28,325 71 522 1472
2023-01-23 22:21:17 GMT 40.765549 -72.197693 28,325 71 522 1536
2023-01-23 22:21:14 GMT 40.763000 -72.207954 28,225 71 522 1792
2023-01-23 22:21:11 GMT 40.760559 -72.217712 28,075 71 522 1792
2023-01-23 22:21:08 GMT 40.758347 -72.226677 28,000 71 522 1664
2023-01-23 22:21:05 GMT 40.755276 -72.238914 27,375 71 511 1280
2023-01-23 22:21:02 GMT 40.753647 -72.245407 27,875 71 522 1472
2023-01-23 22:20:59 GMT 40.750992 -72.256165 27,775 71 521 1344
2023-01-23 22:20:56 GMT 40.748932 -72.264465 27,725 71 519 1344
2023-01-23 22:20:53 GMT 40.746571 -72.273872 27,550 71 518 1280
2023-01-23 22:20:49 GMT 40.743439 -72.286255 27,575 71 518 1408
2023-01-23 22:20:46 GMT 40.739227 -72.303101 27,500 71 517 1152
2023-01-23 22:20:43 GMT 40.739227 -72.303101 27,450 71 517 1088
2023-01-23 22:20:40 GMT 40.736980 -72.312134 27,400 71 515 1152
2023-01-23 22:20:38 GMT 40.735153 -72.319458 27,350 71 515 1152
2023-01-23 22:20:34 GMT 40.732883 -72.328613 27,250 71 513 1152
2023-01-23 22:20:31 GMT 40.729950 -72.340225 27,200 71 512 1216
2023-01-23 22:20:27 GMT 40.727692 -72.349365 26,850 71 511 1280
2023-01-23 22:20:24 GMT 40.725815 -72.356750 27,050 71 510 1280
2023-01-23 22:20:21 GMT 40.723663 -72.365448 26,900 71 510 1280
2023-01-23 22:20:18 GMT 40.720314 -72.378677 26,925 71 508 1152
2023-01-23 22:20:15 GMT 40.718544 -72.385796 26,875 71 508 1088
2023-01-23 22:20:12 GMT 40.715927 -72.396179 26,825 71 507 1024
2023-01-23 22:20:08 GMT 40.713612 -72.405334 26,775 71 505 960
2023-01-23 22:20:04 GMT 40.710709 -72.416931 26,725 71 504 1024
2023-01-23 22:20:00 GMT 40.707790 -72.428551 26,650 71 503 1024
2023-01-23 22:19:57 GMT 40.705170 -72.439026 26,575 71 501 1088
2023-01-23 22:19:54 GMT 40.703648 -72.445030 26,425 71 500 1024
2023-01-23 22:19:51 GMT 40.701004 -72.455505 26,475 71 499 1088
2023-01-23 22:19:48 GMT 40.698948 -72.463760 26,425 71 498 1088
2023-01-23 22:19:44 GMT 40.696060 -72.475037 26,325 71 496 1152
2023-01-23 22:19:41 GMT 40.693871 -72.483795 26,225 71 495 1216
2023-01-23 22:19:38 GMT 40.691311 -72.493912 26,225 71 493 1280
2023-01-23 22:19:35 GMT 40.689915 -72.499527 26,125 71 493 1344
2023-01-23 22:19:32 GMT 40.687958 -72.507263 26,075 71 492 1280
2023-01-23 22:19:29 GMT 40.684887 -72.519440 26,000 71 490 1280
2023-01-23 22:19:26 GMT 40.683746 -72.523926 26,000 71 490 1280
2023-01-23 22:19:23 GMT 40.681255 -72.533798 25,875 71 488 1216
2023-01-23 22:19:20 GMT 40.679020 -72.542664 25,850 71 488 1216
2023-01-23 22:19:17 GMT 40.675251 -72.557579 25,775 71 487 1280
2023-01-23 22:19:15 GMT 40.675251 -72.557579 25,750 71 486 1280
2023-01-23 22:19:12 GMT 40.673203 -72.565758 25,650 71 484 1216
2023-01-23 22:19:08 GMT 40.667568 -72.588043 25,575 71 483 1152
2023-01-23 22:19:05 GMT 40.667568 -72.588043 25,525 71 482 1088
2023-01-23 22:19:01 GMT 40.665207 -72.597412 25,450 71 480 1152
2023-01-23 22:18:58 GMT 40.663055 -72.605896 25,300 71 478 1088
2023-01-23 22:18:54 GMT 40.660912 -72.614326 25,300 71 476 1088
2023-01-23 22:18:51 GMT 40.658726 -72.623001 25,250 71 475 1088
2023-01-23 22:18:48 GMT 40.656445 -72.631866 25,175 71 474 1088
2023-01-23 22:18:45 GMT 40.653557 -72.643288 25,150 71 473 1088
2023-01-23 22:18:42 GMT 40.649601 -72.658829 25,100 71 471 1152
2023-01-23 22:18:39 GMT 40.649601 -72.658829 25,050 71 470 1216
2023-01-23 22:18:35 GMT 40.647125 -72.668579 24,925 71 468 1216
2023-01-23 22:18:32 GMT 40.645386 -72.675415 24,900 71 467 1216
2023-01-23 22:18:29 GMT 40.643784 -72.681702 24,775 71 463 1088
2023-01-23 22:18:26 GMT 40.640991 -72.692810 24,775 71 464 1152
2023-01-23 22:18:23 GMT 40.638977 -72.700623 24,725 71 463 1088
2023-01-23 22:18:20 GMT 40.637650 -72.705933 24,700 71 462 960
2023-01-23 22:18:17 GMT 40.635540 -72.714134 24,650 71 458 640
2023-01-23 22:18:15 GMT 40.633850 -72.720825 24,600 71 458 640
2023-01-23 22:18:12 GMT 40.631493 -72.730179 24,575 71 456 768
2023-01-23 22:18:09 GMT 40.629547 -72.737732 24,500 71 453 1152
2023-01-23 22:18:05 GMT 40.626652 -72.749092 24,500 71 453 1088
2023-01-23 22:18:01 GMT 40.624554 -72.757393 24,375 71 451 1280
2023-01-23 22:17:58 GMT 40.622498 -72.765442 24,350 71 450 1280
2023-01-23 22:17:55 GMT 40.620895 -72.771729 24,300 71 449 1280
2023-01-23 22:17:53 GMT 40.619713 -72.776306 24,250 71 448 1280
2023-01-23 22:17:50 GMT 40.617188 -72.786255 24,100 71 446 1344
2023-01-23 22:17:47 GMT 40.614780 -72.795532 24,075 71 443 1344
2023-01-23 22:17:44 GMT 40.613525 -72.800476 24,000 71 443 1344
2023-01-23 22:17:41 GMT 40.610641 -72.811829 23,925 71 442 1408
2023-01-23 22:17:38 GMT 40.609680 -72.815491 23,925 71 442 1408
2023-01-23 22:17:35 GMT 40.607376 -72.824562 23,825 71 439 1344
2023-01-23 22:17:33 GMT 40.606400 -72.828369 23,700 71 438 1280
2023-01-23 22:17:30 GMT 40.604095 -72.837402 23,625 71 436 1152
2023-01-23 22:17:27 GMT 40.602165 -72.844849 23,625 71 435 1088
2023-01-23 22:17:24 GMT 40.600117 -72.852837 23,550 71 433 1088
2023-01-23 22:17:21 GMT 40.598488 -72.859207 23,525 71 432 1088
2023-01-23 22:17:18 GMT 40.594158 -72.876122 23,100 71 423 1408
2023-01-23 22:17:15 GMT 40.594158 -72.876122 23,400 71 429 1344
2023-01-23 22:17:12 GMT 40.592102 -72.884094 23,325 71 427 1408
2023-01-23 22:17:09 GMT 40.590618 -72.889977 22,975 71 426 1472
2023-01-23 22:17:06 GMT 40.588806 -72.897095 23,225 71 426 1472
2023-01-23 22:17:03 GMT 40.586975 -72.904297 23,150 71 425 1472
2023-01-23 22:17:00 GMT 40.584381 -72.914322 23,050 71 422 1280
2023-01-23 22:16:57 GMT 40.580517 -72.929245 22,875 71 420 1152
2023-01-23 22:16:53 GMT 40.580517 -72.929245 22,925 71 418 1152
2023-01-23 22:16:50 GMT 40.578552 -72.936768 22,850 71 415 1088
2023-01-23 22:16:47 GMT 40.577026 -72.942604 22,825 71 416 1088
2023-01-23 22:16:44 GMT 40.574745 -72.951469 22,725 71 413 1152
2023-01-23 22:16:41 GMT 40.573162 -72.957649 22,700 71 411 1280
2023-01-23 22:16:37 GMT 40.569065 -72.973503 22,600 71 410 1344
2023-01-23 22:16:34 GMT 40.569065 -72.973503 22,550 71 409 1472
2023-01-23 22:16:32 GMT 40.567806 -72.978622 22,425 72 407 1664
2023-01-23 22:16:29 GMT 40.566238 -72.985046 22,375 73 406 1664
2023-01-23 22:16:26 GMT 40.564636 -72.992188 22,325 74 406 1728
2023-01-23 22:16:23 GMT 40.563263 -72.999146 22,250 76 405 1856
2023-01-23 22:16:20 GMT 40.561752 -73.008789 22,125 80 404 1856
2023-01-23 22:16:16 GMT 40.560608 -73.018494 22,000 83 403 1856
2023-01-23 22:16:12 GMT 40.560036 -73.025627 21,825 86 402 1856
2023-01-23 22:16:09 GMT 40.559601 -73.034424 21,800 88 402 1856
2023-01-23 22:16:05 GMT 40.559464 -73.042847 21,575 90 400 2048
2023-01-23 22:16:02 GMT 40.559475 -73.052406 21,475 90 399 2112
2023-01-23 22:15:58 GMT 40.559555 -73.058533 21,425 90 399 2176
2023-01-23 22:15:55 GMT 40.559601 -73.069336 21,300 90 398 2240
2023-01-23 22:15:52 GMT 40.559662 -73.074371 21,050 90 398 2240
2023-01-23 22:15:50 GMT 40.559647 -73.078125 21,200 90 398 2240
2023-01-23 22:15:47 GMT 40.559708 -73.086426 21,000 90 397 2240
2023-01-23 22:15:44 GMT 40.559753 -73.092728 20,725 90 396 2240
2023-01-23 22:15:41 GMT 40.559830 -73.103577 20,775 90 396 2240
2023-01-23 22:15:38 GMT 40.559875 -73.108643 20,700 90 395 2240
2023-01-23 22:15:35 GMT 40.559921 -73.117188 20,575 90 395 2240
2023-01-23 22:15:32 GMT 40.559967 -73.122681 20,525 90 393 2304
2023-01-23 22:15:29 GMT 40.559986 -73.129494 20,325 90 393 2176
2023-01-23 22:15:26 GMT 40.560081 -73.146538 20,150 90 392 2304
2023-01-23 22:15:22 GMT 40.560081 -73.146538 20,050 90 391 2432
2023-01-23 22:15:20 GMT 40.560150 -73.153687 19,950 90 390 2496
2023-01-23 22:15:17 GMT 40.560173 -73.157646 19,825 90 390 2560
2023-01-23 22:15:14 GMT 40.560219 -73.164948 19,825 90 390 2560
2023-01-23 22:15:11 GMT 40.560268 -73.174065 19,575 90 390 2688
2023-01-23 22:15:08 GMT 40.560333 -73.179871 19,450 90 390 2752
2023-01-23 22:15:05 GMT 40.560333 -73.187378 19,275 90 390 2752
2023-01-23 22:15:02 GMT 40.560406 -73.194534 19,225 90 389 2688
2023-01-23 22:14:59 GMT 40.560425 -73.201294 19,075 90 389 2688
2023-01-23 22:14:56 GMT 40.560471 -73.208191 18,950 90 389 2624
2023-01-23 22:14:53 GMT 40.560516 -73.217896 18,625 90 388 2496
2023-01-23 22:14:50 GMT 40.560562 -73.222656 18,775 90 388 2496
2023-01-23 22:14:47 GMT 40.560593 -73.231621 18,550 90 388 2368
2023-01-23 22:14:43 GMT 40.560608 -73.238342 18,350 90 387 2368
2023-01-23 22:14:40 GMT 40.560638 -73.247719 18,250 90 385 2368
2023-01-23 22:14:37 GMT 40.560699 -73.254028 18,150 90 385 2368
2023-01-23 22:14:34 GMT 40.560734 -73.262329 17,950 90 384 2432
2023-01-23 22:14:31 GMT 40.560745 -73.267395 17,925 90 382 2496
2023-01-23 22:14:29 GMT 40.560780 -73.273689 17,775 90 383 2496
2023-01-23 22:14:26 GMT 40.560780 -73.278435 17,750 90 382 2496
2023-01-23 22:14:23 GMT 40.560791 -73.284363 17,600 90 381 2496
2023-01-23 22:14:20 GMT 40.560825 -73.290672 17,525 90 381 2496
2023-01-23 22:14:18 GMT 40.560871 -73.298660 17,375 90 380 2496
2023-01-23 22:14:15 GMT 40.560883 -73.302124 16,975 90 379 2560
2023-01-23 22:14:12 GMT 40.560917 -73.311203 16,975 90 379 2688
2023-01-23 22:14:09 GMT 40.560928 -73.316162 16,975 90 379 2688
2023-01-23 22:14:06 GMT 40.560974 -73.325073 16,850 90 378 3264
2023-01-23 22:14:03 GMT 40.561020 -73.330750 16,425 90 379 3712
2023-01-23 22:14:00 GMT 40.561066 -73.341309 16,450 90 380 3776
2023-01-23 22:13:56 GMT 40.561066 -73.346924 16,225 90 381 3648
2023-01-23 22:13:53 GMT 40.561150 -73.364265 15,950 90 382 3456
2023-01-23 22:13:49 GMT 40.561150 -73.364265 15,775 90 383 3328
2023-01-23 22:13:46 GMT 40.561199 -73.371132 15,525 90 384 3200
2023-01-23 22:13:42 GMT 40.561249 -73.380676 15,450 90 384 3200
2023-01-23 22:13:39 GMT 40.561249 -73.387695 15,300 90 384 3072
2023-01-23 22:13:36 GMT 40.561291 -73.394730 15,150 90 384 2944
2023-01-23 22:13:32 GMT 40.561340 -73.403076 14,875 90 383 2688
2023-01-23 22:13:29 GMT 40.561337 -73.410210 14,700 90 381 2560
2023-01-23 22:13:26 GMT 40.561386 -73.418640 14,675 90 382 2624
2023-01-23 22:13:23 GMT 40.561386 -73.426270 14,525 90 381 2624
2023-01-23 22:13:20 GMT 40.561432 -73.431763 14,200 90 381 2560
2023-01-23 22:13:15 GMT 40.561432 -73.442665 13,275 90 363 2944
2023-01-23 22:13:12 GMT 40.561478 -73.449593 14,050 90 375 2304
2023-01-23 22:13:09 GMT 40.561478 -73.456665 14,000 90 376 2304
2023-01-23 22:13:06 GMT 40.561523 -73.463684 13,875 90 374 2304
2023-01-23 22:13:03 GMT 40.561569 -73.470070 13,775 90 374 2304
2023-01-23 22:13:01 GMT 40.561569 -73.476746 13,400 90 369 2496
2023-01-23 22:12:58 GMT 40.561619 -73.488609 13,575 90 371 2432
2023-01-23 22:12:56 GMT 40.561619 -73.488609 13,450 90 370 2496
2023-01-23 22:12:53 GMT 40.561661 -73.492004 13,250 90 368 2560
2023-01-23 22:12:50 GMT 40.561665 -73.499222 13,150 90 368 2560
2023-01-23 22:12:47 GMT 40.561710 -73.504906 13,175 90 367 2560
2023-01-23 22:12:44 GMT 40.561752 -73.513062 12,875 90 365 2880
2023-01-23 22:12:41 GMT 40.561756 -73.519508 12,725 90 363 3328
2023-01-23 22:12:37 GMT 40.561798 -73.527771 12,675 90 364 3136
2023-01-23 22:12:34 GMT 40.561848 -73.533241 12,400 90 363 3392
2023-01-23 22:12:31 GMT 40.561890 -73.542053 12,125 90 364 3328
2023-01-23 22:12:28 GMT 40.561935 -73.555847 12,025 90 363 3264
2023-01-23 22:12:25 GMT 40.561935 -73.555847 11,825 90 363 3008
2023-01-23 22:12:21 GMT 40.561981 -73.565491 11,375 90 362 2624
2023-01-23 22:12:18 GMT 40.561981 -73.571045 11,600 90 362 2624
2023-01-23 22:12:13 GMT 40.562027 -73.588257 11,275 90 356 1984
2023-01-23 22:12:10 GMT 40.562027 -73.588257 11,300 90 357 1984
2023-01-23 22:12:07 GMT 40.562073 -73.595581 11,175 90 354 1920
2023-01-23 22:12:04 GMT 40.562080 -73.599724 11,075 90 351 1856
2023-01-23 22:12:02 GMT 40.562119 -73.605347 10,975 90 350 1728
2023-01-23 22:11:58 GMT 40.562176 -73.614700 10,875 90 346 1728
2023-01-23 22:11:55 GMT 40.562256 -73.626404 10,800 90 343 1664
2023-01-23 22:11:52 GMT 40.562347 -73.633484 10,725 90 341 1600
2023-01-23 22:11:49 GMT 40.562347 -73.633484 10,650 90 336 1536
2023-01-23 22:11:46 GMT 40.562393 -73.638733 10,600 90 334 1664
2023-01-23 22:11:43 GMT 40.562439 -73.645630 10,450 90 330 2112
2023-01-23 22:11:40 GMT 40.562439 -73.651428 10,375 90 328 2432
2023-01-23 22:11:38 GMT 40.562485 -73.656555 10,250 90 327 2432
2023-01-23 22:11:35 GMT 40.562500 -73.659645 10,250 90 327 2432
2023-01-23 22:11:32 GMT 40.562485 -73.667847 10,075 89 323 1920
2023-01-23 22:11:29 GMT 40.562500 -73.671318 10,025 89 321 1920
2023-01-23 22:11:26 GMT 40.562454 -73.680496 9,850 89 319 2048
2023-01-23 22:11:21 GMT 40.562393 -73.687500 9,725 89 315 2176
2023-01-23 22:11:18 GMT 40.562347 -73.694214 9,425 89 310 2624
2023-01-23 22:11:14 GMT 40.562267 -73.701408 9,325 89 310 2752
2023-01-23 22:11:11 GMT 40.562210 -73.706909 9,300 88 309 2880
2023-01-23 22:11:08 GMT 40.562119 -73.711853 9,150 88 308 3072
2023-01-23 22:11:04 GMT 40.562035 -73.718513 8,975 88 307 3136
2023-01-23 22:11:01 GMT 40.561890 -73.725098 8,675 88 307 2752
2023-01-23 22:10:58 GMT 40.561569 -73.739983 8,550 88 304 2304
2023-01-23 22:10:54 GMT 40.561569 -73.739983 8,550 88 304 2304
2023-01-23 22:10:51 GMT 40.561340 -73.750244 8,350 88 299 2304
2023-01-23 22:10:48 GMT 40.561340 -73.750244 8,250 88 297 2560
2023-01-23 22:10:45 GMT 40.561249 -73.755615 8,125 88 296 2688
2023-01-23 22:10:42 GMT 40.561157 -73.761536 7,975 89 292 2688
2023-01-23 22:10:38 GMT 40.561104 -73.767761 7,825 89 293 2688
2023-01-23 22:10:36 GMT 40.561058 -73.771629 7,725 89 292 2688
2023-01-23 22:10:33 GMT 40.560974 -73.776794 7,575 89 290 2752
2023-01-23 22:10:30 GMT 40.560966 -73.782616 7,450 90 289 2944
2023-01-23 22:10:27 GMT 40.560966 -73.786736 7,325 90 288 3072
2023-01-23 22:10:24 GMT 40.561012 -73.792107 7,075 91 287 3136
2023-01-23 22:10:21 GMT 40.561066 -73.795593 7,075 91 287 3136
2023-01-23 22:10:18 GMT 40.561249 -73.802917 6,800 93 286 3200
2023-01-23 22:10:15 GMT 40.561432 -73.807587 6,625 93 286 3264
2023-01-23 22:10:12 GMT 40.561989 -73.817513 5,550 127 290 4224
2023-01-23 22:10:09 GMT 40.562576 -73.824768 6,350 95 286 3200
2023-01-23 22:10:06 GMT 40.562576 -73.824768 6,175 98 287 3072
2023-01-23 22:10:03 GMT 40.563107 -73.828438 6,075 103 288 2880
2023-01-23 22:09:59 GMT 40.564922 -73.836678 5,875 110 289 2496
2023-01-23 22:09:55 GMT 40.566460 -73.841484 5,700 123 287 3840
2023-01-23 22:09:52 GMT 40.568691 -73.846855 5,575 119 287 3072
2023-01-23 22:09:49 GMT 40.572838 -73.854904 5,350 126 289 4096
2023-01-23 22:09:46 GMT 40.572838 -73.854904 5,200 132 292 4416
2023-01-23 22:09:43 GMT 40.575531 -73.859070 4,925 135 294 4352
2023-01-23 22:09:40 GMT 40.579376 -73.863892 4,675 217 244 1408
2023-01-23 22:09:37 GMT 40.581539 -73.866142 4,675 217 244 1408
2023-01-23 22:09:34 GMT 40.584938 -73.869133 4,325 160 298 3264
2023-01-23 22:09:31 GMT 40.587917 -73.871132 4,250 155 300 3200
2023-01-23 22:09:28 GMT 40.593887 -73.874329 3,950 162 298 3200
2023-01-23 22:09:25 GMT 40.596497 -73.875427 3,800 167 296 3072
2023-01-23 22:09:22 GMT 40.608635 -73.877625 3,700 173 292 2560
2023-01-23 22:09:17 GMT 40.608635 -73.877625 3,525 180 286 2240
2023-01-23 22:09:14 GMT 40.609985 -73.877625 3,450 186 280 1728
2023-01-23 22:09:12 GMT 40.613892 -73.877197 3,325 191 272 2112
2023-01-23 22:09:08 GMT 40.618362 -73.876068 3,075 198 265 2688
2023-01-23 22:09:05 GMT 40.622772 -73.874329 3,050 201 262 2816
2023-01-23 22:09:01 GMT 40.626709 -73.872192 2,875 209 255 2240
2023-01-23 22:08:56 GMT 40.631332 -73.868469 2,725 219 241 1408
2023-01-23 22:08:53 GMT 40.633446 -73.866325 2,700 220 238 1344
2023-01-23 22:08:51 GMT 40.635223 -73.864258 2,675 235 206 1792
2023-01-23 22:08:47 GMT 40.638794 -73.859314 2,525 231 218 1408
2023-01-23 22:08:44 GMT 40.640430 -73.856773 2,475 235 206 1792
2023-01-23 22:08:42 GMT 40.645340 -73.847961 2,375 238 203 1536
2023-01-23 22:08:36 GMT 40.645340 -73.847961 2,250 240 200 1408
2023-01-23 22:08:33 GMT 40.646622 -73.844978 2,200 243 196 1152
2023-01-23 22:08:29 GMT 40.648041 -73.840698 2,150 252 184 1216
2023-01-23 22:08:25 GMT 40.648808 -73.837486 2,050 260 176 960
2023-01-23 22:08:22 GMT 40.649506 -73.831558 1,975 264 169 768
2023-01-23 22:08:20 GMT 40.649506 -73.831558 1,975 267 165 832
2023-01-23 22:08:19 GMT 40.649601 -73.830498 1,975 269 163 960
2023-01-23 22:08:16 GMT 40.649597 -73.827454 1,950 273 157 512
2023-01-23 22:08:14 GMT 40.649601 -73.826500 1,925 276 154 640
2023-01-23 22:08:13 GMT 40.649551 -73.825623 1,925 278 152 704
2023-01-23 22:08:12 GMT 40.649323 -73.823692 1,900 281 148 640
2023-01-23 22:08:09 GMT 40.649040 -73.821823 1,875 286 145 768
2023-01-23 22:08:08 GMT 40.648727 -73.820068 1,850 291 140 960
2023-01-23 22:08:05 GMT 40.648205 -73.818321 1,825 291 140 1024
2023-01-23 22:08:04 GMT 40.647972 -73.817451 1,800 296 133 1472
2023-01-23 22:08:03 GMT 40.647457 -73.815887 1,775 296 133 1472
2023-01-23 22:08:01 GMT 40.647171 -73.815125 1,750 296 133 1472
2023-01-23 22:08:00 GMT 40.646946 -73.814453 1,725 297 131 1856
2023-01-23 22:07:59 GMT 40.646343 -73.812897 1,650 297 132 2176
2023-01-23 22:07:55 GMT 40.645412 -73.810524 1,525 301 133 2496
2023-01-23 22:07:52 GMT 40.644527 -73.808525 1,300 301 135 2880
2023-01-23 22:07:49 GMT 40.643600 -73.806396 1,225 301 135 2880
2023-01-23 22:07:45 GMT 40.642136 -73.803101 1,000 301 137 3136
2023-01-23 22:07:41 GMT 40.641174 -73.800972 850 301 140 2944
2023-01-23 22:07:38 GMT 40.640213 -73.798828 675 301 142 2752
2023-01-23 22:07:28 GMT 40.636597 -73.790771 225 301 150 1472
2023-01-23 22:07:18 GMT 40.633347 -73.783447 225 302 121 -64
2023-01-23 22:07:07 GMT 40.630653 -73.777565 225 300 84
2023-01-23 22:06:56 GMT 40.628967 -73.773880 0 300 42
2023-01-23 22:06:52 GMT 40.628521 -73.772949 0 298 15
2023-01-23 22:06:50 GMT 40.628460 -73.772789 0 302 14
2023-01-23 22:06:48 GMT 40.628391 -73.772636 0 304 13
2023-01-23 22:06:45 GMT 40.628288 -73.772453 0 301 7
2023-01-23 22:06:36 GMT 40.628151 -73.772133 0 297 4
2023-01-23 22:06:31 GMT 40.628181 -73.772049 0 255 4
2023-01-23 22:06:28 GMT 40.628181 -73.771973 0 244 5
2023-01-23 22:06:25 GMT 40.628181 -73.771889 0 217 7
2023-01-23 22:06:19 GMT 40.628319 -73.771782 0 227 7
2023-01-23 22:06:16 GMT 40.628326 -73.771744 0 210 9
2023-01-23 22:06:13 GMT 40.628448 -73.771606 0 212 10
2023-01-23 22:06:11 GMT 40.628510 -73.771500 0 195 9
2023-01-23 22:06:08 GMT 40.628651 -73.771461 0 205 11
2023-01-23 22:06:05 GMT 40.628799 -73.771378 0 217 10
2023-01-23 22:06:03 GMT 40.628891 -73.771317 0 223 8
2023-01-23 22:06:01 GMT 40.628941 -73.771248 0 218 8
2023-01-23 22:05:55 GMT 40.629139 -73.771049 0 203 11
2023-01-23 22:05:53 GMT 40.629261 -73.771042 0 217 9
2023-01-23 22:05:50 GMT 40.629318 -73.770950 0 212 9
2023-01-23 22:05:45 GMT 40.629440 -73.770813 0 178 9
2023-01-23 22:05:43 GMT 40.629532 -73.770821 0 180 9
2023-01-23 22:05:38 GMT 40.629730 -73.770844 0 163 6
2023-01-23 22:05:36 GMT 40.629780 -73.770844 0 141 6
2023-01-23 22:05:33 GMT 40.629841 -73.770882 0 119 7
2023-01-23 22:05:30 GMT 40.629890 -73.770981 0 117 4
2023-01-23 22:05:28 GMT 40.629902 -73.771004 0 122 4
2023-01-23 22:05:24 GMT 40.629932 -73.771072 0 125 7
2023-01-23 22:05:20 GMT 40.630009 -73.771217 0 118 10
2023-01-23 22:05:17 GMT 40.630081 -73.771400 0 115 12
2023-01-23 22:05:14 GMT 40.630119 -73.771553 0 125 12
2023-01-23 22:05:12 GMT 40.630219 -73.771713 0 122 9
2023-01-23 22:05:09 GMT 40.630280 -73.771812 0 118 17
2023-01-23 22:05:06 GMT 40.630341 -73.771988 0 122 17
2023-01-23 22:05:04 GMT 40.630451 -73.772179 0 117 13
2023-01-23 22:05:01 GMT 40.630539 -73.772392 0 117 13
2023-01-23 22:04:58 GMT 40.630611 -73.772583 0 119 20
2023-01-23 22:04:53 GMT 40.630829 -73.773048 0 119 16
2023-01-23 22:04:50 GMT 40.630951 -73.773300 0 118 15
2023-01-23 22:04:48 GMT 40.631050 -73.773491 0 114 15
2023-01-23 22:04:42 GMT 40.631226 -73.773911 0 120 17
2023-01-23 22:04:38 GMT 40.631432 -73.774338 0 119 15
2023-01-23 22:04:36 GMT 40.631489 -73.774490 0 120 18
2023-01-23 22:04:33 GMT 40.631630 -73.774773 0 117 13
2023-01-23 22:04:30 GMT 40.631680 -73.774910 0 120 15
2023-01-23 22:04:25 GMT 40.631958 -73.775551 0 120 15
2023-01-23 22:04:19 GMT 40.632042 -73.775726 0 120 14
2023-01-23 22:04:16 GMT 40.632172 -73.776009 0 118 13
2023-01-23 22:04:13 GMT 40.632240 -73.776230 0 129 14
2023-01-23 22:04:09 GMT 40.632374 -73.776459 0 120 13
2023-01-23 22:04:02 GMT 40.632549 -73.776901 0 124 9
2023-01-23 22:03:57 GMT 40.632679 -73.777161 0 125 11
2023-01-23 22:03:55 GMT 40.632751 -73.777260 0 119 11
2023-01-23 22:03:49 GMT 40.632889 -73.777611 0 125 11
2023-01-23 22:03:46 GMT 40.632980 -73.777763 0 118 11
2023-01-23 22:03:43 GMT 40.633060 -73.777931 0 122 11
2023-01-23 22:03:41 GMT 40.633121 -73.778038 0 125 9
2023-01-23 22:03:38 GMT 40.633202 -73.778214 0 120 9
2023-01-23 22:03:35 GMT 40.633240 -73.778328 0 131 12
2023-01-23 22:03:30 GMT 40.633419 -73.778557 0 93 12
2023-01-23 22:03:28 GMT 40.633450 -73.778732 0 81 7
2023-01-23 22:03:25 GMT 40.633438 -73.778870 0 72 12
2023-01-23 22:03:20 GMT 40.633362 -73.779160 0 82 13
2023-01-23 22:03:17 GMT 40.633358 -73.779282 0 81 12
2023-01-23 22:03:13 GMT 40.633331 -73.779663 0 77 9
2023-01-23 22:03:11 GMT 40.633289 -73.779762 0 85 9
2023-01-23 22:03:07 GMT 40.633270 -73.779999 0 98 10
2023-01-23 22:03:04 GMT 40.633289 -73.780220 0 105 10
2023-01-23 22:03:01 GMT 40.633320 -73.780388 0 107 10
2023-01-23 22:02:59 GMT 40.633331 -73.780472 0 109 10
2023-01-23 22:02:53 GMT 40.633430 -73.780800 0 113 7
2023-01-23 22:02:50 GMT 40.633469 -73.780937 0 116 7
2023-01-23 22:02:47 GMT 40.633480 -73.781021 0 124 12
2023-01-23 22:02:45 GMT 40.633560 -73.781158 0 124 7
2023-01-23 22:02:43 GMT 40.633598 -73.781227 0 113 7
2023-01-23 22:02:40 GMT 40.633629 -73.781326 0 118 5
2023-01-23 22:02:37 GMT 40.633671 -73.781448 0 124 5
2023-01-23 22:02:29 GMT 40.633801 -73.781731 0 124 8
2023-01-23 22:02:26 GMT 40.633869 -73.781853 0 115 4
2023-01-23 22:02:23 GMT 40.633919 -73.781952 0 111 4
2023-01-23 22:02:21 GMT 40.633911 -73.781990 0 118 6
2023-01-23 22:02:19 GMT 40.633961 -73.782059 0 110 4
2023-01-23 22:02:16 GMT 40.633968 -73.782127 0 121 3
2023-01-23 22:02:14 GMT 40.633999 -73.782173 0 127 3
2023-01-23 22:02:09 GMT 40.634010 -73.782227 0 125 3
2023-01-23 22:02:06 GMT 40.634060 -73.782280 0 114 0
2023-01-23 22:02:03 GMT 40.634060 -73.782288 0 114 1
2023-01-23 22:01:58 GMT 40.634064 -73.782326 0 120 1
2023-01-23 22:01:54 GMT 40.634090 -73.782372 0 114 3
2023-01-23 22:01:51 GMT 40.634071 -73.782356 0 114 3
2023-01-23 22:01:47 GMT 40.634121 -73.782402 0 105 1
2023-01-23 22:01:41 GMT 40.634151 -73.782539 0 123 11
2023-01-23 22:01:39 GMT 40.634178 -73.782623 0 125 18
2023-01-23 22:01:37 GMT 40.634281 -73.782806 0 128 16
2023-01-23 22:01:34 GMT 40.634430 -73.783028 0 111 16
2023-01-23 22:01:32 GMT 40.634460 -73.783241 0 126 14
2023-01-23 22:01:29 GMT 40.634579 -73.783432 0 119 14
2023-01-23 22:01:26 GMT 40.634682 -73.783669 0 120 16
2023-01-23 22:01:23 GMT 40.634800 -73.783951 0 123 13
2023-01-23 22:01:21 GMT 40.634880 -73.784088 0 121 10
2023-01-23 22:01:19 GMT 40.634911 -73.784157 0 120 17
2023-01-23 22:01:16 GMT 40.634983 -73.784348 0 120 14
2023-01-23 22:01:13 GMT 40.635132 -73.784660 0 121 12
2023-01-23 22:01:10 GMT 40.635220 -73.784851 0 122 13
2023-01-23 22:01:07 GMT 40.635319 -73.785080 0 122 14
2023-01-23 22:01:02 GMT 40.635521 -73.785500 0 117 6
2023-01-23 22:01:00 GMT 40.635540 -73.785507 0 113 14
2023-01-23 22:00:52 GMT 40.635769 -73.786057 0 115 14
2023-01-23 22:00:49 GMT 40.635849 -73.786308 0 126 14
2023-01-23 22:00:46 GMT 40.635948 -73.786461 0 120 14
2023-01-23 22:00:41 GMT 40.636131 -73.786842 0 120 13
2023-01-23 22:00:39 GMT 40.636189 -73.786957 0 117 13
2023-01-23 22:00:37 GMT 40.636269 -73.787109 0 114 13
2023-01-23 22:00:33 GMT 40.636372 -73.787407 0 118 11
2023-01-23 22:00:30 GMT 40.636440 -73.787552 0 118 11
2023-01-23 22:00:23 GMT 40.636669 -73.788078 0 121 16
2023-01-23 22:00:17 GMT 40.636856 -73.788467 0 120 14
2023-01-23 22:00:14 GMT 40.636978 -73.788727 0 120 16
2023-01-23 22:00:11 GMT 40.637058 -73.788971 0 124 13
2023-01-23 22:00:09 GMT 40.637131 -73.789108 0 118 13
2023-01-23 22:00:05 GMT 40.637218 -73.789383 0 127 12
2023-01-23 21:59:57 GMT 40.637539 -73.789993 0 113 11
2023-01-23 21:59:54 GMT 40.637611 -73.790192 0 118 17
2023-01-23 21:59:51 GMT 40.637691 -73.790382 0 124 17
2023-01-23 21:59:48 GMT 40.637829 -73.790642 0 123 17
2023-01-23 21:59:43 GMT 40.637981 -73.790985 0 114 17
2023-01-23 21:59:39 GMT 40.638100 -73.791252 0 123 15
2023-01-23 21:59:37 GMT 40.638180 -73.791420 0 125 10
2023-01-23 21:59:35 GMT 40.638260 -73.791573 0 127 10
2023-01-23 21:59:32 GMT 40.638351 -73.791710 0 117 11
2023-01-23 21:59:30 GMT 40.638409 -73.791840 0 109 7
2023-01-23 21:59:23 GMT 40.638519 -73.792175 0 120 9
2023-01-23 21:59:20 GMT 40.638599 -73.792328 0 123 10
2023-01-23 21:59:14 GMT 40.638710 -73.792526 0 115 8
2023-01-23 21:59:12 GMT 40.638741 -73.792610 0 117 8
2023-01-23 21:59:07 GMT 40.638809 -73.792831 0 116 4
2023-01-23 21:59:04 GMT 40.638809 -73.792923 0 140 10
2023-01-23 21:58:59 GMT 40.638962 -73.793068 0 147 9
2023-01-23 21:58:52 GMT 40.639221 -73.793282 0 218 9
2023-01-23 21:58:49 GMT 40.639309 -73.793159 0 225 9
2023-01-23 21:58:41 GMT 40.639481 -73.792999 0 225 7
2023-01-23 21:58:37 GMT 40.639580 -73.792809 0 222 5
2023-01-23 21:58:35 GMT 40.639610 -73.792747 0 210 5
2023-01-23 21:58:32 GMT 40.639671 -73.792686 0 217 7
2023-01-23 21:58:29 GMT 40.639771 -73.792633 0 202 4
2023-01-23 21:58:27 GMT 40.639740 -73.792557 0 203 5
2023-01-23 21:58:25 GMT 40.639790 -73.792580 0 220 7
2023-01-23 21:58:23 GMT 40.639839 -73.792549 0 189 7
2023-01-23 21:58:20 GMT 40.639881 -73.792450 0 170 3
2023-01-23 21:58:18 GMT 40.639912 -73.792389 0 109 3
2023-01-23 21:58:15 GMT 40.640018 -73.792290 0 107 0
2023-01-23 21:58:13 GMT 40.640148 -73.792099 0 107 0
2023-01-23 21:58:11 GMT 40.640148 -73.792091 0 107 1
2023-01-23 21:58:08 GMT 40.640160 -73.792099 0 107 2
2023-01-23 21:58:06 GMT 40.640171 -73.792084 0 107 2
2023-01-23 21:58:04 GMT 40.640160 -73.792091 0 107 2
2023-01-23 21:58:02 GMT 40.640202 -73.792023 0 107 1
2023-01-23 21:58:00 GMT 40.640171 -73.792061 0 107 1
2023-01-23 21:57:57 GMT 40.640240 -73.792007 0 107 1
2023-01-23 21:57:54 GMT 40.640221 -73.792023 0 107 2
2023-01-23 21:57:51 GMT 40.640282 -73.791931 0 107 0
2023-01-23 21:57:47 GMT 40.640289 -73.791908 0 107 0
2023-01-23 21:57:45 GMT 40.640259 -73.791946 0 107 0
2023-01-23 21:57:41 GMT 40.640289 -73.791969 0 107 0
2023-01-23 21:57:39 GMT 40.640259 -73.791946 0 107 0
2023-01-23 21:57:36 GMT 40.640270 -73.791931 0 107 0
2023-01-23 21:57:30 GMT 40.640259 -73.791946 0 107 0
2023-01-23 21:57:27 GMT 40.640301 -73.791931 0 107 0
2023-01-23 21:57:21 GMT 40.640282 -73.791939 0 107 0
2023-01-23 21:57:17 GMT 40.640308 -73.791924 0 107 0
2023-01-23 21:57:15 GMT 40.640282 -73.791962 0 107 0
2023-01-23 21:57:11 GMT 40.640270 -73.791946 0 107 0
2023-01-23 21:57:09 GMT 40.640270 -73.791931 0 107 0
2023-01-23 21:57:06 GMT 40.640259 -73.791946 0 107 0
2023-01-23 21:57:03 GMT 40.640289 -73.791893 0 107 0
2023-01-23 21:57:01 GMT 40.640282 -73.791901 0 107 0
2023-01-23 21:56:57 GMT 40.640259 -73.791946 0 107 0
2023-01-23 21:56:55 GMT 40.640221 -73.792030 0 107 0
2023-01-23 21:56:52 GMT 40.640228 -73.791977 0 107 0
2023-01-23 21:56:50 GMT 40.640240 -73.791992 0 107 0
2023-01-23 21:56:47 GMT 40.640289 -73.791924 0 107 0
2023-01-23 21:56:44 GMT 40.640221 -73.792007 0 107 0
2023-01-23 21:56:42 GMT 40.640270 -73.791908 0 107 0
2023-01-23 21:56:37 GMT 40.640221 -73.791962 0 107 0
2023-01-23 21:56:32 GMT 40.640202 -73.792000 0 107 0
2023-01-23 21:56:29 GMT 40.640202 -73.792007 0 107 0
2023-01-23 21:56:27 GMT 40.640209 -73.792000 0 107 0
2023-01-23 21:56:24 GMT 40.640221 -73.791977 0 107 0
2023-01-23 21:56:22 GMT 40.640209 -73.792000 0 107 0
2023-01-23 21:56:20 GMT 40.640190 -73.791977 0 107 0
2023-01-23 21:56:18 GMT 40.640209 -73.791977 0 107 0
2023-01-23 21:56:15 GMT 40.640209 -73.792007 0 107 0
2023-01-23 21:56:10 GMT 40.640251 -73.792000 0 107 0
2023-01-23 21:56:04 GMT 40.640228 -73.792053 0 107 0
2023-01-23 21:56:01 GMT 40.640228 -73.792023 0 107 0
2023-01-23 21:55:59 GMT 40.640221 -73.792030 0 107 0
2023-01-23 21:55:56 GMT 40.640209 -73.792000 0 107 0
2023-01-23 21:55:53 GMT 40.640259 -73.791939 0 107 0
2023-01-23 21:55:51 GMT 40.640228 -73.791977 0 107 0
2023-01-23 21:55:49 GMT 40.640202 -73.792007 0 107 0
2023-01-23 21:55:47 GMT 40.640221 -73.792000 0 107 0
2023-01-23 21:55:42 GMT 40.640121 -73.792152 0 107 0
2023-01-23 21:55:39 GMT 40.640129 -73.792152 0 107 0
2023-01-23 21:55:33 GMT 40.640190 -73.792130 0 107 0
2023-01-23 21:55:28 GMT 40.640259 -73.792000 0 107 0
2023-01-23 21:55:26 GMT 40.640240 -73.792007 0 107 0
2023-01-23 21:55:24 GMT 40.640240 -73.792000 0 107 0
2023-01-23 21:55:21 GMT 40.640251 -73.791992 0 107 0
2023-01-23 21:55:19 GMT 40.640240 -73.791992 0 107 0
2023-01-23 21:55:16 GMT 40.640251 -73.791992 0 107 0
2023-01-23 21:55:13 GMT 40.640289 -73.792023 0 107 0
2023-01-23 21:55:11 GMT 40.640259 -73.792030 0 107 0
2023-01-23 21:55:08 GMT 40.640270 -73.791946 0 107 0
2023-01-23 21:55:06 GMT 40.640251 -73.791977 0 107 0
2023-01-23 21:55:03 GMT 40.640251 -73.791924 0 107 0
2023-01-23 21:55:00 GMT 40.640240 -73.791939 0 107 0
2023-01-23 21:54:57 GMT 40.640259 -73.791962 0 107 0
2023-01-23 21:54:54 GMT 40.640240 -73.792023 0 107 0
2023-01-23 21:54:51 GMT 40.640251 -73.791992 0 107 0
2023-01-23 21:54:47 GMT 40.640270 -73.791969 0 107 0
2023-01-23 21:54:41 GMT 40.640240 -73.791992 0 107 0
2023-01-23 21:52:43 GMT 40.640133 -73.792130 0 222 2
2023-01-23 21:52:38 GMT 40.640141 -73.792107 0 219 3
2023-01-23 21:52:25 GMT 40.640221 -73.792015 0 219 2
2023-01-23 21:52:15 GMT 40.640293 -73.791977 0 225 2
2023-01-23 21:52:03 GMT 40.640347 -73.791885 0 227 2
2023-01-23 21:51:58 GMT 40.640362 -73.791855 0 225 0
2023-01-23 21:51:39 GMT 40.640339 -73.792023 0 241 2
2023-01-23 21:51:38 GMT 40.640347 -73.792030 0 244 2
2023-01-23 21:51:27 GMT 40.640411 -73.791962 0 97 0
2023-01-23 21:51:24 GMT 40.640400 -73.791931 0 97 2
2023-01-23 21:51:22 GMT 40.640400 -73.791946 0 97 2
2023-01-23 21:51:20 GMT 40.640400 -73.791969 0 97 3
2023-01-23 21:51:18 GMT 40.640400 -73.791992 0 97 3
2023-01-23 21:51:15 GMT 40.640400 -73.792030 0 97 3
2023-01-23 21:51:10 GMT 40.640411 -73.792160 0 88 3
2023-01-23 21:51:07 GMT 40.640442 -73.792381 0 80 3
2023-01-23 21:51:04 GMT 40.640419 -73.792320 0 80 3
2023-01-23 21:51:02 GMT 40.640419 -73.792252 0 72 4
2023-01-23 21:50:59 GMT 40.640388 -73.792221 0 64 4
2023-01-23 21:50:55 GMT 40.640411 -73.792313 0 19 4
2023-01-23 21:50:52 GMT 40.640442 -73.792419 0 323 4
2023-01-23 21:50:49 GMT 40.640491 -73.792580 0 321 1
2023-01-23 21:50:47 GMT 40.640549 -73.792633 0 321 1
2023-01-23 21:50:44 GMT 40.640549 -73.792618 0 321 1
2023-01-23 21:50:42 GMT 40.640491 -73.792679 0 321 1
2023-01-23 21:50:37 GMT 40.640450 -73.792732 0 321 1
2023-01-23 21:50:34 GMT 40.640453 -73.792717 0 321 1
2023-01-23 21:50:31 GMT 40.640450 -73.792747 0 321 1
2023-01-23 21:50:28 GMT 40.640461 -73.792763 0 321 1
2023-01-23 21:50:25 GMT 40.640491 -73.792732 0 321 1
2023-01-23 21:50:22 GMT 40.640560 -73.792671 0 321 1
2023-01-23 21:50:14 GMT 40.640533 -73.792809 0 289 2
2023-01-23 21:50:11 GMT 40.640556 -73.792816 0 295 2
2023-01-23 21:50:02 GMT 40.640648 -73.792831 0 312 2
2023-01-23 21:49:48 GMT 40.640778 -73.792809 0 337 2
2023-01-23 21:49:43 GMT 40.640816 -73.792793 0 343 2

Making use of Plane Finder data

You are free to use the raw flight data, aircraft information and images provided in this report for your own purposes provided the data is correctly attributed to Plane Finder. We ask that you please credit Plane Finder and link to planefinder.net in close proximity to the content.

Optionally one of the following logos (no smaller then 150x24px) can be used and must link to planefinder.net

Embedding the Plane Finder map

You are welcome to embed the Plane Finder playback map on your website to offer visitors a more interactive experience. We suggest using the following HTML code:

<iframe src="//planefinder.net/data/report/AZ609-EI-DIP-7700-squawk-2023-01-24/map" width="800" height="600" seamless="seamless"></iframe>

Where our data comes from

Plane Finder has a global network of data feeds and antenna radars that receive data broadcast directly from aircraft. The primary technologies used are ADS-B and MLAT. We also show feeds from the FAA and a FLARM glider feed.

Click here to find out more about the Plane Finder network.

How we collect our data